[[{"header":{"parameterUnit":"m.s-1","parameterCategory":1,"la1":30.6,"la2":28.766,"lo1":-90.7593,"lo2":-88.6598,"dy":0.0162,"dx":0.0183,"nx":116,"ny":114,"refTime":"2024-06-25T18:00:00:Z","depth":0,"parameterNumber":2,"parameterNumberName":"U-component_of_WINDS"},"data":[0.0,0.0,0.0,0.0,0.0,0.0,0.0,0.0,0.0,0.0,0.0,0.0,0.0,0.0,0.0,0.0,0.0,0.0,0.0,0.0,0.0,0.0,0.0,0.0,0.0,0.0,0.0,0.0,0.0,0.0,0.0,0.0,0.0,0.0,0.0,0.0,0.0,0.0,0.0,0.0,0.0,0.0,0.0,0.0,0.0,0.0,0.0,0.0,0.0,0.0,0.0,0.0,0.0,0.0,0.0,0.0,0.0,0.0,0.0,0.0,0.0,0.0,0.0,0.0,0.0,0.0,0.0,0.0,0.0,0.0,0.0,0.0,0.0,0.0,0.0,0.0,0.0,0.0,0.0,0.0,0.0,0.0,0.0,0.0,0.0,0.0,0.0,0.0,0.0,0.0,0.0,0.0,0.0,0.0,0.0,0.0,0.0,0.0,0.0,0.0,0.0,0.0,0.0,0.0,0.0,0.0,0.0,0.0,0.0,0.0,0.0,0.0,0.0,0.0,0.0,0.0,0.0,0.0,0.0,0.0,0.0,0.0,0.0,0.0,0.0,0.0,0.0,0.0,0.0,0.0,0.0,0.0,0.0,0.0,0.0,0.0,0.0,0.0,0.0,0.0,0.0,0.0,0.0,0.0,0.0,0.0,0.0,0.0,0.0,0.0,0.0,0.0,0.0,0.0,0.0,0.0,0.0,0.0,0.0,0.0,0.0,0.0,0.0,0.0,0.0,0.0,0.0,0.0,0.0,0.0,0.0,0.0,0.0,0.0,0.0,0.0,0.0,0.0,0.0,0.0,0.0,0.0,0.0,0.0,0.0,0.0,0.0,0.0,0.0,0.0,0.0,0.0,0.0,0.0,0.0,0.0,0.0,0.0,0.0,0.0,0.0,0.0,0.0,0.0,0.0,0.0,0.0,0.0,0.0,0.0,0.0,0.0,0.0,0.0,0.0,0.0,0.0,0.0,0.0,0.0,0.0,0.0,0.0,0.0,0.0,0.0,0.0,0.0,0.0,0.0,0.0,0.0,0.0,0.0,0.0,0.0,0.0,0.0,0.0,0.0,0.0,0.0,0.0,0.0,0.0,0.0,0.0,0.0,0.0,0.0,0.0,0.0,0.0,0.0,0.0,0.0,0.0,0.0,0.0,0.0,0.0,0.0,0.0,0.0,0.0,0.0,0.0,0.0,0.0,0.0,0.0,0.0,0.0,0.0,0.0,0.0,0.0,0.0,0.0,0.0,0.0,0.0,0.0,0.0,0.0,0.0,0.0,0.0,0.0,0.0,0.0,0.0,0.0,0.0,0.0,0.0,0.0,0.0,0.0,0.0,0.0,0.0,0.0,0.0,0.0,0.0,0.0,0.0,0.0,0.0,0.0,0.0,0.0,0.0,0.0,0.0,0.0,0.0,0.0,0.0,0.0,0.0,0.0,0.0,0.0,0.0,0.0,0.0,0.0,0.0,0.0,0.0,0.0,0.0,0.0,0.0,0.0,0.0,0.0,0.0,0.0,0.0,0.0,0.0,0.0,0.0,0.0,0.0,0.0,0.0,0.0,0.0,0.0,0.0,0.0,0.0,0.0,0.0,0.0,0.0,0.0,0.0,0.0,0.0,0.0,0.0,0.0,0.0,0.0,0.0,0.0,0.0,0.0,0.0,0.0,0.0,0.0,0.0,0.0,0.0,0.0,0.0,0.0,0.0,0.0,0.0,0.0,0.0,0.0,0.0,0.0,0.0,0.0,0.0,0.0,0.0,0.0,0.0,0.0,0.0,0.0,0.0,0.0,0.0,0.0,0.0,0.0,0.0,0.0,0.0,0.0,0.0,0.0,0.0,0.0,0.0,0.0,0.0,0.0,0.0,0.0,0.0,0.0,0.0,0.0,0.0,0.0,0.0,0.0,0.0,0.0,0.0,0.0,0.0,0.0,0.0,0.0,0.0,0.0,0.0,0.0,0.0,0.0,0.0,0.0,0.0,0.0,0.0,0.0,0.0,0.0,0.0,0.0,0.0,0.0,0.0,0.0,0.0,0.0,0.0,0.0,0.0,0.0,0.0,0.0,0.0,0.0,0.0,0.0,0.0,0.0,0.0,0.0,0.0,0.0,0.0,0.0,0.0,0.0,0.0,0.0,0.0,0.0,0.0,0.0,0.0,0.0,0.0,0.0,0.0,0.0,0.0,0.0,0.0,0.0,0.0,0.0,0.0,0.0,0.0,0.0,0.0,0.0,0.0,0.0,0.0,0.0,0.0,0.0,0.0,0.0,0.0,0.0,0.0,0.0,0.0,0.0,0.0,0.0,0.0,0.0,0.0,0.0,0.0,0.0,0.0,0.0,0.0,0.0,0.0,0.0,0.0,0.0,0.0,0.0,0.0,0.0,0.0,0.0,0.0,0.0,0.0,0.0,0.0,0.0,0.0,0.0,0.0,0.0,0.0,0.0,0.0,0.0,0.0,0.0,0.0,0.0,0.0,0.0,0.0,0.0,0.0,0.0,0.0,0.0,0.0,0.0,0.0,0.0,0.0,0.0,0.0,0.0,0.0,0.0,0.0,0.0,0.0,0.0,0.0,0.0,0.0,0.0,0.0,0.0,0.0,0.0,0.0,0.0,0.0,0.0,0.0,0.0,0.0,0.0,0.0,0.0,0.0,0.0,0.0,0.0,0.0,0.0,0.0,0.0,0.0,0.0,0.0,0.0,0.0,0.0,0.0,0.0,0.0,0.0,0.0,0.0,0.0,0.0,0.0,0.0,0.0,0.0,0.0,0.0,0.0,0.0,0.0,0.0,0.0,0.0,0.0,0.0,0.0,0.0,0.0,0.0,0.0,0.0,0.0,0.0,0.0,0.0,0.0,0.0,0.0,0.0,0.0,0.0,0.0,0.0,0.0,0.0,0.0,0.0,0.0,0.0,0.0,0.0,0.0,0.0,0.0,0.0,0.0,0.0,0.0,0.0,0.0,0.0,0.0,0.0,0.0,0.0,0.0,0.0,0.0,0.0,0.0,0.0,0.0,0.0,0.0,0.0,0.0,0.0,0.0,0.0,0.0,0.0,0.0,0.0,0.0,0.0,0.0,0.0,0.0,0.0,0.0,0.0,0.0,0.0,0.0,0.0,0.0,0.0,0.0,0.0,0.0,0.0,0.0,0.0,0.0,0.0,0.0,0.0,0.0,0.0,0.0,0.0,0.0,0.0,0.0,0.0,0.0,0.0,0.0,0.0,0.0,0.0,0.0,0.0,0.0,0.0,0.0,0.0,0.0,0.0,0.0,0.0,0.0,0.0,0.0,0.0,0.0,0.0,0.0,0.0,0.0,0.0,0.0,0.0,0.0,0.0,0.0,0.0,0.0,0.0,0.0,0.0,0.0,0.0,0.0,0.0,0.0,0.0,0.0,0.0,0.0,0.0,0.0,0.0,0.0,0.0,0.0,0.0,0.0,0.0,0.0,0.0,0.0,0.0,0.0,0.0,0.0,0.0,0.0,0.0,0.0,0.0,0.0,0.0,0.0,0.0,0.0,0.0,0.0,0.0,0.0,0.0,0.0,0.0,0.0,0.0,0.0,0.0,0.0,0.0,0.0,0.0,0.0,0.0,0.0,0.0,0.0,0.0,0.0,0.0,0.0,0.0,0.0,0.0,0.0,0.0,0.0,0.0,0.0,0.0,0.0,0.0,0.0,0.0,0.0,0.0,0.0,0.0,0.0,0.0,0.0,0.0,0.0,0.0,0.0,0.0,0.0,0.0,0.0,0.0,0.0,0.0,0.0,0.0,0.0,0.0,0.0,0.0,0.0,0.0,0.0,0.0,0.0,0.0,0.0,0.0,0.0,0.0,0.0,0.0,0.0,0.0,0.0,0.0,0.0,0.0,0.0,0.0,0.0,0.0,0.0,0.0,0.0,0.0,0.0,0.0,0.0,0.0,0.0,0.0,0.0,0.0,0.0,0.0,0.0,0.0,0.0,0.0,0.0,0.0,0.0,0.0,0.0,0.0,0.0,0.0,0.0,0.0,0.0,0.0,0.0,0.0,0.0,0.0,0.0,0.0,0.0,0.0,0.0,0.0,0.0,0.0,0.0,0.0,0.0,0.0,0.0,0.0,0.0,0.0,0.0,0.0,0.0,0.0,0.0,0.0,0.0,0.0,0.0,0.0,0.0,0.0,0.0,0.0,0.0,0.0,0.0,0.0,0.0,0.0,0.0,0.0,0.0,0.0,0.0,0.0,0.0,0.0,0.0,0.0,0.0,0.0,0.0,0.0,0.0,0.0,0.0,0.0,0.0,0.0,0.0,0.0,0.0,0.0,0.0,0.0,0.0,0.0,0.0,0.0,0.0,0.0,0.0,0.0,0.0,0.0,0.0,0.0,0.0,0.0,0.0,0.0,0.0,0.0,0.0,0.0,0.0,0.0,0.0,0.0,0.0,0.0,0.0,0.0,0.0,0.0,0.0,0.0,0.0,0.0,0.0,0.0,0.0,0.0,0.0,0.0,0.0,0.0,0.0,0.0,0.0,0.0,0.0,0.0,0.0,0.0,0.0,0.0,0.0,0.0,0.0,0.0,0.0,0.0,0.0,0.0,0.0,0.0,0.0,0.0,0.0,0.0,0.0,0.0,0.0,0.0,0.0,0.0,0.0,0.0,0.0,0.0,0.0,0.0,0.0,0.0,0.0,0.0,0.0,0.0,0.0,0.0,0.0,0.0,0.0,0.0,0.0,0.0,0.0,0.0,0.0,0.0,0.0,0.0,0.0,0.0,0.0,0.0,0.0,0.0,0.0,0.0,0.0,0.0,0.0,0.0,0.0,0.0,0.0,0.0,0.0,0.0,0.0,0.0,0.0,0.0,0.0,0.0,0.0,0.0,0.0,0.0,0.0,0.0,0.0,0.0,0.0,0.0,0.0,0.0,0.0,0.0,0.0,0.0,0.0,0.0,0.0,0.0,0.0,0.0,0.0,0.0,0.0,0.0,0.0,0.0,0.0,0.0,0.0,0.0,0.0,0.0,0.0,0.0,0.0,0.0,0.0,0.0,0.0,0.0,0.0,0.0,0.0,0.0,0.0,0.0,0.0,0.0,0.0,0.0,0.0,0.0,0.0,0.0,0.0,0.0,0.0,0.0,0.0,0.0,0.0,0.0,0.0,0.0,0.0,0.0,0.0,0.0,0.0,0.0,0.0,0.0,0.0,0.0,0.0,0.0,0.0,0.0,0.0,0.0,0.0,0.0,0.0,0.0,0.0,0.0,0.0,0.0,0.0,0.0,0.0,0.0,0.0,0.0,0.0,0.0,0.0,0.0,0.0,0.0,0.0,0.0,0.0,0.0,0.0,0.0,0.0,0.0,0.0,0.0,0.0,0.0,0.0,0.0,0.0,0.0,0.0,0.0,0.0,0.0,0.0,0.0,0.0,0.0,0.0,0.0,0.0,0.0,0.0,0.0,0.0,0.0,0.0,0.0,0.0,0.0,0.0,0.0,0.0,0.0,0.0,0.0,0.0,0.0,0.0,0.0,0.0,0.0,0.0,0.0,0.0,0.0,0.0,0.0,0.0,0.0,0.0,0.0,0.0,0.0,0.0,0.0,0.0,0.0,0.0,0.0,0.0,0.0,0.0,0.0,0.0,0.0,0.0,0.0,0.0,0.0,0.0,0.0,0.0,0.0,0.0,0.0,0.0,0.0,0.0,0.0,0.0,0.0,0.0,0.0,0.0,0.0,0.0,0.0,0.0,0.0,0.0,0.0,0.0,0.0,0.0,0.0,0.0,0.0,0.0,0.0,0.0,0.0,0.0,0.0,0.0,0.0,0.0,0.0,0.0,0.0,0.0,0.0,0.0,0.0,0.0,0.0,0.0,0.0,0.0,0.0,0.0,0.0,0.0,0.0,0.0,0.0,0.0,0.0,0.0,0.0,0.0,0.0,0.0,0.0,0.0,0.0,0.0,0.0,0.0,0.0,0.0,0.0,0.0,0.0,0.0,0.0,0.0,0.0,0.0,0.0,0.0,0.0,0.0,0.0,0.0,0.0,0.0,0.0,0.0,0.0,0.0,0.0,0.0,0.0,0.0,0.0,0.0,0.0,0.0,0.0,0.0,0.0,0.0,0.0,0.0,0.0,0.0,-3.5495,0.0,0.0,0.0,0.0,0.0,0.0,0.0,0.0,0.0,0.0,0.0,0.0,0.0,0.0,0.0,0.0,0.0,0.0,0.0,0.0,0.0,0.0,0.0,0.0,-2.2528,-2.3317,-2.4562,-2.5058,-2.5308,-2.5308,0.0,0.0,0.0,0.0,0.0,-2.4678,-2.4639,-2.4851,-2.5298,-2.6524,-2.7794,-2.9025,-2.8159,-2.7107,-2.5895,0.0,0.0,0.0,0.0,0.0,0.0,0.0,0.0,0.0,0.0,0.0,0.0,0.0,0.0,0.0,0.0,0.0,0.0,0.0,0.0,0.0,0.0,0.0,0.0,0.0,0.0,0.0,0.0,0.0,0.0,0.0,0.0,0.0,0.0,0.0,0.0,0.0,0.0,0.0,0.0,0.0,0.0,0.0,0.0,0.0,0.0,0.0,0.0,0.0,0.0,0.0,0.0,0.0,0.0,0.0,0.0,0.0,0.0,0.0,0.0,0.0,0.0,0.0,0.0,0.0,0.0,0.0,0.0,0.0,0.0,0.0,-3.8138,0.0,0.0,0.0,0.0,0.0,0.0,0.0,0.0,0.0,0.0,0.0,0.0,0.0,0.0,0.0,0.0,0.0,0.0,0.0,0.0,0.0,-2.0142,-2.2543,-2.3058,-2.3842,-2.5365,-2.5634,-2.5672,-2.5494,0.0,0.0,0.0,0.0,-2.5308,-2.5308,-2.6154,-2.6678,-2.6832,-2.88,-3.0737,-3.2564,-3.2564,-3.1525,0.0,-2.814,0.0,0.0,0.0,0.0,0.0,0.0,0.0,0.0,0.0,0.0,0.0,0.0,0.0,0.0,0.0,0.0,0.0,0.0,0.0,0.0,0.0,0.0,0.0,0.0,0.0,0.0,0.0,0.0,0.0,0.0,0.0,0.0,0.0,0.0,0.0,0.0,0.0,0.0,0.0,0.0,0.0,0.0,0.0,0.0,0.0,0.0,0.0,0.0,0.0,0.0,0.0,0.0,0.0,0.0,0.0,0.0,0.0,0.0,0.0,0.0,0.0,0.0,0.0,-4.7314,-4.803,-4.8213,-4.9591,-5.0235,-4.9978,-4.5259,-4.2525,-4.1222,-3.9494,0.0,0.0,0.0,0.0,0.0,0.0,0.0,0.0,0.0,0.0,0.0,0.0,0.0,0.0,0.0,0.0,0.0,0.0,0.0,-2.0804,-2.2593,-2.4106,-2.5315,-2.618,-2.7008,-2.7129,-2.6309,0.0,0.0,0.0,-2.5293,-2.5308,-2.5308,-2.6154,-2.6967,-2.7736,-3.0871,-3.366,-3.6038,0.0,0.0,0.0,-3.2718,-3.1025,0.0,0.0,0.0,0.0,0.0,0.0,0.0,0.0,0.0,0.0,0.0,0.0,0.0,0.0,0.0,0.0,0.0,0.0,0.0,0.0,0.0,0.0,0.0,0.0,0.0,0.0,0.0,0.0,0.0,0.0,0.0,0.0,0.0,0.0,0.0,0.0,0.0,0.0,0.0,0.0,0.0,0.0,-2.9494,-2.9696,0.0,0.0,0.0,0.0,0.0,0.0,0.0,0.0,0.0,0.0,0.0,0.0,0.0,-4.5626,-4.7333,-4.8196,-4.9463,-5.1041,-5.1242,-5.172,-5.2396,-5.2637,-5.2747,-5.2692,-5.1919,0.0,-4.7021,-4.4709,0.0,0.0,0.0,0.0,0.0,0.0,0.0,0.0,0.0,0.0,0.0,0.0,0.0,0.0,0.0,0.0,0.0,0.0,0.0,0.0,0.0,-2.4777,-2.57,-2.6957,-2.7453,-2.7326,0.0,0.0,0.0,-2.5344,-2.5293,-2.5509,-2.595,-2.73,-2.9592,-3.284,-3.478,-3.7036,0.0,0.0,0.0,0.0,-3.843,-3.6308,0.0,0.0,0.0,0.0,0.0,0.0,0.0,0.0,0.0,0.0,0.0,0.0,0.0,0.0,0.0,0.0,0.0,0.0,0.0,0.0,0.0,0.0,0.0,0.0,0.0,0.0,0.0,0.0,0.0,0.0,0.0,0.0,0.0,0.0,0.0,0.0,0.0,0.0,0.0,0.0,0.0,-2.9751,-3.2394,-3.2839,-3.3642,-3.3825,0.0,0.0,0.0,0.0,0.0,0.0,0.0,0.0,0.0,-4.6875,-4.8489,-5.0105,-5.172,-5.2105,-5.2876,-5.4035,-5.4473,-5.4876,-5.5222,-5.5702,-5.5904,-5.5868,-5.5427,-5.4418,-5.2784,-4.9003,-4.6012,-4.3681,0.0,0.0,0.0,0.0,-4.1754,-4.2745,0.0,0.0,0.0,0.0,0.0,0.0,0.0,0.0,0.0,0.0,0.0,0.0,-2.4895,-2.5838,-2.682,-2.8017,0.0,0.0,0.0,0.0,0.0,-2.5929,-2.5915,-2.631,-2.7127,-2.9473,-3.2864,0.0,0.0,0.0,0.0,0.0,0.0,0.0,0.0,0.0,0.0,0.0,0.0,0.0,0.0,0.0,0.0,0.0,0.0,0.0,0.0,0.0,0.0,0.0,0.0,0.0,0.0,0.0,0.0,0.0,0.0,0.0,0.0,0.0,0.0,0.0,0.0,0.0,0.0,0.0,0.0,0.0,0.0,0.0,0.0,0.0,0.0,0.0,0.0,0.0,0.0,-3.2706,-3.5202,-3.6417,-3.7312,-3.7588,0.0,0.0,0.0,0.0,0.0,0.0,-4.4066,-4.7021,-4.9334,-5.0785,-5.238,-5.3794,-5.5005,-5.5225,-5.5611,-5.6216,-5.6822,-5.7116,-5.7134,-5.7721,-5.7997,-5.796,-5.7373,-5.6987,-5.6492,-5.2472,-4.9609,-4.7682,-4.6893,-4.6452,-4.625,-4.603,-4.6471,-4.7113,0.0,0.0,0.0,0.0,0.0,0.0,0.0,0.0,0.0,0.0,0.0,-2.3989,0.0,0.0,0.0,0.0,0.0,0.0,0.0,0.0,0.0,-2.7528,-2.7618,-2.8049,-2.8861,-3.2879,0.0,0.0,0.0,0.0,0.0,0.0,0.0,0.0,0.0,0.0,0.0,0.0,0.0,0.0,0.0,0.0,0.0,0.0,0.0,0.0,0.0,0.0,0.0,0.0,0.0,0.0,0.0,0.0,0.0,0.0,0.0,0.0,0.0,0.0,0.0,0.0,0.0,0.0,0.0,0.0,0.0,0.0,0.0,0.0,0.0,0.0,0.0,0.0,0.0,0.0,0.0,0.0,0.0,-4.0508,-4.1515,0.0,0.0,0.0,0.0,-4.3092,-4.5369,-4.748,-4.9151,-5.1555,-5.328,-5.4124,-5.5721,-5.6602,-5.6693,-5.7446,-5.7831,-5.7868,-5.7923,-5.7941,-5.7941,-5.7978,-5.7997,-5.7997,-5.796,-5.7519,-5.6675,-5.4895,-5.3628,-5.2766,-5.194,-5.1169,-5.0398,-4.9647,-4.9848,-5.0435,0.0,0.0,0.0,-1.525,-1.5192,-1.5769,-1.7449,-1.8174,-1.9402,-2.1856,-2.3576,0.0,0.0,0.0,0.0,0.0,0.0,0.0,0.0,0.0,0.0,-2.7629,-2.8211,-2.973,-3.2154,-3.5761,-3.8663,0.0,0.0,0.0,0.0,0.0,0.0,0.0,0.0,0.0,0.0,0.0,0.0,0.0,0.0,0.0,0.0,0.0,0.0,0.0,0.0,0.0,0.0,0.0,0.0,0.0,0.0,0.0,0.0,0.0,0.0,0.0,0.0,0.0,0.0,0.0,0.0,0.0,0.0,0.0,0.0,0.0,0.0,0.0,0.0,0.0,0.0,0.0,0.0,0.0,0.0,0.0,0.0,-4.3956,-4.4893,0.0,-4.5388,-4.5865,-4.6489,-4.7297,-4.9646,-5.1518,-5.2619,-5.4491,-5.5666,-5.5941,-5.7005,-5.7574,-5.7574,-5.785,-5.7997,-5.7997,-5.7997,-5.7997,-5.7997,-5.7997,-5.7997,-5.7997,-5.7997,-5.7831,-5.7538,-5.695,-5.5941,-5.4711,-5.4418,-5.4124,-5.3849,-5.3576,-5.365,-5.3757,-1.5192,-1.5192,0.0,-1.5192,-1.5192,-1.5769,-1.7449,-1.8428,-1.9847,-2.2288,-2.4189,0.0,0.0,0.0,0.0,0.0,0.0,0.0,0.0,0.0,-2.9512,-2.8806,-3.0536,-3.2802,-3.56,-3.8658,0.0,0.0,0.0,0.0,0.0,0.0,0.0,0.0,0.0,0.0,0.0,0.0,0.0,0.0,0.0,0.0,-3.2731,0.0,0.0,0.0,0.0,0.0,0.0,0.0,0.0,0.0,0.0,0.0,0.0,0.0,0.0,0.0,0.0,0.0,0.0,0.0,0.0,0.0,0.0,0.0,0.0,0.0,0.0,0.0,0.0,0.0,0.0,0.0,0.0,0.0,0.0,0.0,-4.5424,-4.7333,-4.8508,-4.9149,-4.9149,-4.9903,-5.0582,-5.1114,-5.3188,-5.4656,-5.5188,-5.6492,-5.7207,-5.7207,-5.7997,-5.84,-5.84,-5.8676,-5.8676,-5.84,-5.84,-5.8253,-5.7997,-5.7997,-5.7997,-5.7997,-5.7997,-5.7997,-5.7997,-5.7997,-5.7354,-5.64,-5.64,-5.64,-5.6363,-5.6088,-5.5996,-5.5849,-1.5192,-1.5192,-1.5192,-1.5192,-1.5192,-1.5769,-1.7449,-1.8398,-1.9816,-2.2274,-2.4554,0.0,0.0,0.0,0.0,0.0,0.0,0.0,0.0,-3.2033,-3.1902,-3.1293,-3.4618,-3.7259,-3.8947,0.0,0.0,0.0,0.0,0.0,0.0,0.0,0.0,0.0,0.0,0.0,0.0,0.0,0.0,0.0,0.0,0.0,-3.5423,0.0,0.0,0.0,0.0,0.0,0.0,0.0,0.0,0.0,0.0,0.0,0.0,0.0,0.0,0.0,0.0,0.0,0.0,0.0,0.0,0.0,0.0,0.0,0.0,0.0,0.0,0.0,0.0,0.0,0.0,0.0,0.0,0.0,-4.2304,-4.5205,-4.814,-5.06,-5.2307,-5.328,-5.328,-5.4014,-5.4473,-5.4473,-5.5941,-5.684,-5.684,-5.7593,-5.8033,-5.8033,-5.8822,-5.9239,-5.9239,-6.0015,-6.0015,-5.9239,-5.9203,-5.8804,-5.8033,-5.7997,-5.7997,-5.7997,-5.7997,-5.7997,-5.7997,-5.7997,-5.7997,-5.7997,-5.7997,-5.7997,-5.7905,-5.7134,-5.6822,-5.6583,-1.5192,-1.5192,-1.5192,-1.5192,-1.5192,-1.5769,-1.7449,-1.8881,-2.0427,-2.2285,0.0,0.0,0.0,0.0,0.0,0.0,0.0,0.0,0.0,0.0,-3.2466,-3.4835,-3.7032,0.0,0.0,0.0,0.0,0.0,0.0,0.0,0.0,0.0,0.0,0.0,0.0,0.0,0.0,0.0,0.0,0.0,0.0,0.0,-3.8123,0.0,0.0,0.0,0.0,0.0,0.0,0.0,0.0,0.0,0.0,0.0,0.0,0.0,0.0,0.0,0.0,0.0,0.0,0.0,0.0,0.0,0.0,0.0,0.0,0.0,0.0,0.0,0.0,0.0,0.0,0.0,-4.2306,-4.4654,-4.4874,-4.8233,-5.1114,-5.2399,-5.3959,-5.4932,-5.4932,-5.5666,-5.6143,-5.6143,-5.7097,-5.7666,-5.7666,-5.8437,-5.8877,-5.8877,-5.9667,-6.007,-6.007,-6.0291,-6.0291,-6.007,-5.9478,-5.9074,-5.8859,-5.8272,-5.7997,-5.7997,-5.7997,-5.7997,-5.7997,-5.7997,-5.7997,-5.7997,-5.7997,-5.7997,-5.796,-5.7758,-5.7299,-5.6748,-1.5192,-1.5192,-1.5192,-1.5192,-1.55,-1.6195,-1.7507,-1.9347,-2.1061,-2.2325,0.0,0.0,0.0,0.0,0.0,0.0,0.0,0.0,-3.1971,-3.2449,-3.4139,0.0,0.0,0.0,0.0,0.0,0.0,0.0,0.0,0.0,0.0,0.0,0.0,0.0,0.0,0.0,0.0,0.0,0.0,0.0,0.0,0.0,-4.0796,-3.9912,-3.77,-3.5045,-3.5045,-3.3968,-3.2398,-3.1501,0.0,0.0,0.0,0.0,0.0,0.0,0.0,0.0,0.0,0.0,0.0,0.0,0.0,0.0,0.0,0.0,0.0,0.0,0.0,0.0,0.0,0.0,0.0,0.0,-4.5828,-4.8196,-4.8857,-5.1298,-5.3427,-5.4583,-5.5831,-5.6602,-5.6602,-5.7024,-5.7299,-5.7299,-5.774,-5.8143,-5.8492,-5.8969,-5.9349,-5.9703,-6.0493,-6.0896,-6.0896,-6.1245,-6.1245,-6.0896,-6.0438,-5.9869,-5.9166,-5.8731,-5.8327,-5.7997,-5.7997,-5.7997,-5.7997,-5.7997,-5.7997,0.0,0.0,0.0,0.0,0.0,-5.7703,-5.7262,-1.5192,-1.5192,-1.5192,-1.5192,-1.5926,-1.6776,-1.7584,-1.9679,-2.1485,-2.2388,0.0,0.0,0.0,0.0,0.0,0.0,0.0,0.0,0.0,0.0,0.0,0.0,0.0,0.0,0.0,0.0,0.0,0.0,0.0,0.0,0.0,0.0,0.0,0.0,0.0,0.0,0.0,0.0,0.0,0.0,0.0,0.0,-4.3143,-4.2374,-4.0566,-3.843,-3.843,-3.7353,-3.5801,-3.4952,0.0,0.0,0.0,0.0,0.0,0.0,0.0,0.0,0.0,0.0,0.0,0.0,0.0,0.0,0.0,0.0,0.0,0.0,0.0,0.0,0.0,0.0,0.0,0.0,-4.9058,-5.1665,-5.3369,-5.4216,-5.5207,-5.6638,-5.7519,-5.7997,-5.7997,-5.7997,-5.7997,-5.7997,-5.8088,-5.8455,-5.9148,0.0,0.0,0.0,0.0,-6.1741,-6.1741,-6.2456,-6.2456,-6.1722,-6.163,-6.086,-5.9459,-5.9276,-5.8822,-5.8125,-5.8033,-5.7997,-5.7997,-5.7997,-5.7997,-5.7997,-5.7997,-5.7997,-5.7997,-5.7997,-5.7997,-5.7905,-1.5192,-1.5192,-1.5192,-1.5192,-1.5926,-1.6776,-1.7584,-1.9203,-2.0866,-2.2383,-2.4147,0.0,0.0,0.0,0.0,0.0,0.0,0.0,0.0,0.0,0.0,0.0,0.0,0.0,0.0,0.0,0.0,0.0,0.0,0.0,0.0,0.0,0.0,0.0,0.0,0.0,0.0,0.0,0.0,0.0,0.0,0.0,-4.4047,-4.3874,-4.2662,-4.1058,-4.1058,-3.9988,-3.8519,-3.8231,-3.711,-3.5484,-3.3617,0.0,0.0,0.0,0.0,0.0,0.0,0.0,0.0,0.0,0.0,0.0,0.0,0.0,0.0,0.0,0.0,0.0,0.0,0.0,0.0,-4.9297,-5.1481,-5.3537,-5.5794,-5.6253,-5.6455,-5.6767,-5.7519,-5.7997,-5.7997,-5.7997,-5.7997,-5.7997,-5.8602,-5.9038,-5.9184,-6.0438,-6.1208,-6.1355,-6.2163,-6.2585,-6.2585,-6.2707,-6.2707,-6.2567,0.0,0.0,-6.108,-5.9771,-5.9111,-5.8927,-5.829,-5.7997,-5.7997,-5.7997,-5.7997,-5.7997,-5.7997,-5.7997,-5.7997,-5.7997,-5.7997,-5.7978,-1.5192,-1.5192,-1.5192,-1.5192,-1.6253,-1.7237,-1.7641,-1.9441,-2.1197,-2.243,-2.391,0.0,0.0,0.0,0.0,0.0,0.0,0.0,0.0,0.0,0.0,0.0,0.0,0.0,0.0,0.0,0.0,0.0,0.0,0.0,0.0,0.0,0.0,0.0,0.0,0.0,0.0,0.0,0.0,0.0,0.0,0.0,-4.496,-4.496,-4.4162,-4.3008,-4.2604,-4.1607,-4.0411,-3.9915,-3.8859,-3.7511,-3.6064,-3.4671,-3.3167,0.0,0.0,0.0,0.0,0.0,0.0,0.0,0.0,0.0,0.0,0.0,0.0,0.0,0.0,-4.1589,-4.3222,0.0,-4.915,-5.161,-5.3702,-5.5427,-5.6638,-5.7152,-5.7409,-5.7409,-5.7758,-5.7997,-5.7997,-5.7997,-5.8162,-5.8584,-5.8964,-5.9533,-6.0364,-6.1153,-6.1777,-6.2199,-6.2603,-6.278,-6.278,-6.278,-6.278,-6.278,-6.2401,-6.1998,-6.1557,-6.0768,-5.996,-5.9166,-5.8786,-5.8382,-5.7997,-5.7997,-5.7997,-5.7997,-5.7997,-5.7997,-5.7997,-5.7997,-5.7997,-5.7997,-1.5192,-1.5346,-1.5442,-1.5442,-1.6696,-1.7757,-1.793,-1.9779,-2.145,-2.2257,-2.3592,-2.4809,-2.5664,-2.6422,-2.7051,0.0,0.0,0.0,0.0,0.0,0.0,0.0,0.0,0.0,0.0,0.0,0.0,0.0,0.0,0.0,0.0,0.0,0.0,0.0,0.0,0.0,0.0,0.0,0.0,0.0,0.0,0.0,-4.5594,-4.5594,-4.5171,-4.4451,-4.3624,-4.2733,-4.1827,-4.0942,-4.002,-3.907,-3.8042,-3.6643,-3.4992,-3.3122,-3.2102,0.0,0.0,0.0,0.0,0.0,0.0,0.0,0.0,0.0,-4.0286,-4.0928,-4.3001,-4.5112,-4.6581,-4.9279,-5.1793,-5.3408,-5.5445,-5.6859,-5.7024,-5.7593,-5.7997,-5.7997,-5.7997,-5.7997,-5.7997,-5.7997,-5.8327,-5.9129,-5.9331,-6.007,-6.152,-6.1741,-6.2126,-6.2762,-6.278,-6.278,-6.278,-6.278,-6.278,-6.278,-6.278,-6.2475,-6.1832,-6.1667,-6.0805,-5.9404,-5.9093,-5.8602,-5.7997,-5.7997,-5.7997,-5.7997,-5.7997,-5.7997,-5.7997,-5.7997,-5.7997,-5.7997,-1.5192,-1.583,-1.6349,-1.6349,-1.7103,-1.7968,-1.8742,-1.97,-2.0613,-2.1421,-2.2369,-2.3255,-2.4074,-2.4864,-2.5989,-2.7542,0.0,0.0,0.0,0.0,0.0,0.0,0.0,0.0,0.0,0.0,0.0,0.0,0.0,0.0,0.0,0.0,0.0,0.0,0.0,0.0,0.0,0.0,0.0,0.0,0.0,0.0,-4.5594,-4.5594,-4.5537,-4.5344,-4.447,-4.3598,-4.271,-4.1852,-4.0882,-3.99,-3.8876,-3.7871,-3.6667,-3.4771,0.0,-3.3795,-3.2846,-3.4068,-3.6002,-3.7706,-3.9258,-4.0641,0.0,0.0,-4.5112,-4.5204,-4.7205,-4.9206,-5.0086,-5.172,-5.3463,-5.506,-5.6161,-5.706,-5.7776,-5.7941,-5.7997,-5.7997,-5.7997,-5.7997,-5.7997,-5.7997,-5.8327,-5.9129,-5.9869,-6.0658,-6.1539,-6.2291,-6.2713,-6.278,-6.278,-6.278,-6.278,-6.278,-6.278,-6.278,-6.278,-6.2743,-6.2658,-6.1924,-6.1117,-6.0199,-5.8749,-5.807,-5.7997,-5.7997,-5.7997,-5.7997,-5.7997,-5.7997,-5.7997,-5.7997,-5.7997,-5.7997,-1.5192,-1.5907,-1.666,-1.7122,-1.7907,-1.8581,-1.8934,-1.9685,-2.0491,-2.1357,-2.2182,-2.3011,-2.3873,-2.4703,-2.5891,-2.761,-2.9212,0.0,0.0,0.0,0.0,0.0,0.0,0.0,0.0,0.0,0.0,0.0,0.0,0.0,0.0,0.0,0.0,0.0,0.0,0.0,0.0,0.0,0.0,0.0,0.0,0.0,-4.5537,-4.5037,-4.4547,-4.4028,-4.3162,-4.2255,0.0,0.0,-3.9151,-3.8652,-3.8203,-3.7422,-3.6563,-3.6136,-3.5631,0.0,-3.5651,-3.7409,-3.9409,0.0,-4.241,-4.4267,-4.5516,-4.6948,-4.8177,-4.8655,-4.9939,-5.1096,-5.1444,-5.3188,-5.4821,0.0,-5.6657,-5.7611,-5.7941,-5.7997,-5.7997,-5.7997,-5.7997,-5.7997,-5.7997,-5.7997,-5.8529,-5.9813,-6.0217,-6.097,-6.2236,-6.2622,-6.278,-6.278,-6.278,-6.278,-6.278,-6.278,-6.278,-6.278,-6.278,-6.278,-6.278,-6.2456,-6.1612,-6.0309,-5.8694,-5.7997,-5.7997,-5.7997,-5.7997,-5.7997,-5.7997,-5.7997,-5.7997,-5.7997,-5.7997,-5.7997,-1.55,-1.6253,-1.7083,-1.7911,-1.8769,-1.9365,-1.9354,-1.9842,-2.0522,-2.1383,-2.2215,-2.3132,-2.4236,-2.4913,-2.5887,-2.7349,-2.8461,-3.0707,0.0,0.0,0.0,0.0,0.0,0.0,0.0,0.0,0.0,0.0,0.0,0.0,0.0,0.0,0.0,0.0,0.0,0.0,0.0,0.0,0.0,0.0,0.0,0.0,-4.5152,-4.4297,-4.3316,-4.2277,-4.1412,-4.0518,0.0,0.0,-3.7122,-3.7048,-3.725,-3.6643,-3.6065,-3.6946,-3.7167,-3.743,-3.8974,0.0,0.0,-4.3699,-4.5443,-4.7278,-4.8673,-4.9646,-5.0437,-5.1004,-5.1591,-5.2068,-5.2289,-5.3757,-5.5078,-5.5519,-5.6748,-5.7758,-5.796,-5.7997,-5.7997,-5.7997,-5.7997,-5.7997,-5.7997,-5.7997,-5.8584,-5.996,-6.0272,-6.1006,-6.2401,-6.2695,-6.278,-6.278,-6.278,-6.278,-6.278,-6.278,-6.278,-6.278,-6.278,-6.278,-6.2762,-6.2321,-6.1502,-6.0309,-5.8694,-5.7997,-5.7997,-5.7997,-5.7997,-5.7997,-5.7997,-5.7997,-5.7997,-5.7997,-5.7997,-5.7997,-1.6292,-1.7103,-1.793,-1.8819,-1.9677,-2.025,-2.025,-2.0288,-2.0596,-2.1385,-2.2254,-2.3428,-2.5077,-2.5284,-2.5654,-2.6558,-2.814,-3.0198,-3.2814,-3.6122,0.0,0.0,0.0,0.0,0.0,0.0,0.0,0.0,0.0,0.0,0.0,0.0,0.0,0.0,0.0,0.0,0.0,0.0,0.0,0.0,0.0,0.0,-4.4239,-4.3431,-4.2066,-4.0477,-3.9669,0.0,0.0,0.0,-3.5377,-3.5414,-3.6263,-3.59,0.0,-3.7015,-3.8862,0.0,0.0,0.0,-4.6304,-4.7756,-4.8802,-4.9702,-5.0545,-5.1353,-5.1922,-5.1958,-5.1977,-5.2234,-5.3023,-5.3203,-5.3794,-5.5335,-5.6308,-5.7116,-5.7886,-5.7997,-5.7997,-5.7997,-5.7997,-5.7997,0.0,-5.7997,-5.8345,-5.9166,-5.996,-6.0768,-6.1575,-6.2383,-6.278,-6.278,-6.278,-6.278,-6.278,-6.278,-6.278,-6.278,-6.278,-6.278,-6.2743,-6.119,-6.0456,-6.0309,-5.8694,-5.7997,-5.7997,-5.7997,-5.7997,-5.7997,-5.7997,-5.7997,-5.7997,-5.7997,-5.7997,-5.7997,-1.633,-1.7141,-1.7968,-1.8857,-1.9719,-2.0308,-2.0308,-2.0308,-2.0596,-2.1389,-2.2759,0.0,0.0,0.0,0.0,0.0,-2.7121,-2.8775,-3.191,-3.368,0.0,0.0,0.0,0.0,0.0,0.0,0.0,0.0,0.0,0.0,0.0,0.0,0.0,0.0,0.0,0.0,0.0,0.0,0.0,0.0,0.0,0.0,-4.2547,-4.17,-3.995,-3.7796,0.0,0.0,0.0,0.0,0.0,0.0,-3.4749,0.0,0.0,-3.8972,-4.1215,-4.3248,-4.4944,0.0,-4.7923,-4.8858,-5.0141,-5.1242,-5.1518,-5.1811,-5.1995,-5.1995,-5.1573,-5.1298,-5.1573,-5.2491,-5.339,-5.3922,-5.5592,-5.6895,-5.7171,-5.7666,-5.7997,-5.7997,-5.7997,0.0,-5.7997,0.0,0.0,-5.9129,-5.996,-6.075,-6.1557,-6.2365,-6.278,-6.278,-6.278,-6.278,-6.278,-6.278,-6.278,-6.278,-6.278,-6.278,-6.2743,-6.1135,-6.0401,-6.0309,-5.8694,-5.7997,-5.7997,-5.7997,-5.7997,-5.7997,-5.7997,-5.7997,-5.7997,-5.7997,-5.7997,-5.7997,-1.6756,-1.7603,-1.843,-1.9315,-1.9927,0.0,0.0,0.0,0.0,0.0,0.0,0.0,0.0,0.0,0.0,0.0,0.0,-2.7659,-3.0179,0.0,0.0,0.0,0.0,0.0,0.0,0.0,0.0,0.0,0.0,0.0,0.0,0.0,0.0,0.0,0.0,0.0,0.0,0.0,0.0,0.0,0.0,0.0,-4.1162,-3.97,-3.795,0.0,0.0,0.0,0.0,0.0,0.0,0.0,0.0,0.0,0.0,-4.0885,-4.3283,-4.536,-4.6699,-4.844,-4.9931,-5.0291,-5.1408,-5.2344,-5.2068,-5.1995,-5.183,-5.1224,-5.0472,-4.9921,-4.9921,-5.0765,-5.1756,-5.2637,-5.4564,-5.6143,-5.673,-5.7483,-5.7997,-5.7997,-5.7997,-5.7997,0.0,0.0,0.0,-5.8749,-5.9795,-6.0639,-6.1135,-6.2218,-6.278,-6.278,-6.278,-6.278,-6.278,-6.278,-6.278,-6.278,-6.278,-6.278,-6.2743,-6.1135,-6.0401,-6.0309,-5.8694,-5.7997,-5.7997,-5.7997,-5.7997,-5.7997,-5.7997,-5.7997,-5.7997,-5.7997,-5.7997,-5.7997,-1.7603,-1.8434,-1.9277,0.0,0.0,0.0,0.0,0.0,0.0,0.0,0.0,0.0,0.0,0.0,0.0,0.0,0.0,0.0,0.0,0.0,0.0,0.0,0.0,0.0,0.0,-3.9419,0.0,0.0,0.0,0.0,0.0,0.0,0.0,0.0,0.0,0.0,0.0,0.0,0.0,0.0,0.0,0.0,-3.9977,-3.7507,0.0,0.0,0.0,0.0,0.0,0.0,0.0,0.0,0.0,0.0,0.0,-4.2808,-4.5113,-4.7258,-4.8529,-5.0581,-5.2333,-5.2167,-5.2637,-5.2949,-5.216,-5.1885,-5.1353,-4.9701,-4.871,-4.8122,-4.8122,0.0,-4.904,-5.1481,-5.3298,-5.495,-5.6528,-5.7464,-5.7997,0.0,0.0,0.0,0.0,0.0,0.0,-5.8125,0.0,-6.0419,-6.0456,-6.1961,-6.278,-6.278,-6.278,-6.278,-6.278,-6.278,-6.278,-6.278,-6.278,-6.278,-6.2743,-6.1135,-6.0401,-6.0309,-5.8694,-5.7997,-5.7997,-5.7997,-5.7997,-5.7997,-5.7997,-5.7997,-5.7997,-5.7997,-5.7997,-5.7997,0.0,0.0,0.0,0.0,0.0,0.0,0.0,0.0,0.0,0.0,0.0,0.0,0.0,0.0,0.0,0.0,0.0,0.0,0.0,0.0,0.0,0.0,0.0,0.0,0.0,0.0,0.0,0.0,0.0,0.0,0.0,0.0,0.0,0.0,0.0,0.0,0.0,0.0,0.0,0.0,0.0,0.0,-3.6642,0.0,0.0,0.0,0.0,0.0,0.0,0.0,0.0,0.0,0.0,0.0,-4.3869,0.0,0.0,-4.9848,-5.1843,-5.286,-5.343,-5.3836,-5.3148,-5.23,-5.2052,-5.0563,-4.8948,-4.792,-4.6599,-4.5626,-4.5626,-4.6599,0.0,-4.9922,-5.2564,0.0,-5.5757,-5.7097,0.0,-5.7997,0.0,-5.8896,-5.8896,-5.9446,0.0,0.0,-6.0181,-6.0658,-6.1263,-6.2254,-6.278,-6.278,-6.278,-6.278,-6.278,-6.278,-6.278,-6.278,-6.278,-6.278,-6.2743,-6.1135,-6.0401,-6.0309,-5.8694,-5.7997,-5.7997,-5.7997,-5.7997,-5.7997,-5.7997,-5.7997,-5.7997,-5.7997,-5.7997,-5.7997,0.0,0.0,0.0,0.0,0.0,0.0,0.0,0.0,0.0,0.0,0.0,0.0,0.0,0.0,0.0,0.0,0.0,0.0,0.0,0.0,0.0,0.0,0.0,0.0,0.0,0.0,0.0,0.0,0.0,0.0,0.0,0.0,0.0,0.0,0.0,0.0,0.0,0.0,0.0,0.0,0.0,0.0,0.0,0.0,0.0,0.0,0.0,0.0,0.0,0.0,0.0,-4.0635,-4.371,-4.518,-4.619,-4.8521,0.0,-5.1783,-5.3329,-5.4253,-5.4729,-5.4658,-5.3676,-5.2421,-5.1293,-4.9395,-4.7371,-4.5423,-4.4045,0.0,-4.2653,-4.392,0.0,0.0,0.0,0.0,-5.5372,-5.6987,-5.8125,0.0,-5.8927,0.0,-5.9703,-6.0144,-6.0548,0.0,-6.0933,-6.1117,-6.1575,-6.2365,-6.278,-6.278,-6.278,-6.278,-6.278,-6.278,-6.278,-6.278,-6.278,-6.2622,-6.2236,-6.097,-6.0217,-5.9813,0.0,-5.7997,-5.7997,-5.7997,-5.7997,-5.7997,-5.7997,-5.7997,-5.7997,-5.7997,-5.7997,-5.7997,0.0,0.0,0.0,0.0,0.0,0.0,0.0,0.0,0.0,-2.4343,0.0,0.0,0.0,0.0,0.0,0.0,0.0,0.0,0.0,0.0,0.0,0.0,0.0,0.0,0.0,0.0,0.0,0.0,0.0,0.0,0.0,0.0,0.0,0.0,0.0,0.0,0.0,0.0,0.0,0.0,0.0,0.0,0.0,0.0,0.0,0.0,0.0,0.0,0.0,0.0,-4.1262,-4.2667,-4.6487,-4.7706,-4.8164,-5.0409,-5.2111,-5.3418,-5.4019,-5.515,-5.5962,-5.4966,-5.3892,-5.243,-5.0046,-4.807,-4.5875,-4.273,0.0,-4.0491,-3.9714,-4.0983,-4.3167,-4.6269,0.0,-5.2674,-5.5119,-5.6822,-5.818,-5.9093,-5.9276,-5.9661,-6.0493,-6.0658,-6.1006,-6.1704,-6.1759,-6.1759,-6.1759,-6.242,-6.278,-6.278,-6.278,-6.278,-6.278,-6.278,-6.278,-6.278,-6.2695,-6.2291,-6.1557,-6.0658,-5.9869,-5.9148,-5.8345,-5.7997,-5.7997,-5.7997,-5.7997,-5.7997,-5.7997,-5.7997,-5.7997,-5.7997,-5.7997,-5.7997,0.0,0.0,0.0,0.0,0.0,0.0,0.0,-2.4025,-2.5353,-2.6214,-2.5824,-2.5468,0.0,0.0,0.0,0.0,0.0,0.0,0.0,0.0,0.0,0.0,0.0,0.0,0.0,0.0,0.0,0.0,0.0,0.0,0.0,0.0,0.0,0.0,0.0,0.0,0.0,0.0,0.0,0.0,0.0,0.0,0.0,0.0,0.0,0.0,0.0,0.0,0.0,0.0,-4.2889,-4.5116,-4.7812,-4.948,-5.0738,-5.2443,-5.4013,-5.5363,-5.6031,-5.6388,-5.6332,-5.5226,-5.2791,-5.0193,-4.8254,-4.5504,0.0,0.0,-3.9252,-3.8169,-3.7948,-3.9772,-4.2141,-4.4691,0.0,0.0,0.0,0.0,-5.7556,0.0,0.0,0.0,0.0,0.0,0.0,0.0,0.0,-6.2603,-6.2603,-6.2707,-6.278,-6.278,-6.278,-6.278,-6.278,-6.278,-6.278,-6.278,-6.2126,-6.1741,-6.1539,-6.0089,-5.9313,-5.9148,-5.8345,0.0,-5.7997,-5.7997,-5.7997,-5.7997,-5.7997,-5.7997,-5.7997,-5.7997,-5.7997,-5.7997,0.0,0.0,0.0,0.0,0.0,0.0,0.0,-2.472,-2.6036,-2.7352,-2.7167,-2.6723,-2.6237,-2.6183,-2.5984,0.0,0.0,0.0,0.0,0.0,0.0,0.0,0.0,0.0,0.0,0.0,0.0,0.0,0.0,0.0,0.0,0.0,0.0,0.0,0.0,0.0,0.0,0.0,0.0,0.0,0.0,0.0,0.0,0.0,0.0,0.0,0.0,0.0,0.0,0.0,-4.1025,-4.4154,-4.8356,-5.0411,-5.157,-5.3149,-5.5015,-5.6479,-5.6295,-5.6847,-5.7021,-5.5062,-5.2768,-5.0196,-4.7105,0.0,0.0,0.0,-3.6347,-3.5291,-3.5565,0.0,0.0,0.0,0.0,0.0,0.0,0.0,0.0,0.0,0.0,0.0,0.0,0.0,0.0,0.0,0.0,-6.278,-6.278,-6.278,-6.278,-6.278,-6.278,-6.278,-6.278,-6.278,-6.2603,-6.2181,-6.1777,-6.1153,-6.0327,-5.9533,-5.8964,-5.8547,-5.8162,0.0,-5.7997,-5.7997,-5.7997,-5.7997,-5.7997,-5.7997,-5.7997,-5.7997,-5.7997,-5.7997,0.0,0.0,0.0,0.0,0.0,0.0,0.0,-2.5387,-2.6721,-2.8272,-2.8645,-2.8409,-2.7473,-2.7046,-2.649,0.0,0.0,0.0,0.0,0.0,0.0,0.0,0.0,0.0,0.0,0.0,0.0,0.0,0.0,0.0,0.0,0.0,0.0,0.0,0.0,0.0,0.0,0.0,0.0,0.0,0.0,0.0,0.0,0.0,0.0,0.0,0.0,0.0,0.0,0.0,-3.8458,-4.1579,-4.7106,-4.9794,-5.128,-5.3066,-5.518,-5.674,-5.6081,-5.6835,-5.7188,-5.4653,-5.2688,-5.0236,-4.599,-4.2464,0.0,0.0,-3.3936,-3.2961,-3.3591,0.0,0.0,0.0,0.0,0.0,0.0,0.0,0.0,0.0,0.0,0.0,0.0,0.0,0.0,0.0,0.0,0.0,-6.278,-6.278,-6.278,-6.278,-6.278,-6.2707,-6.2548,-6.2548,-6.2144,-6.1337,-6.1172,-6.0419,-5.9184,-5.9019,-5.8602,-5.7997,-5.7997,0.0,0.0,-5.7997,-5.7997,-5.7997,-5.7997,-5.7997,-5.7997,-5.7997,-5.7997,-5.7997,0.0,0.0,0.0,0.0,0.0,0.0,0.0,-2.6463,-2.8379,-2.9259,-3.0078,-3.0232,-2.9351,-2.7839,-2.6565,0.0,0.0,0.0,0.0,0.0,0.0,0.0,0.0,0.0,0.0,0.0,0.0,0.0,0.0,0.0,0.0,0.0,0.0,0.0,0.0,0.0,0.0,0.0,0.0,0.0,0.0,0.0,0.0,0.0,0.0,0.0,0.0,0.0,0.0,0.0,0.0,-3.7935,-4.2376,-4.635,-4.9863,-5.2276,0.0,0.0,-5.614,-5.6368,-5.5991,-5.3984,-5.1677,-4.8762,-4.4397,0.0,0.0,-3.5128,-3.3198,-3.2225,-3.2948,-3.4905,-3.6979,0.0,0.0,0.0,0.0,0.0,0.0,0.0,0.0,0.0,0.0,0.0,0.0,0.0,0.0,0.0,-6.278,-6.278,-6.278,-6.278,-6.278,-6.2456,-6.1722,-6.1704,-6.13,-6.0511,-5.9777,-5.9331,-5.9166,-5.8437,-5.807,-5.7997,-5.7997,0.0,0.0,-5.7997,-5.7997,-5.7997,-5.7997,-5.7997,-5.7997,-5.7997,-5.7997,-5.7997,0.0,0.0,0.0,0.0,0.0,0.0,-2.427,-2.6616,-2.8609,-2.945,-3.0329,-3.0329,-2.8923,-2.816,-2.7396,-2.6569,0.0,0.0,0.0,0.0,0.0,0.0,0.0,0.0,0.0,0.0,0.0,0.0,0.0,0.0,0.0,0.0,0.0,0.0,0.0,0.0,0.0,0.0,0.0,0.0,0.0,0.0,0.0,0.0,0.0,0.0,0.0,0.0,0.0,0.0,0.0,0.0,-3.8392,-4.1091,0.0,0.0,-5.2283,-5.4165,-5.4849,-5.5039,-5.4701,-5.3271,-5.0673,-4.7428,-4.3599,0.0,-3.6302,-3.3711,-3.225,-3.1608,-3.2275,-3.3899,-3.5803,0.0,-4.0636,-4.3587,0.0,0.0,0.0,0.0,0.0,0.0,0.0,0.0,0.0,0.0,0.0,0.0,-6.1392,-6.2273,-6.2585,-6.2089,-6.2089,-6.1686,-6.0896,-6.0878,-6.0474,-5.9661,-5.9349,-5.8969,-5.8474,-5.8143,-5.7997,-5.7997,-5.7997,0.0,0.0,-5.7997,-5.7997,-5.7997,-5.7997,-5.7997,-5.7997,-5.7997,-5.7997,-5.7997,0.0,0.0,0.0,0.0,0.0,-2.3392,-2.4277,-2.6406,-2.8222,-2.9101,-2.9746,-2.9668,-2.8437,-2.8066,-2.7675,-2.7047,-2.6208,0.0,0.0,0.0,0.0,0.0,0.0,0.0,0.0,0.0,0.0,0.0,0.0,0.0,0.0,0.0,0.0,0.0,0.0,0.0,0.0,0.0,0.0,0.0,0.0,0.0,0.0,0.0,0.0,0.0,0.0,0.0,0.0,0.0,0.0,0.0,0.0,0.0,0.0,0.0,-4.9461,-5.1476,-5.2491,-5.2935,-5.2881,-5.1833,-4.9432,-4.6405,0.0,-3.9096,-3.5523,-3.2952,-3.175,-3.1369,-3.1995,-3.335,-3.5026,0.0,-3.9379,-4.1887,-4.4817,0.0,0.0,0.0,0.0,0.0,0.0,0.0,0.0,0.0,0.0,0.0,-6.0438,-6.1484,-6.1832,-6.1263,-6.1245,-6.086,-6.0052,-6.0052,-5.9648,-5.8859,-5.8859,-5.8547,-5.7997,-5.7997,-5.7997,-5.7997,-5.7997,0.0,0.0,-5.7997,-5.7997,-5.7997,-5.7997,-5.7997,-5.7997,-5.7997,-5.7997,-5.7997,0.0,0.0,0.0,0.0,0.0,0.0,-2.4277,-2.5898,-2.7324,-2.8203,-2.832,-2.832,-2.8301,-2.7539,-2.7012,-2.6992,-2.6191,0.0,0.0,0.0,0.0,0.0,0.0,0.0,0.0,0.0,0.0,0.0,0.0,0.0,0.0,0.0,0.0,0.0,0.0,0.0,0.0,0.0,0.0,0.0,0.0,0.0,-3.5385,0.0,0.0,0.0,0.0,0.0,0.0,0.0,0.0,0.0,0.0,0.0,0.0,0.0,-4.5586,-4.7318,-4.8913,-4.9978,-5.0399,-4.939,-4.7856,-4.5703,0.0,-3.8859,-3.5698,-3.3211,-3.1939,-3.1521,-3.2265,-3.355,-3.5019,-3.6565,-3.8674,-4.0917,-4.3286,0.0,0.0,0.0,0.0,0.0,0.0,0.0,0.0,0.0,0.0,0.0,-6.0401,-6.0419,-6.0419,-6.0419,-6.0419,-6.0034,-5.9221,-5.9203,-5.8822,-5.8015,-5.8015,-5.7997,-5.7997,-5.7997,-5.7997,-5.7997,0.0,0.0,0.0,-5.7997,-5.7997,-5.7997,-5.7997,-5.7997,-5.7997,-5.7997,-5.7997,-5.7997,0.0,0.0,0.0,0.0,0.0,0.0,0.0,-2.498,-2.6426,-2.7305,-2.793,-2.8066,-2.748,-2.7168,-2.6758,-2.6152,-2.5859,0.0,0.0,0.0,0.0,0.0,0.0,0.0,0.0,0.0,0.0,0.0,0.0,0.0,0.0,0.0,0.0,0.0,0.0,0.0,0.0,0.0,0.0,0.0,0.0,-3.2737,-3.3699,0.0,0.0,0.0,0.0,0.0,0.0,0.0,0.0,0.0,0.0,0.0,0.0,-3.6584,-4.0681,-4.4654,-4.6318,-4.6972,-4.7242,-4.7472,-4.5362,-4.2802,-4.1138,-3.768,-3.4438,-3.3056,-3.2536,-3.237,-3.2512,-3.3752,-3.5218,-3.6626,-3.8311,0.0,0.0,0.0,0.0,0.0,0.0,0.0,0.0,0.0,0.0,0.0,0.0,0.0,-5.8786,-5.8749,-5.9006,-5.9551,-5.957,-5.9184,-5.84,-5.8382,-5.8253,-5.7997,-5.7997,-5.7997,-5.7997,-5.7997,-5.7997,0.0,0.0,0.0,0.0,-5.7997,-5.7997,-5.7997,-5.7997,-5.7997,-5.7997,-5.7997,-5.7997,-5.7997,0.0,0.0,0.0,0.0,0.0,0.0,0.0,-2.4102,-2.5391,-2.5957,-2.6777,-2.7109,-2.6562,-2.6504,-2.6289,-2.5742,-2.5703,0.0,0.0,0.0,0.0,0.0,0.0,0.0,0.0,0.0,0.0,-3.3886,-3.5638,0.0,0.0,0.0,0.0,0.0,0.0,0.0,0.0,0.0,0.0,0.0,-3.1711,-3.2191,-3.2872,0.0,0.0,0.0,0.0,0.0,0.0,0.0,0.0,0.0,0.0,0.0,0.0,0.0,-3.6334,-4.0181,0.0,-4.319,-4.3797,-4.4301,-4.2582,-4.0479,-3.9276,-3.648,-3.3806,-3.2634,-3.264,-3.2797,-3.2703,-3.4205,-3.5912,-3.7288,-3.8975,0.0,0.0,0.0,0.0,0.0,0.0,0.0,0.0,0.0,0.0,0.0,0.0,0.0,-5.8033,-5.7997,-5.8235,-5.8731,-5.8767,-5.851,-5.7997,-5.7997,-5.7997,-5.7997,-5.7997,-5.7997,-5.7997,-5.7997,-5.7997,0.0,0.0,0.0,0.0,-5.7997,-5.7997,-5.7997,-5.7997,-5.7997,-5.7997,-5.7997,-5.7997,-5.7997,0.0,0.0,0.0,0.0,0.0,0.0,0.0,-2.3262,-2.4336,-2.4394,-2.5156,-2.5703,-2.5703,-2.5703,-2.5703,-2.5703,0.0,0.0,0.0,0.0,0.0,0.0,0.0,0.0,0.0,-3.1641,-3.3828,-3.4707,-3.6503,-3.7811,-3.8553,-3.6942,0.0,0.0,0.0,0.0,0.0,0.0,0.0,0.0,-3.1656,-3.2062,0.0,0.0,0.0,0.0,0.0,0.0,0.0,0.0,0.0,0.0,0.0,0.0,0.0,0.0,0.0,0.0,0.0,-3.8911,-4.0246,-4.0304,-3.9708,-3.8681,-3.7,-3.5315,0.0,-3.2025,-3.2346,-3.289,-3.2811,-3.4767,-3.6872,-3.8294,0.0,0.0,0.0,0.0,0.0,0.0,0.0,0.0,0.0,0.0,0.0,0.0,0.0,0.0,-5.7997,-5.7997,-5.7997,-5.7997,-5.7997,-5.7997,-5.7997,-5.7997,-5.7997,-5.7997,-5.7997,-5.7997,-5.7997,-5.7997,-5.7997,0.0,0.0,0.0,0.0,-5.7997,-5.7997,-5.7997,-5.7997,-5.7997,-5.7997,-5.7997,-5.7997,-5.7997,0.0,0.0,0.0,0.0,0.0,0.0,0.0,0.0,0.0,0.0,-2.5156,-2.5703,-2.5703,-2.5703,-2.5703,0.0,0.0,0.0,0.0,0.0,0.0,0.0,0.0,0.0,0.0,0.0,-3.3828,-3.4707,-3.7108,-3.8397,-3.8593,-3.8178,0.0,0.0,0.0,0.0,0.0,0.0,0.0,0.0,-3.0853,-3.0916,0.0,0.0,0.0,0.0,-3.0462,-3.0404,0.0,0.0,0.0,0.0,0.0,0.0,0.0,0.0,-3.1468,-3.2545,-3.3776,0.0,-3.7757,-3.8411,-3.795,-3.7046,0.0,-3.4449,-3.291,-3.191,0.0,-3.2904,-3.2871,-3.4845,-3.6951,-3.8409,0.0,0.0,0.0,0.0,0.0,0.0,0.0,0.0,0.0,0.0,0.0,0.0,0.0,-5.7997,-5.7997,-5.7997,-5.7997,-5.7997,-5.7997,-5.7997,-5.7997,-5.7997,-5.7997,-5.7997,-5.7997,-5.7997,-5.7997,-5.7997,-5.7997,0.0,0.0,0.0,-5.7997,-5.7997,-5.7997,-5.7997,-5.7997,-5.7997,-5.7997,-5.7997,-5.7997,-5.7997,0.0,0.0,0.0,0.0,0.0,0.0,0.0,0.0,0.0,0.0,0.0,-2.5703,-2.5703,-2.5703,0.0,0.0,0.0,0.0,0.0,0.0,0.0,0.0,0.0,0.0,0.0,0.0,0.0,0.0,0.0,-3.9003,0.0,0.0,0.0,0.0,0.0,0.0,0.0,0.0,0.0,-3.0635,-3.0611,0.0,0.0,0.0,0.0,0.0,-2.939,-2.9486,0.0,-2.9794,-3.0077,-3.0404,0.0,0.0,0.0,0.0,-3.0731,-3.1365,-3.2564,-3.4199,-3.5757,-3.6642,-3.65,-3.5827,-3.4596,0.0,0.0,0.0,0.0,-3.3135,-3.3942,-3.6101,0.0,0.0,0.0,0.0,0.0,0.0,0.0,0.0,0.0,0.0,0.0,0.0,0.0,0.0,0.0,-5.7997,-5.7997,-5.7997,-5.7997,-5.7997,-5.7997,-5.7997,-5.7997,-5.7997,-5.7997,-5.7997,-5.7997,-5.7997,-5.7997,-5.7997,-5.7997,0.0,0.0,0.0,-5.7997,-5.7997,-5.7997,-5.7997,-5.7997,-5.7997,-5.7997,-5.7997,-5.7997,-5.7997,0.0,0.0,0.0,0.0,0.0,0.0,0.0,0.0,0.0,0.0,0.0,0.0,0.0,0.0,0.0,0.0,0.0,0.0,0.0,0.0,0.0,0.0,0.0,0.0,0.0,0.0,0.0,0.0,0.0,0.0,0.0,0.0,-3.9021,0.0,0.0,0.0,0.0,0.0,0.0,-3.0712,-3.0646,0.0,0.0,0.0,0.0,0.0,0.0,0.0,0.0,-2.9069,-2.9583,-3.0212,-3.0365,0.0,0.0,0.0,0.0,0.0,-3.2256,-3.343,-3.4436,-3.5423,-3.5788,-3.5423,-3.3699,0.0,0.0,0.0,0.0,0.0,0.0,0.0,0.0,0.0,0.0,0.0,0.0,0.0,0.0,0.0,0.0,0.0,0.0,0.0,0.0,0.0,0.0,-5.7997,-5.7997,-5.7997,-5.7997,-5.7997,-5.7997,-5.7997,-5.7997,-5.7997,-5.7997,-5.7997,-5.7997,-5.7997,-5.7997,-5.7997,-5.7997,-5.7997,0.0,0.0,-5.7997,-5.7997,-5.7997,-5.7997,-5.7997,-5.7997,-5.7997,-5.7997,-5.7997,-5.7978,0.0,0.0,0.0,0.0,0.0,0.0,0.0,0.0,0.0,0.0,0.0,0.0,0.0,0.0,0.0,0.0,0.0,0.0,0.0,0.0,0.0,0.0,0.0,0.0,0.0,0.0,0.0,0.0,0.0,0.0,-4.1152,-3.9551,-3.7148,-3.4177,0.0,0.0,0.0,0.0,0.0,-3.0786,-3.0779,0.0,0.0,0.0,0.0,0.0,0.0,0.0,0.0,-2.8876,-2.9184,-2.9429,-3.0173,0.0,0.0,0.0,0.0,0.0,-3.141,-3.3026,-3.4571,-3.6142,-3.7065,-3.718,-3.5481,0.0,0.0,0.0,0.0,0.0,0.0,0.0,0.0,0.0,0.0,0.0,0.0,0.0,0.0,0.0,0.0,0.0,0.0,0.0,0.0,0.0,0.0,-5.7997,-5.7997,-5.7997,-5.7997,-5.7997,-5.7997,-5.7997,-5.7997,-5.7997,-5.7997,-5.7997,-5.7997,-5.7997,-5.7997,-5.7997,-5.7997,-5.7997,0.0,-5.7997,-5.7997,-5.7997,-5.7997,-5.7997,-5.7997,-5.7997,-5.7997,-5.7997,-5.7997,-5.7905,0.0,0.0,0.0,0.0,0.0,0.0,0.0,0.0,0.0,0.0,0.0,0.0,0.0,0.0,0.0,0.0,0.0,0.0,0.0,0.0,0.0,0.0,0.0,0.0,0.0,0.0,0.0,0.0,0.0,-3.9492,-4.1152,-3.9414,-3.6992,-3.4081,0.0,0.0,0.0,0.0,-3.0828,-3.0796,0.0,0.0,0.0,0.0,0.0,0.0,0.0,0.0,0.0,0.0,-2.8055,-2.853,-2.8929,0.0,0.0,0.0,0.0,0.0,-3.066,-3.291,-3.5199,-3.6404,-3.7353,-3.768,-3.6423,0.0,0.0,0.0,0.0,0.0,0.0,0.0,0.0,0.0,0.0,0.0,0.0,0.0,0.0,0.0,0.0,0.0,0.0,0.0,0.0,0.0,0.0,0.0,-5.8106,-5.8042,-5.7997,-5.7997,-5.7997,-5.7997,-5.7997,-5.7997,-5.7997,-5.7997,-5.7997,-5.7997,-5.7997,-5.7997,-5.7997,-5.7997,0.0,-5.7997,-5.7997,-5.7997,-5.7997,-5.7997,-5.7997,-5.7997,-5.7941,-5.7519,-5.7079,-5.6583,0.0,0.0,0.0,0.0,0.0,0.0,0.0,0.0,0.0,0.0,0.0,0.0,0.0,0.0,0.0,0.0,0.0,0.0,0.0,0.0,0.0,0.0,0.0,0.0,0.0,0.0,-3.5098,-3.7305,-3.8164,-3.918,-4.0254,-3.871,-3.6698,0.0,0.0,0.0,0.0,-3.0896,-3.0875,-3.0812,0.0,0.0,0.0,0.0,0.0,0.0,0.0,0.0,0.0,0.0,0.0,0.0,0.0,0.0,0.0,-2.7601,-2.803,-2.8756,-2.9813,-3.2442,-3.5173,-3.6404,-3.7796,-3.8661,-3.7796,0.0,0.0,0.0,0.0,0.0,0.0,0.0,0.0,0.0,0.0,0.0,0.0,0.0,0.0,0.0,0.0,0.0,0.0,0.0,0.0,0.0,0.0,0.0,-5.8331,-5.8201,-5.8133,-5.8133,-5.8065,-5.8042,-5.8042,-5.802,-5.7997,-5.7997,-5.7997,-5.7997,-5.7997,-5.7997,-5.7997,-5.7997,-5.7997,-5.7886,-5.7721,-5.7721,-5.7611,-5.7428,-5.7428,-5.7428,-5.7354,-5.6748,-5.6014,-5.5225,0.0,0.0,0.0,0.0,0.0,0.0,0.0,0.0,0.0,0.0,0.0,0.0,0.0,0.0,0.0,0.0,0.0,0.0,0.0,0.0,0.0,0.0,0.0,0.0,0.0,-3.4121,-3.6309,-3.7305,-3.8164,-3.8242,-3.7559,-3.6621,-3.5215,-3.3457,0.0,0.0,0.0,0.0,-3.0898,-3.0818,-3.0015,0.0,0.0,0.0,0.0,0.0,0.0,0.0,0.0,0.0,0.0,0.0,0.0,0.0,-2.6697,-2.6697,-2.6736,-2.714,-2.8761,-3.1102,-3.368,-3.6096,-3.9135,0.0,-4.0439,-4.1527,0.0,0.0,0.0,0.0,0.0,0.0,0.0,0.0,0.0,0.0,0.0,0.0,0.0,0.0,0.0,0.0,0.0,0.0,0.0,0.0,0.0,0.0,-5.8656,-5.8551,-5.8468,-5.8468,-5.829,-5.8197,-5.8197,-5.8065,-5.7997,-5.7997,-5.7997,-5.7997,-5.7997,-5.7997,-5.7997,-5.7997,-5.7997,-5.7574,-5.6895,-5.6895,-5.6455,-5.578,-5.578,-5.578,-5.578,-5.5724,-5.517,-5.4473,0.0,0.0,0.0,0.0,0.0,0.0,0.0,0.0,0.0,0.0,0.0,0.0,0.0,0.0,0.0,0.0,0.0,0.0,0.0,0.0,0.0,0.0,0.0,-3.0019,-3.0879,-3.3711,-3.5879,-3.7305,-3.8164,-3.7871,-3.6484,-3.6152,0.0,0.0,0.0,0.0,0.0,0.0,-3.0586,-3.0058,-2.9725,-2.8746,0.0,0.0,0.0,0.0,0.0,0.0,0.0,0.0,-2.5914,-2.5909,-2.6232,-2.6121,-2.5957,-2.6497,-2.7022,-2.7776,-2.9457,-3.1774,-3.418,-3.6192,0.0,0.0,0.0,0.0,0.0,0.0,0.0,0.0,0.0,0.0,0.0,0.0,0.0,0.0,0.0,0.0,0.0,0.0,0.0,0.0,0.0,0.0,0.0,0.0,0.0,0.0,-5.7454,-5.7337,-5.7218,-5.7119,-5.7056,-5.7013,-5.6969,-5.6906,-5.6866,-5.6866,-5.714,-5.7308,-5.7357,-5.686,-5.6643,-5.6691,-5.6691,-5.6506,-5.623,-5.623,-5.6021,-5.5739,-5.5636,-5.528,-5.484,-5.484,-5.4344,-5.3665,0.0,0.0,0.0,0.0,0.0,0.0,0.0,0.0,0.0,0.0,0.0,0.0,0.0,0.0,0.0,0.0,0.0,0.0,0.0,0.0,0.0,0.0,0.0,-2.9609,-3.0469,-3.2734,-3.4746,-3.6484,-3.707,-3.6621,-3.5176,0.0,0.0,0.0,0.0,0.0,0.0,0.0,-3.0156,-2.9551,-2.9003,-2.8065,0.0,0.0,0.0,0.0,0.0,0.0,0.0,0.0,-2.5488,-2.5436,-2.5432,-2.541,-2.5566,-2.6437,-2.707,-2.7927,-2.9872,-3.2069,-3.4314,0.0,0.0,0.0,0.0,0.0,0.0,0.0,0.0,0.0,0.0,0.0,0.0,0.0,0.0,0.0,0.0,0.0,0.0,0.0,0.0,0.0,0.0,0.0,0.0,0.0,0.0,0.0,0.0,-5.6827,-5.6722,-5.663,-5.65,-5.6406,-5.6366,-5.6326,-5.6287,-5.6287,-5.6319,-5.6467,-5.6747,-5.615,-5.5913,-5.596,-5.5918,-5.575,-5.551,-5.551,-5.5318,-5.4991,-5.4883,-5.4509,-5.4014,-5.4014,-5.3683,-5.3185,0.0,0.0,0.0,0.0,0.0,0.0,0.0,0.0,0.0,0.0,0.0,0.0,0.0,0.0,0.0,0.0,0.0,0.0,0.0,0.0,0.0,0.0,0.0,-2.8691,-2.9551,-3.1269,-3.2988,-3.4687,-3.4687,-3.4238,-3.3359,-3.2578,0.0,0.0,0.0,0.0,0.0,0.0,0.0,0.0,-2.7695,-2.6992,-2.6894,0.0,0.0,0.0,0.0,0.0,0.0,0.0,-2.5567,-2.5495,-2.5496,-2.5464,-2.5588,-2.646,-2.6679,-2.7195,-2.9743,-3.1646,-3.3757,0.0,0.0,0.0,0.0,0.0,0.0,0.0,0.0,0.0,0.0,0.0,0.0,0.0,0.0,0.0,0.0,0.0,0.0,0.0,0.0,0.0,0.0,0.0,0.0,0.0,0.0,0.0,0.0,-5.7351,-5.7292,-5.7292,-5.6892,-5.6682,-5.6664,-5.6556,-5.65,-5.6481,-5.5679,-5.5603,-5.6187,-5.6125,-5.6084,-5.6064,-5.5942,-5.5417,-5.4679,-5.4679,-5.4137,-5.3297,-5.323,-5.3185,-5.3185,-5.3185,-5.3185,-5.3185,0.0,0.0,0.0,0.0,0.0,0.0,0.0,0.0,0.0,0.0,0.0,0.0,0.0,0.0,0.0,0.0,0.0,0.0,0.0,0.0,0.0,0.0,0.0,0.0,0.0,0.0,-3.0605,-3.2949,-3.3516,-3.3047,0.0,0.0,0.0,-3.1269,0.0,0.0,0.0,0.0,0.0,0.0,-2.7207,-2.6621,-2.6055,0.0,0.0,0.0,0.0,0.0,0.0,0.0,0.0,0.0,-2.557,-2.5945,-2.6568,-2.7419,-2.8474,-2.9892,-3.2458,-3.3929,0.0,0.0,0.0,0.0,0.0,0.0,0.0,0.0,0.0,0.0,0.0,0.0,0.0,0.0,0.0,0.0,0.0,0.0,0.0,0.0,0.0,0.0,0.0,0.0,0.0,0.0,0.0,0.0,0.0,-5.5941,-5.5873,-5.5831,-5.5712,-5.562,-5.558,-5.5534,-5.5522,-5.5503,-5.523,-5.5294,-5.5623,-5.4988,-5.469,-5.469,-5.4595,-5.4368,-5.4049,-5.3911,-5.3682,-5.342,-5.3251,-5.3185,-5.3185,-5.3185,-5.3185,-5.3185,0.0,0.0,0.0,0.0,0.0,0.0,0.0,0.0,0.0,0.0,0.0,-2.5703,0.0,0.0,0.0,0.0,0.0,0.0,0.0,0.0,0.0,0.0,0.0,0.0,0.0,-2.7519,-2.8555,0.0,0.0,0.0,0.0,0.0,0.0,-3.0879,0.0,-3.0098,0.0,0.0,0.0,0.0,-2.6621,-2.6172,-2.5703,0.0,0.0,0.0,0.0,0.0,0.0,0.0,0.0,0.0,-2.5593,-2.6165,-2.7019,-2.7841,-2.9264,-3.1086,-3.3625,0.0,0.0,0.0,0.0,0.0,0.0,0.0,0.0,0.0,0.0,0.0,0.0,0.0,0.0,0.0,0.0,0.0,0.0,0.0,0.0,0.0,0.0,0.0,0.0,0.0,0.0,0.0,0.0,0.0,0.0,-5.5456,-5.5408,-5.5351,-5.532,-5.5268,-5.5229,-5.5189,-5.5176,-5.5176,-5.5107,-5.5169,-5.5295,-5.461,-5.4284,-5.4251,-5.411,-5.4,-5.3907,-5.3718,-5.3639,-5.36,-5.3439,-5.3316,-5.3251,-5.3251,-5.3209,-5.3185,0.0,0.0,-2.0605,-2.0605,0.0,0.0,0.0,0.0,0.0,0.0,0.0,-2.5703,0.0,0.0,0.0,-2.5703,0.0,0.0,0.0,0.0,0.0,0.0,0.0,0.0,0.0,0.0,0.0,0.0,0.0,0.0,0.0,0.0,-3.0078,-3.0879,0.0,-2.9629,0.0,0.0,0.0,-2.6816,-2.6016,-2.5703,-2.5703,-2.5703,0.0,0.0,0.0,0.0,0.0,0.0,0.0,0.0,-2.5619,-2.6195,-2.7071,-2.7862,-2.9345,-3.1269,-3.3738,0.0,0.0,0.0,0.0,0.0,0.0,0.0,0.0,0.0,0.0,0.0,0.0,0.0,0.0,0.0,0.0,0.0,0.0,0.0,0.0,0.0,0.0,0.0,0.0,0.0,0.0,0.0,0.0,0.0,0.0,-5.541,-5.5377,-5.5377,-5.5262,-5.5202,-5.5202,-5.5141,-5.5103,-5.5103,-5.5039,-5.5013,-5.5,-5.4754,-5.4581,-5.4505,-5.4232,-5.4089,-5.3997,-5.3869,-5.374,-5.359,-5.3458,-5.3282,-5.312,-5.312,-5.3074,-5.3007,0.0,0.0,-2.0605,-2.0605,0.0,0.0,0.0,0.0,-2.3633,-2.4316,-2.5156,-2.5703,-2.5703,-2.5703,0.0,-2.5703,-2.5703,0.0,0.0,0.0,0.0,0.0,0.0,0.0,0.0,0.0,0.0,0.0,0.0,0.0,0.0,0.0,0.0,-3.0898,0.0,-2.9863,0.0,0.0,0.0,-2.5957,-2.5781,-2.5703,-2.5703,-2.5703,-2.5703,0.0,0.0,0.0,0.0,0.0,0.0,0.0,-2.5687,-2.6238,-2.7071,-2.794,-2.9803,-3.2152,0.0,0.0,0.0,0.0,0.0,0.0,0.0,0.0,0.0,0.0,0.0,0.0,0.0,0.0,0.0,0.0,0.0,0.0,0.0,0.0,0.0,0.0,0.0,0.0,0.0,0.0,0.0,0.0,0.0,0.0,-5.3741,-5.3731,-5.372,-5.372,-5.3699,-5.3659,-5.3659,-5.3667,-5.3637,0.0,-5.3582,-5.3548,-5.3575,-5.4498,-5.4803,-5.4565,-5.4453,-5.3996,-5.3311,-5.3242,-5.278,-5.2128,-5.1952,-5.1843,-5.1807,-5.1751,-5.1694,-5.1636,0.0,0.0,0.0,0.0,0.0,0.0,0.0,0.0,-2.3301,-2.3769,-2.4922,-2.5547,-2.5117,-2.5078,0.0,0.0,-2.4863,-2.5078,0.0,0.0,0.0,0.0,0.0,0.0,0.0,0.0,0.0,0.0,0.0,0.0,0.0,0.0,0.0,-3.0859,0.0,-2.9141,0.0,0.0,-2.6523,-2.5703,-2.5703,-2.5703,-2.5703,-2.5703,-2.5703,-2.5703,-2.5703,0.0,0.0,0.0,0.0,0.0,0.0,0.0,-2.7043,-2.75,-2.9384,-3.1782,0.0,0.0,0.0,0.0,0.0,0.0,0.0,0.0,0.0,0.0,0.0,0.0,0.0,0.0,0.0,0.0,0.0,0.0,0.0,0.0,0.0,0.0,0.0,0.0,0.0,0.0,0.0,0.0,0.0,-5.276,-5.3183,-5.3203,-5.3203,-5.3203,-5.3203,-5.3203,-5.3203,-5.3203,-5.3203,-5.3203,-5.314,-5.3078,-5.3064,-5.3684,-5.3854,-5.3679,-5.3592,-5.3267,-5.2825,-5.2779,-5.2454,-5.198,-5.1866,-5.172,-5.1587,-5.1554,-5.1448,-5.1342,0.0,0.0,0.0,0.0,0.0,0.0,0.0,0.0,0.0,-2.3184,-2.4648,-2.5371,-2.4492,-2.4394,-2.4062,0.0,0.0,0.0,-2.4199,0.0,0.0,0.0,0.0,0.0,0.0,0.0,0.0,0.0,0.0,0.0,0.0,0.0,0.0,-3.1269,0.0,0.0,0.0,0.0,-2.5977,-2.5703,-2.5703,-2.5703,-2.5703,-2.5703,-2.5703,-2.5703,-2.5703,-2.5703,-2.5703,-2.5703,0.0,0.0,0.0,0.0,-2.6806,-2.6969,-2.8544,-3.0684,0.0,0.0,0.0,0.0,0.0,0.0,0.0,0.0,0.0,0.0,0.0,0.0,0.0,0.0,0.0,0.0,0.0,0.0,0.0,0.0,0.0,0.0,0.0,0.0,0.0,0.0,0.0,0.0,0.0,-5.201,-5.2741,-5.2779,-5.2779,-5.2779,-5.2779,-5.2779,-5.2779,-5.2779,-5.2779,-5.2779,-5.2709,-5.2666,-5.2593,-5.2491,-5.2556,-5.2736,-5.2615,-5.2481,-5.2334,-5.2334,-5.2172,-5.1949,-5.1935,-5.1777,-5.1516,-5.15,-5.137,-5.1187,0.0,0.0,0.0,0.0,0.0,0.0,0.0,0.0,0.0,0.0,-2.4629,-2.5371,-2.4492,-2.4394,-2.4043,-2.3184,-2.3203,-2.3301,0.0,0.0,0.0,0.0,0.0,0.0,0.0,0.0,0.0,0.0,0.0,0.0,0.0,0.0,0.0,-3.3027,0.0,0.0,0.0,0.0,-2.707,-2.5703,-2.5703,-2.5703,-2.5703,-2.5703,-2.5703,-2.5703,-2.5703,-2.5703,-2.5703,-2.5703,-2.5703,0.0,0.0,0.0,0.0,-2.6786,-2.7723,0.0,0.0,0.0,0.0,0.0,0.0,0.0,0.0,0.0,0.0,0.0,0.0,0.0,0.0,0.0,0.0,0.0,0.0,0.0,0.0,0.0,0.0,0.0,0.0,0.0,0.0,0.0,0.0,0.0,-5.0856,-5.0923,-5.1039,-5.1039,-5.1039,-5.1039,-5.1039,-5.1039,-5.1039,-5.1039,-5.1039,-5.1039,-5.1029,-5.1019,-5.1009,-5.0999,-5.1664,-5.2865,-5.2853,-5.2396,-5.1641,-5.1641,-5.1209,-5.0567,-5.0487,-5.045,-5.0412,-5.0354,-5.0191,-5.0029,0.0,0.0,0.0,0.0,0.0,0.0,0.0,0.0,0.0,0.0,0.0,-2.4648,-2.3828,-2.373,-2.3184,-2.1816,-2.2148,0.0,0.0,0.0,0.0,0.0,0.0,0.0,0.0,0.0,0.0,0.0,0.0,0.0,0.0,-3.2187,-3.3164,0.0,0.0,0.0,0.0,0.0,-2.7129,-2.6426,-2.6426,-2.6719,-2.7207,-2.7695,-2.7891,-2.7812,-2.7324,-2.6836,-2.6348,-2.5859,-2.5703,-2.5703,-2.5703,0.0,0.0,0.0,0.0,0.0,0.0,0.0,0.0,0.0,0.0,0.0,0.0,0.0,0.0,0.0,0.0,0.0,0.0,0.0,0.0,0.0,0.0,0.0,0.0,0.0,0.0,0.0,0.0,0.0,0.0,0.0,0.0,0.0,-4.9971,-5.0183,-5.0673,-5.025,-4.9971,-4.9971,-4.949,-4.9471,-4.9971,-4.9971,-5.0231,-5.0712,-5.0712,-5.0712,-5.0712,-5.0712,-5.1047,-5.1666,-5.1666,-5.1425,-5.1058,-5.1058,-5.0826,-5.0468,-5.0446,-5.0371,-5.0302,-5.0278,-5.0188,-5.0076,0.0,0.0,0.0,0.0,0.0,0.0,0.0,0.0,0.0,0.0,0.0,-2.4082,-2.3262,0.0,0.0,0.0,-2.1191,0.0,0.0,0.0,0.0,0.0,0.0,0.0,0.0,0.0,0.0,0.0,0.0,0.0,-3.0625,-3.3184,-3.4258,0.0,-3.3437,0.0,0.0,0.0,0.0,-2.7344,-2.7578,-2.8184,-2.9062,-2.9922,-3.0254,-3.0156,-2.9277,-2.8398,-2.748,-2.6406,-2.6035,-2.5996,-2.5762,0.0,0.0,0.0,0.0,0.0,0.0,0.0,0.0,0.0,0.0,0.0,0.0,0.0,0.0,0.0,0.0,0.0,0.0,0.0,0.0,0.0,0.0,0.0,0.0,0.0,0.0,0.0,0.0,0.0,0.0,0.0,0.0,0.0,-4.9067,-4.9356,-4.999,-4.9413,-4.9067,-4.9067,-4.8432,-4.8413,-4.9067,-4.9067,-4.9394,-5.0029,-5.0029,-5.0029,-5.0029,-5.0029,-5.0029,-5.0048,-5.0519,-5.0712,-5.0712,-5.0712,-5.0663,-5.0623,-5.0623,-5.0553,-5.0478,-5.0478,-5.0416,-5.0359,0.0,0.0,0.0,0.0,0.0,0.0,0.0,0.0,0.0,0.0,0.0,-2.4062,-2.3203,-2.3105,-2.2422,-2.0742,-2.0644,0.0,0.0,0.0,0.0,0.0,0.0,0.0,0.0,0.0,0.0,0.0,0.0,0.0,-2.9726,-3.2285,-3.4336,-3.5859,-3.582,-3.4434,-3.207,0.0,0.0,-2.8301,-2.9121,-2.998,-3.0859,-3.1738,-3.2051,-3.1953,-3.1074,-3.0195,-2.9219,-2.75,-2.6934,-2.6797,-2.5957,-2.5137,-2.4473,0.0,0.0,0.0,0.0,0.0,0.0,0.0,0.0,0.0,0.0,0.0,0.0,0.0,0.0,0.0,0.0,0.0,0.0,0.0,0.0,0.0,0.0,0.0,0.0,0.0,0.0,0.0,0.0,0.0,0.0,0.0,-4.8163,-4.8202,-4.824,-4.8202,-4.8163,-4.8163,-4.8125,-4.8125,-4.8163,-4.8163,-4.8202,-4.824,-4.824,-4.824,-4.824,-4.824,-4.824,-4.8336,-4.9971,-5.0712,-5.0712,-5.0712,-5.0712,-5.0683,-5.0683,-5.0683,-5.0673,-5.0673,-5.0643,-5.0582,0.0,0.0,0.0,0.0,0.0,0.0,0.0,0.0,0.0,0.0,0.0,0.0,0.0,-2.3477,-2.2695,-2.1543,-2.0918,0.0,0.0,0.0,0.0,0.0,0.0,0.0,0.0,0.0,0.0,0.0,0.0,-2.6191,-2.8828,-3.1426,-3.3242,-3.4375,-3.5508,-3.5176,-3.3672,-3.1738,0.0,-3.082,-3.1133,-3.2109,-3.3555,-3.5547,-3.5957,-3.543,-3.5117,0.0,0.0,0.0,-2.8769,-2.7676,-2.6816,-2.5547,-2.4297,-2.373,-2.4802,0.0,0.0,0.0,0.0,0.0,0.0,0.0,0.0,0.0,0.0,0.0,0.0,0.0,0.0,0.0,0.0,0.0,0.0,0.0,0.0,0.0,0.0,0.0,0.0,0.0,0.0,0.0,0.0,0.0,0.0,-4.7567,-4.8067,-4.7605,-4.7336,-4.7336,-4.6797,-4.6759,-4.7317,-4.7836,-4.8105,-4.8105,-4.8105,-4.8105,-4.8105,-4.8105,-4.8105,-4.8125,-4.8759,-4.9029,-4.9067,-4.9625,-4.9875,-4.9913,-5.0481,-5.0712,-5.0712,-5.0712,-5.0673,-5.0653,0.0,0.0,0.0,-2.3788,0.0,-2.2715,-2.1269,-2.1035,-2.1523,-2.293,0.0,0.0,0.0,0.0,-2.3144,-2.1992,-2.1367,-2.0918,-2.0625,0.0,0.0,0.0,0.0,0.0,0.0,0.0,0.0,0.0,0.0,0.0,0.0,-2.9492,-3.1211,-3.2617,-3.3769,-3.4121,0.0,0.0,0.0,-3.2246,-3.2812,-3.4062,-3.5859,-3.8476,-3.9101,-3.8613,-3.8613,0.0,0.0,0.0,0.0,-2.9355,-2.7891,-2.5859,-2.3887,-2.3281,-2.3925,0.0,-2.6597,0.0,0.0,0.0,0.0,0.0,0.0,0.0,0.0,0.0,0.0,0.0,0.0,0.0,0.0,0.0,0.0,0.0,0.0,0.0,0.0,0.0,0.0,0.0,0.0,0.0,0.0,0.0,0.0,0.0,-4.7221,-4.6759,-4.6471,-4.6471,-4.5893,-4.5883,-4.6471,-4.699,-4.7259,-4.7259,-4.7259,-4.7259,-4.7259,-4.7259,-4.7259,-4.7259,-4.7259,-4.7586,-4.8144,-4.8721,-4.8952,-4.9029,-4.9606,-4.9817,-4.9817,-4.9817,-4.9817,-4.9817,-2.5707,-2.569,-2.5427,-2.4547,-2.3749,-2.2949,-2.207,-2.1934,-2.2227,-2.3027,0.0,0.0,0.0,0.0,0.0,-2.207,-2.1914,-2.1543,-2.0684,-2.0605,0.0,0.0,0.0,0.0,0.0,0.0,0.0,0.0,0.0,0.0,0.0,0.0,-2.8281,-3.0742,-3.0762,-3.125,-3.2051,0.0,-3.2207,-3.2422,0.0,-3.5801,-3.7656,0.0,-4.1269,-4.1289,-4.1308,-4.0195,0.0,-3.5723,0.0,-3.1836,-2.9121,-2.5977,-2.3242,-2.3144,-2.3125,-2.369,0.0,0.0,0.0,0.0,0.0,0.0,0.0,0.0,0.0,0.0,0.0,0.0,0.0,0.0,0.0,0.0,0.0,0.0,0.0,0.0,0.0,0.0,0.0,0.0,0.0,0.0,0.0,0.0,-4.5594,-4.5594,-4.5594,-4.5594,-4.5594,-4.5594,-4.5594,-4.5594,-4.5594,-4.5594,-4.5594,-4.5594,-4.5594,-4.5594,-4.5594,-4.5594,-4.5594,-4.5594,-4.5594,-4.6509,-4.8029,-4.8048,-4.8067,-4.8067,-4.8086,-4.8105,-4.8105,-4.8105,-4.8105,-4.8105,-2.5693,-2.5692,-2.5427,-2.4549,-2.4218,-2.3789,-2.2969,-2.2832,-2.3125,0.0,0.0,0.0,-2.5273,-2.4785,-2.3965,-2.2852,-2.2246,-2.1797,-2.1562,-2.0957,-2.0703,-2.0957,-2.2402,-2.3184,0.0,0.0,0.0,0.0,0.0,0.0,0.0,0.0,0.0,0.0,-2.7793,-2.8203,-2.8555,-3.0469,0.0,-3.4101,-3.5195,-3.7051,0.0,0.0,0.0,0.0,0.0,-4.2832,-4.1055,0.0,-3.6894,-3.4062,-2.8965,-2.6289,-2.4766,-2.3535,-2.3574,-2.4199,-2.4922,0.0,0.0,0.0,0.0,0.0,0.0,0.0,0.0,0.0,0.0,0.0,0.0,0.0,0.0,0.0,0.0,0.0,0.0,0.0,0.0,0.0,0.0,0.0,0.0,0.0,0.0,0.0,-4.5594,-4.5594,-4.5594,-4.5594,-4.5594,-4.5594,-4.5594,-4.5594,-4.5594,-4.5594,-4.5594,-4.5594,-4.5594,-4.5594,-4.5594,-4.5594,-4.5594,-4.5594,-4.5594,-4.5864,-4.6336,-4.6971,-4.7231,-4.7298,-4.7875,-4.8105,-4.8105,-4.8105,-4.8105,-4.8105,-2.5684,-2.5706,-2.5541,-2.5037,-2.4648,-2.4238,-2.3769,-2.3691,-2.3867,0.0,0.0,0.0,-2.6699,-2.6016,-2.5137,-2.4258,-2.3418,-2.2656,-2.1953,-2.1426,-2.0977,-2.0625,-2.2266,-2.3184,-2.3144,0.0,0.0,0.0,0.0,0.0,0.0,0.0,0.0,0.0,-2.5176,-2.5801,-2.6582,-2.8476,0.0,0.0,-3.5371,0.0,0.0,-4.2734,-4.3926,0.0,0.0,0.0,-4.3281,-4.1933,-3.9043,0.0,-3.0195,-2.7773,-2.6523,-2.5176,-2.5117,-2.5566,-2.5937,-2.7148,0.0,0.0,0.0,0.0,0.0,-3.2511,0.0,0.0,0.0,0.0,0.0,0.0,0.0,0.0,0.0,0.0,0.0,0.0,0.0,0.0,0.0,0.0,0.0,-4.5594,-4.5594,-4.5594,-4.5594,-4.5594,-4.5594,-4.5594,-4.5594,-4.5594,-4.5594,-4.5594,-4.5594,-4.5594,-4.5594,-4.5594,-4.5594,-4.5594,-4.5594,-4.5594,-4.5594,-4.5594,-4.5594,-4.5594,-4.5633,-4.6144,-4.6355,-4.6394,-4.6874,-4.7067,-4.7067,-4.7067,-4.7067,-4.7067,0.0,-2.569,-2.5727,-2.5835,-2.5193,-2.4726,-2.4824,-2.4824,-2.4824,0.0,-2.6172,-2.748,-2.8359,-2.7676,-2.6797,-2.5918,-2.5059,-2.3867,-2.2285,-2.1992,-2.1543,-2.0781,-2.2227,-2.3105,-2.3203,-2.3281,0.0,0.0,0.0,0.0,0.0,0.0,0.0,0.0,-2.3086,-2.4023,-2.5508,-2.6641,-2.9043,-3.2285,-3.4941,-3.7617,0.0,0.0,-4.4297,-4.5254,-4.6016,-4.5801,-4.498,-4.3906,-4.0371,0.0,-3.2519,-3.0273,-2.8691,-2.7832,-2.7519,-2.7598,-2.8379,-2.8652,-2.8867,-2.9452,-2.9158,0.0,-3.1351,-3.129,0.0,0.0,0.0,0.0,0.0,0.0,0.0,0.0,0.0,0.0,0.0,0.0,0.0,0.0,0.0,0.0,-4.5477,-4.5565,-4.5603,-4.5603,-4.5594,-4.5594,-4.5594,-4.5594,-4.5594,-4.5594,-4.5594,-4.5594,-4.5594,-4.5594,-4.5594,-4.5594,-4.5594,-4.5594,-4.5594,-4.5594,-4.5594,-4.5594,-4.5594,-4.5594,-4.5594,-4.5594,-4.5594,-4.5594,-4.5594,-4.5594,-4.5594,-4.5594,-4.5594,-4.5594,-2.5602,-2.5629,-2.5864,-2.6607,-2.6612,-2.6733,-2.742,-2.7538,-2.7538,-2.7539,-2.7832,-2.8379,-2.9258,-2.8574,-2.7695,-2.6816,-2.5957,-2.5019,-2.3984,-2.2656,-2.1816,-2.1641,-2.1973,-2.248,-2.3184,-2.3828,-2.3848,0.0,0.0,0.0,0.0,0.0,0.0,0.0,-2.2578,-2.3379,-2.3887,-2.6816,-2.9258,-3.1445,-3.4687,0.0,-4.1152,-4.3008,-4.4687,-4.6074,-4.623,-4.6191,-4.5703,-4.3418,-4.1094,-3.8652,0.0,-3.3809,-3.2246,-3.1426,-3.0684,-3.0176,-3.0351,-3.0898,-3.1133,-2.9902,0.0,0.0,-3.0289,-3.0459,-3.1149,0.0,0.0,0.0,0.0,0.0,0.0,0.0,0.0,0.0,0.0,0.0,0.0,0.0,0.0,0.0,-4.472,-4.5301,-4.5684,-4.5684,-4.5631,-4.5594,-4.5594,-4.5594,-4.5594,-4.5594,-4.5594,-4.5594,-4.5594,-4.5594,-4.5594,-4.5594,-4.5594,-4.5594,-4.5594,-4.5594,-4.5594,-4.5594,-4.5594,-4.5594,-4.5594,-4.5594,-4.5594,-4.5594,-4.5594,-4.5594,-4.5594,-4.5594,-4.5594,-4.5594,-2.5538,-2.5542,-2.5842,-2.6794,-2.6942,-2.7243,-2.8115,-2.8274,-2.8453,-2.8886,-2.9707,-3.0566,-3.1406,-3.0742,-2.9883,-2.9023,-2.8144,-2.6914,-2.5156,-2.4258,-2.3418,-2.2578,-2.293,-2.3359,-2.3789,-2.3809,-2.3594,0.0,0.0,0.0,0.0,0.0,0.0,0.0,-2.3047,-2.4043,-2.4648,-2.7676,-2.9941,-3.1816,-3.4805,0.0,-4.0781,-4.2891,-4.4512,-4.5703,-4.6133,-4.6308,-4.5976,-4.3789,-4.2207,0.0,-3.8105,-3.6406,-3.5176,0.0,-3.3476,-3.2891,-3.332,-3.3125,-3.2695,-3.2246,0.0,0.0,0.0,-3.0545,-3.0443,-3.1274,0.0,0.0,0.0,0.0,0.0,0.0,0.0,0.0,0.0,0.0,0.0,0.0,0.0,0.0,-4.3253,-4.4011,-4.4484,-4.4465,-4.4423,-4.4583,-4.4985,-4.5004,-4.5188,-4.5594,-4.5594,-4.5594,-4.5594,-4.5594,-4.5594,-4.5594,-4.5594,-4.5594,-4.5594,-4.5594,-4.5594,-4.5594,-4.5594,-4.5594,-4.5594,-4.5594,-4.5594,-4.5594,-4.5594,-4.5594,-4.5594,-4.5594,-4.5594,-4.5594,-2.5469,-2.5473,-2.5776,-2.6727,-2.7015,-2.7424,-2.8328,-2.8786,-2.9478,0.0,0.0,-3.3066,-3.4043,-3.3418,-3.2519,-3.1465,-3.0742,-2.9238,-2.6621,-2.6133,-2.5273,-2.375,-2.3984,-2.4238,-2.4394,-2.3594,-2.3184,-2.3203,0.0,0.0,0.0,0.0,0.0,0.0,0.0,0.0,0.0,0.0,0.0,-3.2656,0.0,-3.7715,-4.0176,-4.2734,-4.4238,-4.5117,-4.5996,-4.6308,-4.6035,-4.4297,-4.3223,-4.2226,-3.9844,-3.8496,0.0,0.0,0.0,-3.5605,0.0,0.0,-3.4492,0.0,0.0,-3.1738,0.0,0.0,0.0,-3.068,0.0,0.0,0.0,0.0,0.0,0.0,0.0,0.0,0.0,0.0,0.0,0.0,0.0,0.0,0.0,-4.2212,-4.2795,-4.273,-4.2878,-4.3248,-4.3906,-4.4237,-4.4694,-4.5353,-4.5518,-4.5594,-4.5594,-4.5594,-4.5594,-4.5594,-4.5594,-4.5594,-4.5594,-4.5594,-4.5594,-4.5594,-4.5594,-4.5594,-4.5594,-4.5594,-4.5594,-4.5594,-4.5594,-4.5594,-4.5594,-4.5594,-4.5594,-4.5594,-2.5401,-2.541,-2.5719,-2.6654,-2.7453,-2.8282,-2.921,-3.0665,-3.2537,0.0,0.0,0.0,-3.6678,-3.6093,-3.4902,-3.3262,-3.3027,-3.1875,-2.9316,-2.7715,-2.6426,-2.5469,-2.4023,-2.3613,-2.4375,-2.3555,-2.3144,-2.3203,0.0,0.0,0.0,0.0,-2.2285,-2.3066,-2.5586,0.0,0.0,0.0,-3.2422,0.0,-3.6094,-3.8262,0.0,-4.2734,-4.4238,-4.5117,-4.5996,-4.6308,-4.6035,0.0,-4.3633,-4.3242,0.0,-4.0312,-3.959,-3.9492,0.0,0.0,0.0,0.0,0.0,0.0,-3.5059,0.0,0.0,0.0,-3.0781,-3.0878,0.0,0.0,0.0,0.0,0.0,0.0,0.0,0.0,0.0,0.0,0.0,0.0,0.0,0.0,0.0,-4.0193,-4.107,-4.1071,-4.1725,-4.2183,-4.2279,-4.3631,-4.4445,-4.452,-4.5227,-4.5594,-4.5594,-4.5594,-4.5594,-4.5594,-4.5594,-4.5594,-4.5594,-4.5594,-4.5594,-4.5594,-4.5594,-4.5594,-4.5594,-4.5594,-4.5594,-4.5594,-4.5594,-4.5594,-4.5594,-4.5594,-4.5594,-4.5594,-2.5393,-2.5391,-2.5687,-2.6579,-2.7048,-2.7763,-2.922,-3.1778,-3.4137,0.0,0.0,0.0,0.0,0.0,0.0,-3.7246,0.0,-3.5312,0.0,-3.0957,-2.9394,-2.8027,-2.6777,-2.6055,-2.5918,-2.4551,-2.3633,-2.3203,-2.1816,0.0,0.0,0.0,-2.332,-2.4727,-2.7344,0.0,-3.0723,0.0,-3.4883,0.0,0.0,0.0,0.0,-4.293,-4.4551,-4.5801,-4.6172,-4.6308,-4.6113,0.0,-4.4453,0.0,0.0,0.0,0.0,-4.1504,0.0,0.0,0.0,0.0,0.0,0.0,0.0,0.0,-3.3066,0.0,-3.0898,0.0,0.0,0.0,0.0,0.0,0.0,0.0,0.0,0.0,0.0,0.0,0.0,0.0,0.0,0.0,0.0,0.0,0.0,0.0,-3.8674,-3.9568,-4.0496,-4.168,-4.273,-4.3674,-4.4025,-4.4195,-4.4146,-4.4639,-4.488,-4.4855,-4.5364,-4.5594,-4.5594,-4.5594,-4.5594,-4.5594,-4.5594,-4.5594,-4.5594,-4.5594,-4.5594,-4.5594,-4.5594,-4.5594,-4.5594,-4.5594,-4.5594,-4.5594,-2.5361,-2.5365,-2.5572,-2.6238,-2.6719,-2.7879,-3.0417,-3.315,-3.5548,-3.718,0.0,0.0,-4.0817,-4.0937,0.0,0.0,-4.0019,-3.8535,0.0,-3.418,-3.2461,-3.0723,-2.9609,-2.8593,-2.7734,-2.5996,-2.4707,-2.3887,-2.2168,0.0,0.0,0.0,0.0,-2.6172,0.0,-3.1055,-3.3047,0.0,-3.6855,-3.7851,-4.0234,-4.1621,-4.2363,-4.3594,-4.498,-4.6308,-4.6308,-4.6308,-4.6172,-4.5293,-4.5,0.0,-4.3965,0.0,-4.3574,0.0,0.0,0.0,-4.1894,0.0,0.0,0.0,0.0,0.0,0.0,0.0,0.0,0.0,0.0,0.0,0.0,0.0,0.0,0.0,0.0,0.0,0.0,0.0,0.0,0.0,0.0,0.0,0.0,0.0,0.0,0.0,0.0,-3.703,-3.8436,-3.9976,-4.1358,-4.2518,-4.2995,-4.3211,-4.3153,-4.3767,-4.4044,-4.4001,-4.4619,-4.5034,-4.5276,-4.5248,-4.5364,-4.5594,-4.5594,-4.5594,-4.5594,-4.5594,-4.5594,-4.5594,-4.5594,-4.5594,-4.5594,-4.5594,-4.5594,-4.5594,-2.5308,-2.5308,0.0,-2.5432,-2.6791,-2.9332,-3.3673,-3.5197,-3.7073,-4.0488,0.0,0.0,0.0,0.0,0.0,0.0,0.0,-4.1191,-3.8633,-3.6855,-3.5096,-3.3358,-3.1695,-3.0406,-2.9549,-2.7811,-2.6484,-2.5625,-2.3945,-2.3105,0.0,0.0,0.0,0.0,0.0,-3.2266,-3.4746,-3.6504,-3.7754,-3.8711,-4.0488,-4.2676,-4.4883,0.0,-4.5527,-4.6308,-4.6308,0.0,0.0,-4.5293,-4.5,0.0,0.0,0.0,0.0,0.0,0.0,0.0,0.0,0.0,0.0,-4.0254,0.0,0.0,0.0,0.0,-3.2383,0.0,0.0,0.0,0.0,0.0,0.0,0.0,0.0,0.0,0.0,0.0,0.0,0.0,0.0,0.0,0.0,0.0,0.0,0.0,0.0,0.0,-3.5969,-3.912,-4.0893,-4.0878,-4.2451,-4.3299,-4.3299,-4.3252,-4.3236,-4.3236,-4.3208,-4.3623,-4.4443,-4.4372,-4.4797,-4.5594,-4.5594,-4.5594,-4.5594,-4.5594,-4.5594,-4.5594,-4.5594,-4.5594,-4.5594,-4.5594,-4.5594,-4.5594,0.0,0.0,0.0,0.0,0.0,-2.8516,-3.289,-3.5834,-3.8396,0.0,-4.2071,0.0,0.0,-4.4556,-4.4661,0.0,0.0,-4.3512,-4.2067,-3.9798,-3.8018,-3.6885,-3.518,-3.3598,-3.2159,-3.0401,-2.8548,-2.6562,-2.4843,-2.3984,0.0,0.0,0.0,0.0,0.0,-3.2637,0.0,0.0,0.0,0.0,0.0,-4.457,-4.5801,0.0,-4.5547,-4.6308,-4.6308,-4.6308,0.0,-4.5957,-4.5859,-4.5801,-4.5508,-4.543,-4.5312,-4.4726,-4.4551,0.0,0.0,0.0,-4.1465,-4.0898,0.0,0.0,0.0,0.0,0.0,0.0,0.0,0.0,0.0,0.0,0.0,0.0,0.0,0.0,0.0,0.0,0.0,0.0,0.0,0.0,0.0,0.0,0.0,0.0,-3.1452,0.0,0.0,-3.724,-3.8942,-4.005,-4.1178,-4.1766,-4.1717,-4.2219,-4.2451,-4.2402,-4.2982,-4.3399,-4.3699,-4.4203,-4.4592,-4.4901,-4.5431,-4.5676,-4.5657,-4.5622,-4.5594,-4.5594,-4.5594,-4.5594,-4.5594,-4.5594,-4.5594,-4.5594,-2.6327,0.0,0.0,0.0,0.0,-3.0241,-3.4301,-3.739,-4.011,0.0,-4.3822,0.0,-4.6187,0.0,-4.653,0.0,-4.6383,-4.5527,-4.4646,-4.2435,0.0,-3.996,-3.8541,-3.6959,-3.5211,-3.3496,-3.1361,-2.8801,-2.6772,-2.5622,0.0,0.0,0.0,0.0,0.0,-3.2793,-3.6172,0.0,-4.0879,0.0,0.0,-4.5527,0.0,0.0,-4.5801,-4.6308,0.0,-4.6308,-4.6308,-4.6308,-4.6308,-4.6308,-4.6308,-4.6308,-4.6191,-4.5625,-4.5469,-4.5332,-4.4785,-4.3613,0.0,-4.1777,-3.9492,0.0,-3.6992,0.0,-3.4785,0.0,0.0,0.0,0.0,0.0,0.0,0.0,0.0,0.0,0.0,-2.5703,0.0,0.0,0.0,0.0,0.0,0.0,-2.7734,-2.8613,0.0,0.0,0.0,0.0,-3.756,-3.9253,-4.0123,-4.0704,-4.0972,-4.1451,-4.1688,-4.1655,-4.2194,-4.2592,-4.2898,-4.3415,-4.3968,-4.4554,-4.5055,-4.5449,-4.5722,-4.5665,-4.564,-4.5631,-4.5622,-4.5594,-4.5594,-4.5594,-4.5594,-4.5594,-2.803,-2.8088,0.0,0.0,-3.0477,0.0,0.0,0.0,-4.2216,0.0,-4.6167,-4.6847,-4.8502,-4.8698,-4.8688,-4.8688,-4.7981,-4.7203,-4.6368,-4.4696,0.0,0.0,-4.1602,-4.0291,-3.8569,-3.6884,-3.4752,-3.2158,-2.9608,-2.788,0.0,0.0,0.0,0.0,-3.0059,0.0,-3.6113,-3.873,-4.0879,-4.2676,-4.4375,-4.5566,-4.6308,-4.6308,-4.6308,-4.6308,-4.6308,-4.6308,-4.6308,-4.6308,-4.6308,-4.6308,-4.6308,-4.6308,-4.6308,-4.6308,-4.6308,-4.6308,-4.6308,-4.5664,-4.4609,-4.2949,-4.1269,0.0,0.0,0.0,-3.7422,0.0,0.0,0.0,0.0,0.0,0.0,0.0,0.0,0.0,0.0,0.0,0.0,0.0,0.0,0.0,0.0,0.0,-2.6055,-2.6934,-2.8534,0.0,0.0,0.0,-3.6687,-3.8484,-3.9367,-4.0216,-4.1095,-4.1039,-4.0997,-4.0994,-4.0941,-4.1305,-4.2053,-4.208,-4.2972,-4.4492,-4.4505,-4.4974,-4.573,-4.573,-4.5709,-4.5701,-4.562,-4.5622,-4.5594,-4.5594,-4.5594,-4.5594,-2.9885,-3.0756,-3.2352,0.0,-3.4944,-3.5811,0.0,0.0,0.0,0.0,-4.7015,-4.7971,-4.8435,-4.8524,-4.8555,-4.8555,-4.8418,0.0,0.0,0.0,0.0,-4.5055,-4.3588,-4.1985,-4.0299,-3.8566,-3.6137,-3.2988,-3.0449,0.0,-2.6972,0.0,0.0,0.0,0.0,0.0,-3.5195,-3.7812,-4.1016,-4.4433,-4.5527,-4.6094,-4.6308,0.0,-4.6308,-4.6308,-4.6308,-4.6308,-4.6308,-4.6308,-4.6308,-4.6308,-4.6308,-4.6308,-4.6308,-4.6308,-4.6308,-4.6308,-4.6308,-4.5664,-4.4883,-4.4433,-4.3027,-4.1543,0.0,0.0,0.0,0.0,0.0,0.0,0.0,0.0,0.0,0.0,0.0,0.0,0.0,0.0,0.0,0.0,0.0,0.0,0.0,-2.5703,-2.6055,-2.6934,-2.7402,0.0,0.0,0.0,0.0,-3.7555,-3.9096,-4.0263,-4.1094,-4.1087,-4.1076,-4.1059,-4.1067,-4.1131,-4.1292,-4.1956,-4.2482,-4.2957,-4.4136,-4.4779,-4.504,-4.5615,-4.5829,-4.5777,-4.5762,-4.5722,-4.5676,-4.5622,-4.5594,-4.5594,-3.216,-3.3718,0.0,-3.8623,0.0,0.0,-4.0848,-4.3303,0.0,-4.6721,-4.8077,0.0,-4.9449,-4.9523,-4.955,-4.955,-4.9271,0.0,-4.9044,0.0,0.0,-4.6468,-4.5493,-4.4015,-4.1941,-4.0223,0.0,-3.4353,0.0,0.0,-2.7493,0.0,0.0,0.0,0.0,-3.1266,0.0,-3.8514,-4.2108,-4.5078,-4.5957,-4.6308,0.0,-4.6308,-4.6308,-4.6308,-4.6308,-4.6308,-4.6308,-4.6308,-4.6308,-4.6308,-4.6308,-4.6308,-4.6308,-4.6308,-4.6308,-4.6308,-4.6308,-4.5937,-4.5488,-4.5098,-4.4258,-4.332,-4.248,-4.1914,-4.1308,0.0,-3.959,-3.8516,0.0,0.0,0.0,0.0,0.0,0.0,0.0,0.0,0.0,0.0,-2.5703,0.0,-2.5703,-2.5703,-2.5898,-2.6387,-2.6777,0.0,0.0,0.0,0.0,-3.6659,-3.8417,-3.9725,-4.0562,-4.0912,-4.1102,-4.1095,-4.1109,-4.1083,-4.1056,-4.1547,-4.1983,-4.2382,-4.3276,-4.4072,-4.4788,-4.5196,-4.5589,-4.5887,-4.5859,-4.5788,-4.5738,-4.5687,-4.5646,-4.5594,-3.5148,0.0,0.0,0.0,0.0,0.0,0.0,-4.5145,0.0,-4.824,0.0,-5.0041,-5.0789,-5.0874,-5.0874,-5.0874,0.0,-4.9819,-4.9769,-4.8999,-4.8183,-4.736,-4.7109,-4.5912,-4.3576,-4.1769,-3.921,0.0,-3.2438,-2.9865,0.0,0.0,0.0,0.0,0.0,0.0,0.0,-3.9933,-4.3334,-4.4919,-4.5896,-4.6307,-4.6308,-4.6308,-4.6308,-4.6308,-4.6308,-4.6308,-4.6308,-4.6308,-4.6308,-4.6308,-4.6308,-4.6308,-4.6308,-4.6308,-4.6308,-4.6308,-4.6308,-4.6308,-4.6113,-4.5351,-4.5176,-4.4941,-4.4062,-4.3867,-4.3594,-4.2598,-4.1836,-4.0605,0.0,0.0,0.0,0.0,0.0,0.0,0.0,0.0,0.0,0.0,0.0,0.0,0.0,-2.5703,-2.5703,-2.5703,-2.6406,0.0,0.0,0.0,0.0,-3.5586,-3.7461,-3.8906,-3.9883,0.0,-4.1112,-4.1112,-4.1106,-4.1102,-4.1102,-4.1097,-4.1518,-4.2229,-4.2283,-4.3139,-4.4504,-4.466,-4.5225,-4.6012,-4.5937,-4.588,-4.5824,-4.5829,-4.5735,-4.5629,-4.02,0.0,0.0,0.0,0.0,-4.5787,-4.7037,-4.8095,-4.8855,-4.9162,-4.998,-5.0577,-5.0721,-5.0739,-5.0738,-5.0738,-5.0666,0.0,0.0,0.0,0.0,-4.9062,-4.7675,-4.6403,-4.5285,-4.2857,-3.9983,-3.6681,-3.3262,-3.0378,0.0,0.0,0.0,0.0,0.0,0.0,-3.5858,-4.0448,0.0,-4.4063,-4.5669,-4.6297,-4.6299,-4.6306,-4.6307,-4.6307,-4.6308,-4.6308,-4.6308,-4.6308,-4.6308,-4.6308,-4.6308,-4.6308,-4.6308,-4.6308,-4.6308,-4.6308,-4.6308,-4.6308,-4.6269,-4.6113,-4.6074,-4.584,-4.4961,-4.4766,-4.4316,-4.2734,-4.2285,-4.1621,-3.9785,0.0,0.0,0.0,0.0,0.0,0.0,0.0,0.0,0.0,0.0,-2.6484,0.0,-2.5703,-2.5703,-2.5703,0.0,0.0,0.0,0.0,0.0,0.0,-3.623,0.0,0.0,0.0,-4.1172,-4.1172,-4.1172,-4.1171,-4.1171,-4.113,-4.1187,-4.1362,-4.2071,-4.2547,-4.2926,-4.4295,-4.5358,-4.6072,-4.6017,-4.5969,-4.5953,-4.5893,-4.5826,-4.5749,-4.4028,0.0,0.0,0.0,0.0,0.0,0.0,-5.0548,-5.1068,-5.0183,-5.1202,-5.1818,-5.1375,-5.1318,-5.1154,-5.0741,-5.073,-5.074,-5.074,-5.0354,-4.9912,-4.947,-4.8642,-4.7411,-4.5697,-4.3553,-4.0823,-3.7469,-3.4087,-3.1355,-2.9259,0.0,0.0,0.0,0.0,-3.3206,0.0,0.0,0.0,-4.439,-4.5685,-4.6228,-4.6243,-4.6251,-4.6277,-4.6301,-4.6304,-4.6305,-4.6307,-4.6308,-4.6308,-4.6308,-4.6308,-4.6308,-4.6308,-4.6308,-4.6308,-4.6308,-4.6308,-4.6308,-4.6308,-4.6308,-4.6308,-4.6191,-4.5762,-4.5312,-4.4766,-4.3926,-4.3027,-4.1894,-4.0215,-3.7422,0.0,0.0,0.0,0.0,0.0,0.0,-2.8476,0.0,0.0,0.0,0.0,0.0,0.0,0.0,0.0,0.0,0.0,0.0,0.0,0.0,0.0,0.0,0.0,0.0,0.0,-4.1191,-4.1191,-4.1191,-4.1191,-4.1172,-4.1152,-4.1171,-4.1558,-4.1983,-4.2527,-4.4255,-4.5425,-4.6156,-4.6125,-4.6068,-4.6054,-4.6022,-4.5939,-4.5848,0.0,-4.7298,0.0,0.0,-4.9933,-5.101,-5.1202,-5.251,-5.2933,-5.1433,-5.2375,-5.2953,-5.225,-5.2173,-5.1856,-5.1029,-5.0952,-5.0875,-5.0712,-5.0712,-5.0385,-4.9702,-4.949,-4.8452,-4.646,-4.4586,-4.2043,-3.8813,-3.5444,-3.2831,0.0,0.0,-2.8742,-2.931,0.0,0.0,0.0,0.0,-4.3333,-4.483,-4.5718,-4.6102,-4.6159,-4.6172,-4.6206,-4.6261,-4.6264,-4.627,-4.6277,-4.6284,-4.6287,-4.6308,-4.6288,-4.6288,-4.6288,-4.6308,-4.6308,-4.6308,-4.6308,-4.6308,-4.6308,-4.6308,-4.6308,-4.625,-4.6074,-4.5488,-4.4883,-4.4512,-4.3223,-4.1699,-4.0176,-3.8066,0.0,0.0,0.0,0.0,0.0,0.0,0.0,0.0,0.0,0.0,-2.5801,0.0,0.0,0.0,0.0,0.0,-2.6426,0.0,0.0,0.0,0.0,-3.6035,-3.7285,0.0,-4.0332,-4.1191,-4.1191,-4.1191,-4.1191,-4.1191,-4.1191,-4.1191,-4.1132,-4.16,-4.2518,-4.4074,-4.5216,-4.5966,-4.6158,-4.6197,-4.6144,-4.6137,-4.6044,-4.5933,0.0,0.0,0.0,0.0,0.0,-5.2038,-5.2856,-5.378,-5.4049,-5.3087,-5.3106,-5.3164,-5.3087,-5.3087,-5.2741,-5.1865,-5.1788,-5.1491,-5.075,-5.0712,-5.0654,-5.0577,-4.9817,-4.9279,-4.9048,-4.6633,-4.4075,0.0,0.0,-3.509,0.0,-3.097,-3.1044,-3.2754,0.0,0.0,0.0,-4.2119,-4.374,-4.4694,-4.5627,-4.6003,-4.6037,-4.608,-4.6109,-4.6135,-4.6184,-4.6214,-4.6216,-4.6219,-4.6257,-4.6295,-4.623,-4.6207,-4.6228,-4.6274,-4.6295,-4.6299,-4.6306,-4.6307,-4.6307,-4.6308,-4.6308,-4.6094,-4.5293,-4.5058,-4.4551,-4.2969,-4.1933,-4.1016,-4.0078,-3.9043,-3.7832,0.0,0.0,0.0,0.0,0.0,-3.0956,-2.8475,0.0,0.0,0.0,0.0,0.0,0.0,0.0,0.0,0.0,0.0,0.0,-2.9668,0.0,-3.4824,-3.7285,-3.9023,-4.0332,-4.1191,-4.1191,-4.1191,-4.1191,-4.1191,-4.1191,-4.1191,-4.1191,-4.1641,-4.2461,-4.3436,-4.4333,-4.5191,-4.5983,-4.629,-4.6266,-4.6216,-4.6189,-4.6141,0.0,0.0,0.0,0.0,0.0,0.0,0.0,-5.4684,-5.5107,-5.4741,-5.4703,-5.4511,-5.403,-5.3972,-5.3626,-5.276,-5.2192,-5.175,-5.1433,-5.0971,-5.0712,-5.0712,-5.0366,-4.9933,-4.9413,-4.7413,-4.5374,0.0,0.0,0.0,0.0,-3.4244,-3.4379,-3.6106,0.0,-3.9638,-4.1827,-4.3322,-4.4483,-4.5349,-4.5731,-4.5906,-4.5943,-4.5975,-4.6003,-4.6046,-4.6063,-4.6107,-4.6123,-4.6099,-4.6154,-4.6249,-4.6204,-4.6204,-4.6204,-4.6228,-4.6234,-4.6241,-4.6248,-4.6233,-4.6237,-4.6239,-4.624,-4.6025,-4.5186,-4.46,-4.3878,-4.265,-4.1736,-4.1034,-4.0683,-3.9511,-3.8379,-3.7675,0.0,0.0,0.0,0.0,0.0,-2.8607,0.0,-2.7031,0.0,0.0,0.0,0.0,0.0,-2.5547,-2.5195,0.0,0.0,-2.8809,0.0,-3.4141,-3.5723,-3.7988,-3.9551,-4.043,-4.0957,-4.1191,-4.1191,-4.1191,-4.1191,-4.1191,-4.1191,-4.166,-4.2461,-4.334,-4.4218,-4.5097,-4.5955,-4.6305,-4.6302,-4.6272,-4.6238,-4.6199,-5.3087,0.0,-5.3587,0.0,-5.4299,-5.4857,-5.4857,-5.5318,-5.5703,-5.5703,-5.5703,-5.5472,-5.4914,-5.4857,-5.4511,-5.3664,-5.3029,-5.2558,-5.2288,-5.151,-5.1048,-5.1048,-5.0827,0.0,-4.9798,-4.8375,-4.6797,-4.5066,-4.2181,0.0,-3.9084,-3.7642,-3.7745,0.0,-4.0068,-4.1624,-4.357,-4.4399,-4.5136,-4.5735,-4.577,-4.5807,-4.5838,-4.5859,-4.5893,-4.5935,-4.5947,-4.5975,-4.6002,-4.5964,-4.6008,-4.6096,-4.6107,-4.6111,-4.6111,-4.6141,-4.6135,-4.6147,-4.6167,-4.6177,-4.6186,-4.6193,-4.6195,-4.5921,-4.4829,-4.4106,-4.3367,-4.2243,-4.153,-4.1105,-4.1107,-3.9704,-3.8571,-3.8568,0.0,0.0,0.0,-3.2878,0.0,-2.862,-2.7769,-2.6932,-2.5819,0.0,0.0,0.0,0.0,-2.5977,-2.5703,0.0,0.0,0.0,0.0,0.0,-3.5078,-3.7422,-3.9043,-3.9902,-4.0781,-4.1191,-4.1191,-4.1191,-4.1191,-4.1191,-4.1191,-4.1523,-4.2129,-4.3242,-4.4062,-4.4726,-4.5859,-4.6308,-4.6307,-4.6305,-4.6261,-4.6231,-5.3203,-5.3895,-5.4472,-5.4472,-5.5145,-5.5684,-5.5684,-5.5684,-5.5703,-5.5703,-5.5703,-5.5703,-5.5684,-5.5684,-5.5357,-5.4549,-5.4472,-5.4107,-5.3241,-5.2365,-5.1885,0.0,0.0,-5.0712,-5.0693,-4.9817,-4.8548,-4.6865,0.0,0.0,-4.1731,-4.0854,-4.0912,-4.1788,-4.2662,-4.3508,-4.4335,-4.5229,-4.5594,-4.5622,-4.5665,-4.5701,-4.5709,-4.5777,-4.5807,-4.5795,-4.5793,-4.5807,-4.5807,-4.5807,-4.5807,-4.5827,-4.5873,-4.5892,-4.5929,-4.5986,-4.6002,-4.6027,-4.608,-4.6102,-4.6128,-4.6181,-4.6209,-4.5757,-4.4002,-4.3612,-4.3127,-4.1462,-4.1113,-4.1097,-4.1108,-3.9684,-3.8491,-3.85,0.0,0.0,0.0,-3.3389,0.0,-2.8713,-2.8292,-2.7593,-2.5876,0.0,0.0,0.0,0.0,-2.6602,-2.5742,0.0,0.0,-3.0781,-3.1738,0.0,-3.5957,-3.7715,-3.9043,-3.9902,-4.0781,-4.1191,-4.1191,-4.1191,-4.1191,-4.1191,-4.1191,-4.1211,-4.1348,-4.3008,-4.3711,-4.3887,-4.5625,-4.6308,-4.6308,-4.6307,-4.6307,-4.6306,-5.6684,-5.6896,-5.6896,-5.631,-5.6426,-5.6387,-5.578,-5.5703,-5.5703,-5.5703,-5.5703,-5.5703,-5.5703,-5.5703,-5.5588,0.0,-5.4818,-5.4376,0.0,-5.328,-5.2519,-5.1923,-5.1654,-5.126,-5.0712,-4.9856,-4.9144,-4.8606,0.0,0.0,0.0,-4.322,-4.3239,-4.3528,-4.3797,-4.4393,-4.521,-4.5479,-4.5594,-4.5594,-4.5631,-4.5631,-4.564,-4.5665,-4.5698,-4.5722,-4.5738,-4.5723,-4.5719,-4.5735,-4.5719,-4.5719,-4.57,-4.5757,-4.5841,-4.5867,-4.5912,-4.5937,-4.5958,-4.5961,-4.5963,-4.5998,-4.6003,-4.5536,-4.3787,-4.2546,-4.1618,-4.1077,-4.1003,-4.1037,-4.1022,-3.9633,-3.8491,-3.85,-3.7052,0.0,-3.3575,0.0,-3.1679,-2.9388,-2.8592,-2.8019,0.0,-2.7448,0.0,0.0,0.0,0.0,0.0,0.0,0.0,0.0,-3.2851,0.0,-3.5117,-3.7422,-3.873,-3.9023,-4.0508,-4.1191,-4.1191,-4.1191,-4.1191,-4.1191,-4.1191,-4.1191,-4.1289,-4.2363,-4.3164,-4.3808,-4.4961,-4.5781,-4.6308,-4.6308,-4.6308,-4.6308,-5.83,-5.83,-5.8127,-5.7569,-5.7492,-5.7184,-5.6329,-5.6195,-5.6069,-5.5742,-5.5703,-5.5703,-5.5703,-5.5703,0.0,-5.5703,-5.5241,-5.4953,-5.4953,-5.4164,-5.3453,-5.2895,-5.225,-5.1654,-5.1164,-5.0317,0.0,-4.9394,-4.8029,-4.6797,-4.572,-4.572,-4.572,-4.5701,-4.5413,-4.5586,-4.6067,-4.5748,-4.5594,-4.5594,-4.5594,-4.5594,-4.5594,-4.5594,-4.5631,-4.5657,-4.5657,-4.5654,-4.5651,-4.5665,-4.5657,-4.5648,-4.5603,-4.5651,-4.5739,-4.5754,-4.5795,-4.5824,-4.5852,-4.5854,-4.5854,-4.5867,-4.5854,-4.5409,-4.3698,-4.2274,-4.1236,-4.0916,-4.0893,-4.0917,-4.0925,-3.9528,-3.8393,-3.8383,-3.6693,-3.488,-3.3456,0.0,-3.154,0.0,0.0,0.0,0.0,-2.92,-2.9102,0.0,0.0,0.0,0.0,0.0,0.0,-3.1816,-3.3691,-3.5019,-3.5664,-3.7617,-3.8769,-3.9101,-4.0527,-4.1191,-4.1191,-4.1191,-4.1191,-4.1191,-4.1191,-4.1191,-4.1269,-4.207,-4.291,-4.3789,-4.4668,-4.5527,-4.6308,-4.6308,-4.6308,-4.6308,-5.8473,-5.8473,-5.8454,0.0,-5.8377,0.0,-5.7234,-5.7099,-5.681,-5.5992,-5.5818,-5.578,-5.578,-5.5742,-5.5703,-5.5703,0.0,0.0,0.0,-5.4991,-5.4549,-5.4491,-5.2953,-5.2019,-5.1904,-5.1164,-5.0356,-4.949,-4.8682,-4.8259,-4.8202,-4.8202,-4.8163,-4.8067,-4.7317,-4.6981,-4.6923,-4.6124,-4.5768,-4.5768,-4.571,-4.5691,-4.5691,-4.5614,-4.5594,-4.5594,-4.5594,-4.5594,-4.5594,-4.5594,-4.5594,-4.5594,-4.5594,-4.5594,-4.5603,-4.5665,-4.5693,-4.5717,-4.5777,-4.5792,-4.5781,-4.5778,-4.5735,-4.5283,-4.3736,-4.2653,-4.1777,-4.1028,-4.0827,-4.0781,-4.079,-3.9367,-3.8204,-3.8204,-3.611,-3.4188,-3.3311,-3.2547,-3.1754,0.0,0.0,0.0,-3.0878,-3.0935,-3.0634,0.0,0.0,0.0,0.0,0.0,-3.1875,-3.3437,-3.4394,-3.5664,-3.7285,-3.8223,-3.9121,-4.0,-4.0801,-4.1191,-4.1191,-4.1191,-4.1191,-4.1191,-4.1191,-4.1191,-4.1269,-4.2012,-4.2832,-4.3691,-4.457,-4.5449,-4.6211,-4.6289,-4.6308,-4.6308,0.0,0.0,-5.9992,-5.9338,-5.9223,-5.8934,-5.8127,-5.7992,-5.7915,-5.7703,-5.7107,-5.6695,-5.6695,-5.6088,-5.5703,-5.5703,-5.5703,-5.5703,-5.5703,-5.5511,-5.5145,-5.453,-5.4107,-5.326,-5.1923,-5.1712,-5.1202,-5.0385,-5.0192,-4.974,-4.9086,-4.9086,-4.874,-4.8086,-4.7894,-4.7817,-4.7798,-4.7605,-4.7509,-4.7451,-4.6836,-4.6586,-4.6528,-4.5845,-4.5594,-4.5594,-4.5594,-4.5594,-4.5594,-4.5594,-4.5594,-4.5594,-4.5594,-4.5594,-4.5594,-4.5622,-4.5631,-4.5631,-4.5637,-4.5646,-4.5646,-4.5654,-4.5153,-4.4556,-4.4152,-4.2961,-4.1866,-4.168,-4.115,-4.0726,-4.0713,-3.934,-3.8197,-3.8197,-3.6079,-3.4129,-3.3253,-3.2958,-3.2517,0.0,-3.2124,-3.2548,-3.2609,-3.2628,-3.2569,0.0,0.0,0.0,-3.2811,-3.3437,-3.3984,-3.4375,-3.5879,-3.6875,-3.7305,-3.8828,-4.0039,-4.0898,-4.1094,-4.1191,-4.1191,-4.1191,-4.1191,-4.1191,-4.1191,-4.1191,-4.1211,-4.1406,-4.1973,-4.2793,-4.3672,-4.4531,-4.5391,-4.6055,-4.6308,-4.6308,-6.08,-6.08,-6.0646,-6.0185,-6.0089,-5.9819,-5.8973,-5.8858,-5.8723,-5.8357,-5.7896,-5.7434,-5.7041,-5.6579,-5.6126,-5.5722,-5.5703,-5.5703,-5.5703,-5.5703,-5.5511,-5.5068,-5.4703,-5.4068,-5.3106,-5.2692,-5.2087,-5.1241,-5.0875,-5.0462,-4.999,-4.999,-4.974,-4.926,-4.8875,-4.8682,-4.8663,-4.8279,-4.8105,-4.8067,-4.7625,-4.7451,-4.7413,-4.6913,-4.674,-4.6682,-4.6336,-4.6182,-4.6124,-4.5729,-4.5594,-4.5594,-4.5594,-4.5594,-4.5594,-4.5594,-4.5594,-4.5594,-4.5594,-4.5594,-4.5594,-4.5594,-4.5248,-4.4778,-4.4393,-4.3621,-4.2771,-4.2002,-4.152,-4.1087,-4.0682,-3.9231,-3.8106,-3.8106,-3.5976,-3.4129,-3.366,-3.3302,-3.3023,-3.2949,-3.3357,-3.3828,-3.4245,-3.4326,-3.4202,-3.3863,-3.3919,0.0,-3.3995,-3.4817,-3.529,-3.5293,-3.6601,-3.7676,-3.8476,-3.9824,-4.0723,-4.1191,-4.1191,-4.1191,-4.1191,-4.1191,-4.1191,-4.1191,-4.1191,-4.1191,-4.1191,-4.1191,-4.1914,-4.3047,-4.3516,-4.4473,-4.5644,-4.6133,-4.6308,-4.6308,-6.08,-6.08,-6.08,-6.08,-6.08,-6.055,-5.9819,-5.9704,-5.9454,-5.8781,-5.8569,-5.8146,-5.728,-5.708,-5.6656,-5.578,-5.5703,-5.5703,-5.5703,-5.5703,-5.5703,-5.5703,-5.5049,-5.4626,-5.4491,-5.3645,-5.2779,-5.1904,-5.1221,-5.0827,-5.0712,-5.0712,-5.0712,-5.0673,-4.9933,-4.9606,-4.9548,-4.8817,-4.849,-4.849,-4.8355,-4.8298,-4.8279,-4.8144,-4.8105,-4.8009,-4.7336,-4.7077,-4.6951,-4.6086,-4.5806,-4.5768,-4.5633,-4.5594,-4.5594,-4.5594,-4.5594,-4.5594,-4.5594,-4.5594,-4.5594,-4.5594,-4.5594,-4.5421,-4.4662,-4.4393,-4.3893,-4.247,-4.1981,-4.1566,-4.0835,-3.9219,-3.8007,-3.8007,-3.5854,-3.4193,-3.4193,0.0,-3.3494,-3.4371,-3.4588,-3.5004,-3.5869,-3.6021,-3.5776,-3.5107,-3.512,-3.5183,-3.5258,-3.5971,-3.6434,-3.6562,-3.7304,-3.8476,-4.0078,-4.082,-4.1191,-4.1191,-4.1191,-4.1191,-4.1191,-4.1191,-4.1191,-4.1191,-4.1191,-4.1191,-4.1191,-4.1191,-4.2031,-4.3359,-4.3594,-4.4609,-4.5937,-4.6191,-4.6308,-4.6308,-6.08,-6.08,-6.08,-6.08,-6.08,-6.0742,-6.0608,-6.0589,-6.055,-6.0435,-5.9762,-5.8992,-5.8184,-5.7434,-5.6656,-5.578,-5.5703,-5.5703,-5.5703,-5.5703,-5.5703,-5.5703,-5.5568,-5.5203,-5.4511,-5.3645,-5.2779,-5.1904,-5.1769,-5.1375,-5.0712,-5.0712,-5.0712,-5.0693,-5.0558,-5.05,-5.05,-5.0346,-5.0308,-5.0231,-4.949,-4.9202,-4.9125,-4.8375,-4.8105,-4.8086,-4.7971,-4.7913,-4.7798,-4.6971,-4.6701,-4.6567,-4.5825,-4.5594,-4.5594,-4.5594,-4.5594,-4.5594,-4.5594,-4.5594,-4.5594,-4.5594,-4.5594,-4.5556,-4.5441,-4.4816,-4.422,-4.397,-4.2797,-4.175,-4.1623,-3.9623,-3.8007,-3.8007,-3.586,-3.4212,-3.4212,0.0,-3.4334,-3.5213,-3.5905,-3.6676,-3.7539,-3.7694,-3.7692,-3.7627,-3.7686,-3.7751,-3.7818,-3.8012,-3.8448,-3.9181,-3.9409,-3.998,-4.0996,-4.1133,-4.1191,-4.1191,-4.1191,-4.1191,-4.1191,-4.1191,-4.1191,-4.1191,-4.1191,-4.1191,-4.1191,-4.1191,-4.1348,-4.1738,-4.3144,-4.3867,-4.4277,-4.5762,-4.6308,-4.6308,-6.08,-6.08,-6.08,-6.08,-6.08,-6.08,-6.08,-6.08,-6.08,-6.08,-6.0454,-5.9877,-5.905,-5.8204,-5.7338,-5.6483,-5.5972,-5.5703,-5.5703,-5.5703,-5.5703,-5.5703,-5.5703,-5.553,-5.5145,-5.4337,-5.3703,-5.3299,-5.2365,-5.1712,-5.1337,-5.0894,-5.0712,-5.0712,-5.0712,-5.0712,-5.0712,-5.0712,-5.0712,-5.0654,-5.0269,-5.0087,-5.0048,-4.9644,-4.949,-4.9433,-4.8971,-4.8798,-4.8663,-4.7836,-4.725,-4.6827,-4.6432,-4.597,-4.5594,-4.5594,-4.5594,-4.5594,-4.5594,-4.5594,-4.5594,-4.5594,-4.5594,-4.5594,-4.5594,-4.5287,-4.4874,-4.4393,-4.3682,-4.2874,-4.1962,-4.0469,-3.9046,-3.8142,-3.6622,0.0,-3.5545,-3.5545,-3.5872,-3.6738,-3.718,-3.756,-3.7961,-3.8033,-3.8067,-3.8135,-3.8208,-3.8272,-3.833,-3.8825,-3.9296,-3.9726,-4.0261,-4.0741,-4.1132,-4.1172,-4.1191,-4.1191,-4.1191,-4.1191,-4.1191,-4.1191,-4.1191,-4.1191,-4.1191,-4.1191,-4.1191,-4.1191,-4.1738,-4.2617,-4.3398,-4.4277,-4.5195,-4.5996,-4.6308,-4.6308,-6.08,-6.08,-6.08,-6.08,-6.08,-6.08,-6.08,-6.08,-6.08,-6.08,-6.08,-6.0473,-5.9608,-5.8954,-5.8146,-5.7099,-5.6387,-5.5915,-5.5703,-5.5703,-5.5703,-5.5703,-5.5703,-5.5703,-5.5703,-5.5088,-5.4684,-5.4491,-5.3164,-5.2404,-5.2173,-5.1356,-5.0971,-5.0971,-5.0789,-5.0712,-5.0712,-5.0712,-5.0712,-5.0712,-5.0712,-5.0712,-5.0712,-5.0712,-5.0712,-5.0616,-4.9933,-4.9702,-4.9567,-4.8702,-4.799,-4.7413,-4.7019,-4.6432,-4.5855,-4.5671,-4.5594,-4.5594,-4.5594,-4.5594,-4.5594,-4.5594,-4.5594,-4.5594,-4.5594,-4.5594,-4.5421,-4.4739,-4.4432,-4.3912,-4.2624,-4.1354,-4.0073,-3.8796,0.0,-3.7,-3.7,-3.7,-3.7334,-3.82,-3.8296,-3.8387,-3.8563,-3.859,-3.8611,-3.8691,-3.8737,-3.8786,-3.8852,-3.949,-3.9887,-3.9971,-4.0714,-4.1108,-4.1109,-4.1151,-4.1172,-4.1172,-4.1191,-4.1191,-4.1172,-4.1172,-4.1172,-4.1171,-4.1172,-4.1172,-4.1172,-4.1191,-4.207,-4.3418,-4.3613,-4.4648,-4.6016,-4.623,-4.6308,-4.6308,-6.0788,-6.08,-6.08,-6.08,-6.08,-6.08,-6.08,-6.08,-6.08,-6.08,-6.08,-6.0473,-5.9608,-5.9454,-5.8761,-5.7137,-5.6945,-5.656,-5.5742,-5.5703,-5.5703,-5.5703,-5.5703,-5.5703,-5.5703,-5.5645,-5.5241,-5.4491,-5.4376,-5.3895,-5.3087,-5.2212,-5.1808,-5.1769,-5.1029,-5.0712,-5.0712,-5.0712,-5.0712,-5.0712,-5.0712,-5.0712,-5.0712,-5.0712,-5.0712,-5.0693,-5.0635,-5.0596,-5.0481,-4.9606,-4.926,-4.8933,-4.7394,-4.6846,-4.6644,-4.5845,-4.5594,-4.5594,-4.5594,-4.5594,-4.5594,-4.5594,-4.5594,-4.5594,-4.5594,-4.5594,-4.5575,-4.5518,-4.4855,-4.4259,-4.4143,-4.2132,-4.0458,-4.0342,0.0,0.0,-3.7892,-3.7892,-3.8238,-3.9111,-3.9207,-3.9496,-4.0246,-4.0323,-4.0339,-4.0414,-4.0422,-4.0458,-4.0514,-4.0571,-4.0668,-4.082,-4.1008,-4.1094,-4.11,-4.1109,-4.1112,-4.1112,-4.1172,-4.1172,-4.1112,-4.1112,-4.111,-4.1108,-4.1111,-4.1112,-4.1112,-4.1172,-4.1719,-4.2578,-4.3379,-4.4277,-4.5195,-4.5996,-4.6308,-4.6308,-6.0585,-6.0597,-6.0642,-6.071,-6.0753,-6.0746,-6.08,-6.08,-6.08,-6.08,-6.08,-6.0666,-6.0339,-5.9819,-5.905,-5.7915,-5.7311,-5.6637,-5.5761,-5.5703,-5.5703,-5.5703,-5.5703,-5.5703,-5.5703,-5.5703,-5.5549,-5.5241,-5.4741,-5.4337,-5.3991,-5.3106,-5.2423,-5.1885,-5.1587,-5.1164,-5.0712,-5.0712,-5.0712,-5.0712,-5.0712,-5.0712,-5.0712,-5.0712,-5.0712,-5.0712,-5.0712,-5.0712,-5.0654,-5.0327,-4.9856,-4.9279,-4.8644,-4.774,-4.674,-4.5864,-4.5594,-4.5594,-4.5594,-4.5594,-4.5594,-4.5594,-4.5594,-4.5594,-4.5594,-4.5594,-4.5594,-4.5594,-4.5344,-4.4932,-4.4393,-4.3508,-4.2343,-4.0766,0.0,-3.9381,-3.8873,-3.8815,-3.9111,-3.9958,-4.0035,-4.0169,-4.0477,-4.0496,-4.0504,-4.0531,-4.0539,-4.058,-4.0624,-4.0687,-4.0713,-4.0765,-4.0872,-4.0948,-4.1046,-4.1085,-4.1097,-4.11,-4.1125,-4.1125,-4.11,-4.1103,-4.1102,-4.1098,-4.11,-4.11,-4.1101,-4.1126,-4.1967,-4.3237,-4.3572,-4.457,-4.5859,-4.6172,-4.6308,-4.6308,-6.0337,-6.0398,-6.0433,-6.0527,-6.0565,-6.0591,-6.0641,-6.0641,-6.0641,-6.0641,-6.0641,-6.0654,-6.0697,-6.0167,-5.9499,-5.8708,-5.7873,-5.7019,-5.6165,-5.5838,-5.5703,-5.5703,-5.5703,-5.5703,-5.5703,-5.5703,-5.5703,-5.5703,-5.5145,-5.4876,-5.4857,-5.401,-5.3299,-5.2692,-5.2135,-5.1587,-5.1048,-5.0808,-5.0712,-5.0712,-5.0712,-5.0712,-5.0712,-5.0712,-5.0712,-5.0712,-5.0712,-5.0712,-5.0712,-5.0712,-5.0308,-4.976,-4.949,-4.8259,-4.6778,-4.6182,-4.5806,-4.5594,-4.5594,-4.5594,-4.5594,-4.5594,-4.5594,-4.5594,-4.5594,-4.5594,-4.5594,-4.5594,-4.5594,-4.5421,-4.4816,-4.447,-4.372,-4.1978,-4.1247,-4.0719,-4.0162,-3.9861,-3.9881,-4.0439,-4.0496,-4.0496,-4.0496,-4.0496,-4.0496,-4.0496,-4.0496,-4.0523,-4.0573,-4.0631,-4.068,-4.0668,-4.073,-4.0815,-4.0902,-4.1011,-4.1061,-4.107,-4.1064,-4.1064,-4.1076,-4.1062,-4.1078,-4.1066,-4.1074,-4.1074,-4.1092,-4.1356,-4.2339,-4.369,-4.3975,-4.4994,-4.6305,-4.6308,-4.6308,-4.6308,-6.0053,-6.014,-6.0179,-6.0213,-6.0251,-6.0293,-6.0293,-6.0293,-6.0293,-6.0293,-6.0293,-6.034,-6.0466,-6.0499,-6.0188,-5.9463,-5.8669,-5.7866,-5.7049,-5.6184,-5.5703,-5.5703,-5.5703,-5.5703,-5.5703,-5.5703,-5.5703,-5.5703,-5.5703,-5.5703,-5.5684,-5.4876,-5.4511,-5.4414,-5.2692,-5.1923,-5.1865,-5.1048,-5.0712,-5.0712,-5.0712,-5.0712,-5.0712,-5.0712,-5.0712,-5.0712,-5.0712,-5.0712,-5.0712,-5.0712,-5.0712,-5.0558,-4.9663,-4.8259,-4.6923,-4.6904,-4.6297,-4.5614,-4.5594,-4.5594,-4.5594,-4.5594,-4.5594,-4.5594,-4.5594,-4.5594,-4.5594,-4.5594,-4.5594,-4.5594,-4.5594,-4.4893,-4.4316,-4.4297,-4.2893,-4.1808,-4.1808,-4.1066,-4.0516,-4.0516,-4.0496,-4.0496,-4.0496,-4.0496,-4.0496,-4.0496,-4.0496,-4.0496,-4.0496,-4.0565,-4.0607,-4.0607,-4.066,-4.0694,-4.0694,-4.0894,-4.101,-4.099,-4.1,-4.1008,-4.0998,-4.0998,-4.1,-4.1009,-4.1003,-4.1006,-4.1071,-4.1939,-4.2817,-4.3689,-4.4557,-4.5465,-4.6294,-4.6305,-4.6307,-4.6307,-5.9489,-5.9559,-5.9643,-5.989,-5.9953,-6.0,-6.014,-6.0173,-6.0173,-6.0173,-6.0173,-6.0173,-6.0222,-6.0261,-5.9941,-5.9123,-5.8928,-5.8227,-5.6817,-5.5899,-5.542,-5.542,-5.5596,-5.5703,-5.5703,-5.5703,-5.5703,-5.5703,-5.5703,-5.5703,-5.5684,-5.5453,-5.503,-5.4472,-5.3953,-5.3376,-5.276,-5.1895,-5.1548,-5.1491,-5.0933,-5.0712,-5.0712,-5.0712,-5.0712,-5.0712,-5.0712,-5.0712,-5.0712,-5.0712,-5.0712,-5.0558,-4.9663,-4.9067,-4.8413,-4.7259,-4.6721,-4.6374,-4.5768,-4.5594,-4.5594,-4.5594,-4.5594,-4.5594,-4.5594,-4.5594,-4.5594,-4.5594,-4.5594,-4.5594,-4.5594,-4.5383,-4.5017,-4.4393,-4.3874,-4.3355,-4.2797,-4.197,-4.1412,-4.1412,-4.0873,-4.0496,-4.0496,-4.0496,-4.0496,-4.0496,-4.0496,-4.0496,-4.0496,-4.0523,-4.0531,-4.0531,-4.0595,-4.0624,-4.0619,-4.0773,-4.0859,-4.0859,-4.0909,-4.0917,-4.0857,-4.091,-4.0902,-4.0854,-4.0867,-4.1208,-4.1791,-4.2052,-4.303,-4.4409,-4.4702,-4.5396,-4.6236,-4.6225,-4.6256,-4.63,-5.9042,-5.9082,-5.9178,-5.938,-5.9451,-5.9504,-5.9662,-5.966,-5.966,-5.966,-5.966,-5.9696,-5.9763,-5.9809,-5.9681,-5.9292,-5.9087,-5.8268,-5.6575,-5.5998,-5.5559,-5.5235,-5.5383,-5.5504,-5.5573,-5.5585,-5.5596,-5.5618,-5.5618,-5.5618,-5.5618,-5.5618,-5.5369,-5.4877,-5.4529,-5.4087,-5.3571,-5.2686,-5.2331,-5.2335,-5.1845,-5.1663,-5.1645,-5.1318,-5.1164,-5.1125,-5.0808,-5.0712,-5.0712,-5.0712,-5.0712,-5.0616,-5.0067,-4.9683,-4.9202,-4.8182,-4.7432,-4.6797,-4.6259,-4.5855,-4.5594,-4.5594,-4.5594,-4.5594,-4.5594,-4.5594,-4.5594,-4.5594,-4.5594,-4.5594,-4.5594,-4.5594,-4.5441,-4.4893,-4.4509,-4.4124,-4.3643,-4.2854,-4.2316,-4.2316,-4.1546,-4.1008,-4.1008,-4.0708,-4.0496,-4.0496,-4.0496,-4.0496,-4.0496,-4.0496,-4.0496,-4.0496,-4.0539,-4.0565,-4.0565,-4.064,-4.0713,-4.0756,-4.0801,-4.0798,-4.0757,-4.08,-4.0978,-4.1277,-4.1275,-4.1747,-4.255,-4.2908,-4.3693,-4.4691,-4.5089,-4.56,-4.6119,-4.6159,-4.6204,-4.6255,-5.8614,-5.8702,-5.8747,-5.8767,-5.8867,-5.8965,-5.8965,-5.8965,-5.8965,-5.8965,-5.8965,-5.9043,-5.9234,-5.9253,-5.9381,-5.9692,-5.9096,-5.8034,-5.6534,-5.6287,-5.5869,-5.5142,-5.5028,-5.5102,-5.5301,-5.5351,-5.542,-5.548,-5.548,-5.548,-5.548,-5.5468,-5.5468,-5.543,-5.463,-5.4317,-5.4307,-5.3379,-5.305,-5.3171,-5.3105,-5.3099,-5.3075,-5.2287,-5.1951,-5.1808,-5.1068,-5.076,-5.0712,-5.0712,-5.0712,-5.0712,-5.0712,-5.0173,-4.949,-4.9413,-4.8317,-4.7077,-4.6942,-4.6317,-4.571,-4.5614,-4.5594,-4.5594,-4.5594,-4.5594,-4.5594,-4.5594,-4.5594,-4.5594,-4.5594,-4.5594,-4.5594,-4.5594,-4.4932,-4.4412,-4.4412,-4.372,-4.3201,-4.3201,-4.245,-4.1923,-4.1923,-4.12,-4.0727,-4.0727,-4.0727,-4.0727,-4.0727,-4.0727,-4.0727,-4.0727,-4.0669,-4.0631,-4.0631,-4.0535,-4.0569,-4.0687,-4.0681,-4.0681,-4.0681,-4.0687,-4.1171,-4.1981,-4.1983,-4.2491,-4.3364,-4.416,-4.4562,-4.4776,-4.5582,-4.5939,-4.5997,-4.6056,-4.6118,-4.618,-5.8268,-5.8312,-5.8381,-5.8535,-5.8577,-5.8638,-5.876,-5.876,-5.876,-5.876,-5.876,-5.8781,-5.8821,-5.8885,-5.8947,-5.9006,-5.8372,-5.779,-5.7415,-5.6215,-5.5428,-5.5277,-5.4583,-5.4328,-5.4525,-5.5,-5.5236,-5.5281,-5.5281,-5.5281,-5.5262,-5.5216,-5.5189,-5.517,-5.4985,-5.4909,-5.4865,-5.4046,-5.3709,-5.3677,-5.3097,-5.2908,-5.2939,-5.2767,-5.2324,-5.1795,-5.1622,-5.1192,-5.0712,-5.0712,-5.0712,-5.0712,-5.0712,-5.0577,-5.0289,-4.9606,-4.9144,-4.8567,-4.7259,-4.6759,-4.6451,-4.5768,-4.5594,-4.5594,-4.5594,-4.5594,-4.5594,-4.5594,-4.5594,-4.5594,-4.5594,-4.5594,-4.5594,-4.5594,-4.5441,-4.5325,-4.5325,-4.4586,-4.4047,-4.4047,-4.3316,-4.2816,-4.2816,-4.2643,-4.2547,-4.2547,-4.2547,-4.2547,-4.2547,-4.2547,-4.2547,-4.2547,-4.1873,-4.1527,-4.1527,-4.0835,-4.0512,-4.0534,-4.061,-4.0624,-4.0624,-4.0621,-4.1096,-4.1928,-4.1916,-4.2742,-4.4078,-4.431,-4.4835,-4.5488,-4.5725,-4.5821,-4.5848,-4.5911,-4.5983,-4.6056,-5.8088,-5.8088,-5.8133,-5.8227,-5.8249,-5.829,-5.8356,-5.8378,-5.8378,-5.8378,-5.8378,-5.84,-5.8443,-5.8489,-5.8556,-5.8642,-5.8354,-5.8005,-5.7576,-5.6756,-5.5956,-5.5174,-5.4727,-5.4354,-5.4072,-5.4413,-5.47,-5.4914,-5.4914,-5.4914,-5.4899,-5.4889,-5.4859,-5.4859,-5.475,-5.4765,-5.4821,-5.4322,-5.4172,-5.4296,-5.3905,-5.3815,-5.39,-5.3518,-5.3147,-5.269,-5.192,-5.119,-5.0572,-5.0572,-5.0603,-5.0643,-5.0643,-5.0663,-5.0616,-5.0144,-4.9721,-4.9202,-4.8336,-4.7509,-4.6797,-4.6336,-4.5913,-4.5594,-4.5594,-4.5594,-4.5594,-4.5594,-4.5594,-4.5594,-4.5594,-4.5594,-4.5594,-4.5594,-4.5594,-4.5594,-4.5594,-4.521,-4.4921,-4.4921,-4.4182,-4.3528,-4.3143,-4.3104,-4.3104,-4.3104,-4.3104,-4.3104,-4.3104,-4.3104,-4.3104,-4.3104,-4.2662,-4.2431,-4.2431,-4.197,-4.1739,-4.172,-4.0935,-4.0546,-4.0546,-4.0549,-4.1255,-4.2464,-4.2464,-4.3399,-4.4921,-4.4966,-4.5244,-4.5657,-4.5722,-4.5743,-4.5754,-4.5827,-4.5893,-4.5953,-5.7997,-5.7997,-5.7997,-5.7997,-5.7997,-5.7997,-5.7997,-5.7997,-5.7997,-5.7997,-5.7997,-5.8042,-5.8152,-5.8174,-5.8223,-5.8403,-5.8529,-5.8275,-5.7552,-5.7367,-5.67,-5.5365,-5.5032,-5.4588,-5.394,-5.3831,-5.4017,-5.4482,-5.4482,-5.4482,-5.4482,-5.4484,-5.4468,-5.4468,-5.4281,-5.4298,-5.4449,-5.4298,-5.4397,-5.4654,-5.4651,-5.4776,-5.4886,-5.422,-5.3914,-5.3682,-5.2342,-5.131,-5.0566,-5.0578,-5.0561,-5.0562,-5.0572,-5.0623,-5.0673,-5.0673,-5.0183,-4.9586,-4.9433,-4.8394,-4.7259,-4.6962,-4.6355,-4.5787,-4.5633,-4.5594,-4.5594,-4.5594,-4.5594,-4.5594,-4.5594,-4.5594,-4.5594,-4.5594,-4.5594,-4.5594,-4.5594,-4.5594,-4.5594,-4.5594,-4.496,-4.4259,-4.3585,-4.3528,-4.3528,-4.3528,-4.3528,-4.3528,-4.3528,-4.3528,-4.3528,-4.3528,-4.3374,-4.3316,-4.3316,-4.3162,-4.3104,-4.3085,-4.1623,-4.0939,-4.0939,-4.0939,-4.1797,-4.3316,-4.3316,-4.4182,-4.5594,-4.5594,-4.5594,-4.5614,-4.5657,-4.5693,-4.5701,-4.5762,-4.5836,-4.5893,-5.7997,-5.7997,-5.7997,-5.7997,-5.7997,-5.7997,-5.7997,-5.7997,-5.7997,-5.7997,-5.7997,-5.7997,-5.802,-5.802,-5.8042,-5.8065,-5.8088,-5.8033,-5.7923,-5.7261,-5.6783,-5.6581,-5.522,-5.4454,-5.4412,-5.3732,-5.3583,-5.398,-5.398,-5.398,-5.398,-5.3944,-5.3907,-5.3907,-5.3889,-5.3889,-5.3926,-5.3944,-5.398,-5.4035,-5.4087,-5.4226,-5.4397,-5.4301,-5.3987,-5.3618,-5.339,-5.2387,-5.1193,-5.1243,-5.0858,-5.0348,-5.0412,-5.0511,-5.0613,-5.0613,-5.0576,-5.0366,-4.9606,-4.9221,-4.8702,-4.7259,-4.6817,-4.6528,-4.5768,-4.5594,-4.5594,-4.5594,-4.5594,-4.5594,-4.5594,-4.5594,-4.5594,-4.5594,-4.5594,-4.5594,-4.5594,-4.5594,-4.5594,-4.5594,-4.5498,-4.5383,-4.5267,-4.5267,-4.5267,-4.5267,-4.5267,-4.5267,-4.5267,-4.5267,-4.5267,-4.5267,-4.4528,-4.4143,-4.4143,-4.3451,-4.3104,-4.3104,-4.2854,-4.2758,-4.2758,-4.2758,-4.3258,-4.4143,-4.4143,-4.4682,-4.5594,-4.5594,-4.5594,-4.5594,-4.5622,-4.5603,-4.5631,-4.5701,-4.5754,-4.5803,-5.7997,-5.7997,-5.7997,-5.7997,-5.7997,-5.7997,-5.7997,-5.7997,-5.7997,-5.7997,-5.7997,-5.7997,-5.7997,-5.7997,-5.7997,-5.7997,-5.7997,-5.7997,-5.7997,-5.7666,-5.7281,-5.6822,-5.5684,-5.4861,-5.4445,-5.3655,-5.3336,-5.3501,-5.3621,-5.3679,-5.3679,-5.3639,-5.362,-5.3638,-5.3561,-5.3561,-5.3638,-5.3582,-5.3622,-5.3757,-5.3758,-5.387,-5.4017,-5.4053,-5.3952,-5.3695,-5.3294,-5.2482,-5.1525,-5.1082,-5.0859,-5.0672,-5.0291,-5.0267,-5.0382,-5.0416,-5.0438,-5.0393,-5.005,-4.9601,-4.9065,-4.8404,-4.754,-4.6742,-4.6404,-4.5914,-4.554,-4.5586,-4.5594,-4.5594,-4.5594,-4.5594,-4.5594,-4.5594,-4.5594,-4.5594,-4.5594,-4.5594,-4.5594,-4.5594,-4.5594,-4.5594,-4.5594,-4.5594,-4.5594,-4.5594,-4.5594,-4.5594,-4.5594,-4.5594,-4.5594,-4.5594,-4.5229,-4.5037,-4.5037,-4.4662,-4.4489,-4.4489,-4.4489,-4.4008,-4.3104,-4.3104,-4.3547,-4.4297,-4.4297,-4.4778,-4.5594,-4.5594,-4.5594,-4.5594,-4.5594,-4.5594,-4.5594,-4.5631,-4.5665,-4.5629]},{"header":{"parameterUnit":"m.s-1","parameterCategory":1,"la1":30.6,"la2":28.766,"lo1":-90.7593,"lo2":-88.6598,"dy":0.0162,"dx":0.0183,"nx":116,"ny":114,"refTime":"2024-06-25T18:00:00:Z","depth":0,"parameterNumber":3,"parameterNumberName":"V-component_of_WINDS"},"data":[0.0,0.0,0.0,0.0,0.0,0.0,0.0,0.0,0.0,0.0,0.0,0.0,0.0,0.0,0.0,0.0,0.0,0.0,0.0,0.0,0.0,0.0,0.0,0.0,0.0,0.0,0.0,0.0,0.0,0.0,0.0,0.0,0.0,0.0,0.0,0.0,0.0,0.0,0.0,0.0,0.0,0.0,0.0,0.0,0.0,0.0,0.0,0.0,0.0,0.0,0.0,0.0,0.0,0.0,0.0,0.0,0.0,0.0,0.0,0.0,0.0,0.0,0.0,0.0,0.0,0.0,0.0,0.0,0.0,0.0,0.0,0.0,0.0,0.0,0.0,0.0,0.0,0.0,0.0,0.0,0.0,0.0,0.0,0.0,0.0,0.0,0.0,0.0,0.0,0.0,0.0,0.0,0.0,0.0,0.0,0.0,0.0,0.0,0.0,0.0,0.0,0.0,0.0,0.0,0.0,0.0,0.0,0.0,0.0,0.0,0.0,0.0,0.0,0.0,0.0,0.0,0.0,0.0,0.0,0.0,0.0,0.0,0.0,0.0,0.0,0.0,0.0,0.0,0.0,0.0,0.0,0.0,0.0,0.0,0.0,0.0,0.0,0.0,0.0,0.0,0.0,0.0,0.0,0.0,0.0,0.0,0.0,0.0,0.0,0.0,0.0,0.0,0.0,0.0,0.0,0.0,0.0,0.0,0.0,0.0,0.0,0.0,0.0,0.0,0.0,0.0,0.0,0.0,0.0,0.0,0.0,0.0,0.0,0.0,0.0,0.0,0.0,0.0,0.0,0.0,0.0,0.0,0.0,0.0,0.0,0.0,0.0,0.0,0.0,0.0,0.0,0.0,0.0,0.0,0.0,0.0,0.0,0.0,0.0,0.0,0.0,0.0,0.0,0.0,0.0,0.0,0.0,0.0,0.0,0.0,0.0,0.0,0.0,0.0,0.0,0.0,0.0,0.0,0.0,0.0,0.0,0.0,0.0,0.0,0.0,0.0,0.0,0.0,0.0,0.0,0.0,0.0,0.0,0.0,0.0,0.0,0.0,0.0,0.0,0.0,0.0,0.0,0.0,0.0,0.0,0.0,0.0,0.0,0.0,0.0,0.0,0.0,0.0,0.0,0.0,0.0,0.0,0.0,0.0,0.0,0.0,0.0,0.0,0.0,0.0,0.0,0.0,0.0,0.0,0.0,0.0,0.0,0.0,0.0,0.0,0.0,0.0,0.0,0.0,0.0,0.0,0.0,0.0,0.0,0.0,0.0,0.0,0.0,0.0,0.0,0.0,0.0,0.0,0.0,0.0,0.0,0.0,0.0,0.0,0.0,0.0,0.0,0.0,0.0,0.0,0.0,0.0,0.0,0.0,0.0,0.0,0.0,0.0,0.0,0.0,0.0,0.0,0.0,0.0,0.0,0.0,0.0,0.0,0.0,0.0,0.0,0.0,0.0,0.0,0.0,0.0,0.0,0.0,0.0,0.0,0.0,0.0,0.0,0.0,0.0,0.0,0.0,0.0,0.0,0.0,0.0,0.0,0.0,0.0,0.0,0.0,0.0,0.0,0.0,0.0,0.0,0.0,0.0,0.0,0.0,0.0,0.0,0.0,0.0,0.0,0.0,0.0,0.0,0.0,0.0,0.0,0.0,0.0,0.0,0.0,0.0,0.0,0.0,0.0,0.0,0.0,0.0,0.0,0.0,0.0,0.0,0.0,0.0,0.0,0.0,0.0,0.0,0.0,0.0,0.0,0.0,0.0,0.0,0.0,0.0,0.0,0.0,0.0,0.0,0.0,0.0,0.0,0.0,0.0,0.0,0.0,0.0,0.0,0.0,0.0,0.0,0.0,0.0,0.0,0.0,0.0,0.0,0.0,0.0,0.0,0.0,0.0,0.0,0.0,0.0,0.0,0.0,0.0,0.0,0.0,0.0,0.0,0.0,0.0,0.0,0.0,0.0,0.0,0.0,0.0,0.0,0.0,0.0,0.0,0.0,0.0,0.0,0.0,0.0,0.0,0.0,0.0,0.0,0.0,0.0,0.0,0.0,0.0,0.0,0.0,0.0,0.0,0.0,0.0,0.0,0.0,0.0,0.0,0.0,0.0,0.0,0.0,0.0,0.0,0.0,0.0,0.0,0.0,0.0,0.0,0.0,0.0,0.0,0.0,0.0,0.0,0.0,0.0,0.0,0.0,0.0,0.0,0.0,0.0,0.0,0.0,0.0,0.0,0.0,0.0,0.0,0.0,0.0,0.0,0.0,0.0,0.0,0.0,0.0,0.0,0.0,0.0,0.0,0.0,0.0,0.0,0.0,0.0,0.0,0.0,0.0,0.0,0.0,0.0,0.0,0.0,0.0,0.0,0.0,0.0,0.0,0.0,0.0,0.0,0.0,0.0,0.0,0.0,0.0,0.0,0.0,0.0,0.0,0.0,0.0,0.0,0.0,0.0,0.0,0.0,0.0,0.0,0.0,0.0,0.0,0.0,0.0,0.0,0.0,0.0,0.0,0.0,0.0,0.0,0.0,0.0,0.0,0.0,0.0,0.0,0.0,0.0,0.0,0.0,0.0,0.0,0.0,0.0,0.0,0.0,0.0,0.0,0.0,0.0,0.0,0.0,0.0,0.0,0.0,0.0,0.0,0.0,0.0,0.0,0.0,0.0,0.0,0.0,0.0,0.0,0.0,0.0,0.0,0.0,0.0,0.0,0.0,0.0,0.0,0.0,0.0,0.0,0.0,0.0,0.0,0.0,0.0,0.0,0.0,0.0,0.0,0.0,0.0,0.0,0.0,0.0,0.0,0.0,0.0,0.0,0.0,0.0,0.0,0.0,0.0,0.0,0.0,0.0,0.0,0.0,0.0,0.0,0.0,0.0,0.0,0.0,0.0,0.0,0.0,0.0,0.0,0.0,0.0,0.0,0.0,0.0,0.0,0.0,0.0,0.0,0.0,0.0,0.0,0.0,0.0,0.0,0.0,0.0,0.0,0.0,0.0,0.0,0.0,0.0,0.0,0.0,0.0,0.0,0.0,0.0,0.0,0.0,0.0,0.0,0.0,0.0,0.0,0.0,0.0,0.0,0.0,0.0,0.0,0.0,0.0,0.0,0.0,0.0,0.0,0.0,0.0,0.0,0.0,0.0,0.0,0.0,0.0,0.0,0.0,0.0,0.0,0.0,0.0,0.0,0.0,0.0,0.0,0.0,0.0,0.0,0.0,0.0,0.0,0.0,0.0,0.0,0.0,0.0,0.0,0.0,0.0,0.0,0.0,0.0,0.0,0.0,0.0,0.0,0.0,0.0,0.0,0.0,0.0,0.0,0.0,0.0,0.0,0.0,0.0,0.0,0.0,0.0,0.0,0.0,0.0,0.0,0.0,0.0,0.0,0.0,0.0,0.0,0.0,0.0,0.0,0.0,0.0,0.0,0.0,0.0,0.0,0.0,0.0,0.0,0.0,0.0,0.0,0.0,0.0,0.0,0.0,0.0,0.0,0.0,0.0,0.0,0.0,0.0,0.0,0.0,0.0,0.0,0.0,0.0,0.0,0.0,0.0,0.0,0.0,0.0,0.0,0.0,0.0,0.0,0.0,0.0,0.0,0.0,0.0,0.0,0.0,0.0,0.0,0.0,0.0,0.0,0.0,0.0,0.0,0.0,0.0,0.0,0.0,0.0,0.0,0.0,0.0,0.0,0.0,0.0,0.0,0.0,0.0,0.0,0.0,0.0,0.0,0.0,0.0,0.0,0.0,0.0,0.0,0.0,0.0,0.0,0.0,0.0,0.0,0.0,0.0,0.0,0.0,0.0,0.0,0.0,0.0,0.0,0.0,0.0,0.0,0.0,0.0,0.0,0.0,0.0,0.0,0.0,0.0,0.0,0.0,0.0,0.0,0.0,0.0,0.0,0.0,0.0,0.0,0.0,0.0,0.0,0.0,0.0,0.0,0.0,0.0,0.0,0.0,0.0,0.0,0.0,0.0,0.0,0.0,0.0,0.0,0.0,0.0,0.0,0.0,0.0,0.0,0.0,0.0,0.0,0.0,0.0,0.0,0.0,0.0,0.0,0.0,0.0,0.0,0.0,0.0,0.0,0.0,0.0,0.0,0.0,0.0,0.0,0.0,0.0,0.0,0.0,0.0,0.0,0.0,0.0,0.0,0.0,0.0,0.0,0.0,0.0,0.0,0.0,0.0,0.0,0.0,0.0,0.0,0.0,0.0,0.0,0.0,0.0,0.0,0.0,0.0,0.0,0.0,0.0,0.0,0.0,0.0,0.0,0.0,0.0,0.0,0.0,0.0,0.0,0.0,0.0,0.0,0.0,0.0,0.0,0.0,0.0,0.0,0.0,0.0,0.0,0.0,0.0,0.0,0.0,0.0,0.0,0.0,0.0,0.0,0.0,0.0,0.0,0.0,0.0,0.0,0.0,0.0,0.0,0.0,0.0,0.0,0.0,0.0,0.0,0.0,0.0,0.0,0.0,0.0,0.0,0.0,0.0,0.0,0.0,0.0,0.0,0.0,0.0,0.0,0.0,0.0,0.0,0.0,0.0,0.0,0.0,0.0,0.0,0.0,0.0,0.0,0.0,0.0,0.0,0.0,0.0,0.0,0.0,0.0,0.0,0.0,0.0,0.0,0.0,0.0,0.0,0.0,0.0,0.0,0.0,0.0,0.0,0.0,0.0,0.0,0.0,0.0,0.0,0.0,0.0,0.0,0.0,0.0,0.0,0.0,0.0,0.0,0.0,0.0,0.0,0.0,0.0,0.0,0.0,0.0,0.0,0.0,0.0,0.0,0.0,0.0,0.0,0.0,0.0,0.0,0.0,0.0,0.0,0.0,0.0,0.0,0.0,0.0,0.0,0.0,0.0,0.0,0.0,0.0,0.0,0.0,0.0,0.0,0.0,0.0,0.0,0.0,0.0,0.0,0.0,0.0,0.0,0.0,0.0,0.0,0.0,0.0,0.0,0.0,0.0,0.0,0.0,0.0,0.0,0.0,0.0,0.0,0.0,0.0,0.0,0.0,0.0,0.0,0.0,0.0,0.0,0.0,0.0,0.0,0.0,0.0,0.0,0.0,0.0,0.0,0.0,0.0,0.0,0.0,0.0,0.0,0.0,0.0,0.0,0.0,0.0,0.0,0.0,0.0,0.0,0.0,0.0,0.0,0.0,0.0,0.0,0.0,0.0,0.0,0.0,0.0,0.0,0.0,0.0,0.0,0.0,0.0,0.0,0.0,0.0,0.0,0.0,0.0,0.0,0.0,0.0,0.0,0.0,0.0,0.0,0.0,0.0,0.0,0.0,0.0,0.0,0.0,0.0,0.0,0.0,0.0,0.0,0.0,0.0,0.0,0.0,0.0,0.0,0.0,0.0,0.0,0.0,0.0,0.0,0.0,0.0,0.0,0.0,0.0,0.0,0.0,0.0,0.0,0.0,0.0,0.0,0.0,0.0,0.0,0.0,0.0,0.0,0.0,0.0,0.0,0.0,0.0,0.0,0.0,0.0,0.0,0.0,0.0,0.0,0.0,0.0,0.0,0.0,0.0,0.0,0.0,0.0,0.0,0.0,0.0,0.0,0.0,0.0,0.0,0.0,0.0,0.0,0.0,0.0,0.0,0.0,0.0,0.0,0.0,0.0,0.0,0.0,0.0,0.0,0.0,0.0,0.0,0.0,0.0,0.0,0.0,0.0,0.0,0.0,0.0,0.0,0.0,0.0,0.0,0.0,0.0,0.0,0.0,0.0,0.0,0.0,0.0,0.0,0.0,0.0,0.0,0.0,0.0,0.0,0.0,0.0,0.0,0.0,0.0,0.0,0.0,0.0,0.0,0.0,0.0,0.0,0.0,0.0,0.0,0.0,0.0,0.0,0.0,0.0,0.0,0.0,0.0,0.0,0.0,0.0,0.0,0.0,0.0,0.0,0.0,0.0,0.0,0.0,0.0,0.0,0.0,0.0,0.0,0.0,0.0,0.0,0.0,0.0,0.0,0.0,0.0,0.0,0.0,0.0,0.0,0.0,0.0,0.0,0.0,0.0,0.0,0.0,0.0,0.0,0.0,0.0,0.0,0.0,0.0,0.0,0.0,0.0,0.0,0.0,0.0,0.0,0.0,-1.2919,0.0,0.0,0.0,0.0,0.0,0.0,0.0,0.0,0.0,0.0,0.0,0.0,0.0,0.0,0.0,0.0,0.0,0.0,0.0,0.0,0.0,0.0,0.0,0.0,-0.3947,-0.4085,-0.4331,-0.4447,-0.4491,-0.4491,0.0,0.0,0.0,0.0,0.0,-0.4351,-0.4345,-0.4382,-0.4432,-0.4677,-0.4901,-0.5118,-0.4965,-0.4749,-0.4537,0.0,0.0,0.0,0.0,0.0,0.0,0.0,0.0,0.0,0.0,0.0,0.0,0.0,0.0,0.0,0.0,0.0,0.0,0.0,0.0,0.0,0.0,0.0,0.0,0.0,0.0,0.0,0.0,0.0,0.0,0.0,0.0,0.0,0.0,0.0,0.0,0.0,0.0,0.0,0.0,0.0,0.0,0.0,0.0,0.0,0.0,0.0,0.0,0.0,0.0,0.0,0.0,0.0,0.0,0.0,0.0,0.0,0.0,0.0,0.0,0.0,0.0,0.0,0.0,0.0,0.0,0.0,0.0,0.0,0.0,0.0,-1.3881,0.0,0.0,0.0,0.0,0.0,0.0,0.0,0.0,0.0,0.0,0.0,0.0,0.0,0.0,0.0,0.0,0.0,0.0,0.0,0.0,0.0,-0.3529,-0.3975,-0.4092,-0.4258,-0.4615,-0.4664,-0.4671,-0.4668,0.0,0.0,0.0,0.0,-0.4491,-0.4491,-0.4641,-0.4704,-0.4731,-0.5046,-0.542,-0.5742,-0.5742,-0.5559,0.0,-0.4962,0.0,0.0,0.0,0.0,0.0,0.0,0.0,0.0,0.0,0.0,0.0,0.0,0.0,0.0,0.0,0.0,0.0,0.0,0.0,0.0,0.0,0.0,0.0,0.0,0.0,0.0,0.0,0.0,0.0,0.0,0.0,0.0,0.0,0.0,0.0,0.0,0.0,0.0,0.0,0.0,0.0,0.0,0.0,0.0,0.0,0.0,0.0,0.0,0.0,0.0,0.0,0.0,0.0,0.0,0.0,0.0,0.0,0.0,0.0,0.0,0.0,0.0,0.0,-1.728,-1.7541,-1.7608,-1.805,-1.8222,-1.8129,-1.6473,-1.5478,-1.5003,-1.4326,0.0,0.0,0.0,0.0,0.0,0.0,0.0,0.0,0.0,0.0,0.0,0.0,0.0,0.0,0.0,0.0,0.0,0.0,0.0,-0.3715,-0.4136,-0.4441,-0.4778,-0.5237,-0.528,-0.5273,-0.5293,0.0,0.0,0.0,-0.4574,-0.4491,-0.4491,-0.4641,-0.4755,-0.4891,-0.5443,-0.5935,-0.6395,0.0,0.0,0.0,-0.5769,-0.5471,0.0,0.0,0.0,0.0,0.0,0.0,0.0,0.0,0.0,0.0,0.0,0.0,0.0,0.0,0.0,0.0,0.0,0.0,0.0,0.0,0.0,0.0,0.0,0.0,0.0,0.0,0.0,0.0,0.0,0.0,0.0,0.0,0.0,0.0,0.0,0.0,0.0,0.0,0.0,0.0,0.0,0.0,-1.0735,-1.0808,0.0,0.0,0.0,0.0,0.0,0.0,0.0,0.0,0.0,0.0,0.0,0.0,0.0,-1.6607,-1.7228,-1.7542,-1.7942,-1.8577,-1.8651,-1.8824,-1.9135,-1.9158,-1.9199,-1.9178,-1.8961,0.0,-1.7114,-1.6273,0.0,0.0,0.0,0.0,0.0,0.0,0.0,0.0,0.0,0.0,0.0,0.0,0.0,0.0,0.0,0.0,0.0,0.0,0.0,0.0,0.0,-0.4985,-0.5346,-0.5822,-0.5835,-0.5777,0.0,0.0,0.0,-0.4726,-0.4574,-0.4584,-0.478,-0.4998,-0.5384,-0.5975,-0.6329,-0.6697,0.0,0.0,0.0,0.0,-0.6776,-0.6443,0.0,0.0,0.0,0.0,0.0,0.0,0.0,0.0,0.0,0.0,0.0,0.0,0.0,0.0,0.0,0.0,0.0,0.0,0.0,0.0,0.0,0.0,0.0,0.0,0.0,0.0,0.0,0.0,0.0,0.0,0.0,0.0,0.0,0.0,0.0,0.0,0.0,0.0,0.0,0.0,0.0,-1.0828,-1.179,-1.1993,-1.2245,-1.2311,0.0,0.0,0.0,0.0,0.0,0.0,0.0,0.0,0.0,-1.7003,-1.7649,-1.8237,-1.8824,-1.8965,-1.9245,-1.9601,-1.9826,-1.9973,-2.0167,-2.0274,-2.0347,-2.0334,-2.0174,-1.9806,-1.9212,-1.7836,-1.6747,-1.5899,0.0,0.0,0.0,0.0,-1.5197,-1.5558,0.0,0.0,0.0,0.0,0.0,0.0,0.0,0.0,0.0,0.0,0.0,0.0,-0.5377,-0.5817,-0.6253,-0.6791,0.0,0.0,0.0,0.0,0.0,-0.5099,-0.4862,-0.4876,-0.5181,-0.5596,-0.6165,0.0,0.0,0.0,0.0,0.0,0.0,0.0,0.0,0.0,0.0,0.0,0.0,0.0,0.0,0.0,0.0,0.0,0.0,0.0,0.0,0.0,0.0,0.0,0.0,0.0,0.0,0.0,0.0,0.0,0.0,0.0,0.0,0.0,0.0,0.0,0.0,0.0,0.0,0.0,0.0,0.0,0.0,0.0,0.0,0.0,0.0,0.0,0.0,0.0,0.0,-1.1904,-1.2812,-1.33,-1.3581,-1.3681,0.0,0.0,0.0,0.0,0.0,0.0,-1.6039,-1.7114,-1.7956,-1.8422,-1.9065,-1.9579,-2.002,-2.01,-2.0241,-2.0461,-2.0681,-2.0788,-2.0795,-2.1009,-2.1109,-2.1096,-2.0882,-2.0742,-2.0561,-1.9098,-1.8056,-1.7355,-1.7068,-1.6907,-1.6834,-1.6754,-1.6914,-1.7148,0.0,0.0,0.0,0.0,0.0,0.0,0.0,0.0,0.0,0.0,0.0,-0.5401,0.0,0.0,0.0,0.0,0.0,0.0,0.0,0.0,0.0,-0.6134,-0.5619,-0.5452,-0.5675,-0.6503,0.0,0.0,0.0,0.0,0.0,0.0,0.0,0.0,0.0,0.0,0.0,0.0,0.0,0.0,0.0,0.0,0.0,0.0,0.0,0.0,0.0,0.0,0.0,0.0,0.0,0.0,0.0,0.0,0.0,0.0,0.0,0.0,0.0,0.0,0.0,0.0,0.0,0.0,0.0,0.0,0.0,0.0,0.0,0.0,0.0,0.0,0.0,0.0,0.0,0.0,0.0,0.0,0.0,-1.4794,-1.511,0.0,0.0,0.0,0.0,-1.5631,-1.6513,-1.7281,-1.7829,-1.8764,-1.9392,-1.97,-2.0281,-2.0601,-2.0635,-2.0909,-2.1049,-2.1062,-2.1082,-2.1089,-2.1089,-2.1102,-2.1109,-2.1109,-2.1096,-2.0935,-2.0628,-1.998,-1.9519,-1.9205,-1.8905,-1.8624,-1.8343,-1.8009,-1.8143,-1.8357,0.0,0.0,0.0,-0.2706,-0.2696,-0.2798,-0.3057,-0.3327,-0.3771,-0.4546,-0.5281,0.0,0.0,0.0,0.0,0.0,0.0,0.0,0.0,0.0,0.0,-0.622,-0.5932,-0.6015,-0.6542,-0.752,-0.7954,0.0,0.0,0.0,0.0,0.0,0.0,0.0,0.0,0.0,0.0,0.0,0.0,0.0,0.0,0.0,0.0,0.0,0.0,0.0,0.0,0.0,0.0,0.0,0.0,0.0,0.0,0.0,0.0,0.0,0.0,0.0,0.0,0.0,0.0,0.0,0.0,0.0,0.0,0.0,0.0,0.0,0.0,0.0,0.0,0.0,0.0,0.0,0.0,0.0,0.0,0.0,0.0,-1.5999,-1.6395,0.0,-1.6576,-1.6693,-1.6921,-1.7215,-1.807,-1.8751,-1.9152,-1.9833,-2.0261,-2.0361,-2.0748,-2.0955,-2.0955,-2.1056,-2.1109,-2.1109,-2.1109,-2.1109,-2.1109,-2.1109,-2.1109,-2.1109,-2.1109,-2.1049,-2.0942,-2.0728,-2.0361,-1.9913,-1.9806,-1.97,-1.9599,-1.9434,-1.9461,-1.9566,-0.2696,-0.2696,0.0,-0.2696,-0.2696,-0.2798,-0.3057,-0.3457,-0.4038,-0.4865,-0.5835,0.0,0.0,0.0,0.0,0.0,0.0,0.0,0.0,0.0,-0.7495,-0.6849,-0.6735,-0.6972,-0.7526,-0.8261,0.0,0.0,0.0,0.0,0.0,0.0,0.0,0.0,0.0,0.0,0.0,0.0,0.0,0.0,0.0,0.0,-0.5808,0.0,0.0,0.0,0.0,0.0,0.0,0.0,0.0,0.0,0.0,0.0,0.0,0.0,0.0,0.0,0.0,0.0,0.0,0.0,0.0,0.0,0.0,0.0,0.0,0.0,0.0,0.0,0.0,0.0,0.0,0.0,0.0,0.0,0.0,0.0,-1.6533,-1.7228,-1.7655,-1.795,-1.795,-1.8163,-1.841,-1.8604,-1.9359,-1.9893,-2.0087,-2.0561,-2.0822,-2.0822,-2.1109,-2.1256,-2.1256,-2.1356,-2.1356,-2.1256,-2.1256,-2.1203,-2.1109,-2.1109,-2.1109,-2.1109,-2.1109,-2.1109,-2.1109,-2.1109,-2.0875,-2.0528,-2.0528,-2.0528,-2.0514,-2.0414,-2.0381,-2.0327,-0.2696,-0.2696,-0.2696,-0.2696,-0.2696,-0.2798,-0.3057,-0.3618,-0.428,-0.5015,-0.6464,0.0,0.0,0.0,0.0,0.0,0.0,0.0,0.0,-0.9451,-0.8623,-0.802,-0.8072,-0.826,-0.859,0.0,0.0,0.0,0.0,0.0,0.0,0.0,0.0,0.0,0.0,0.0,0.0,0.0,0.0,0.0,0.0,0.0,-0.6286,0.0,0.0,0.0,0.0,0.0,0.0,0.0,0.0,0.0,0.0,0.0,0.0,0.0,0.0,0.0,0.0,0.0,0.0,0.0,0.0,0.0,0.0,0.0,0.0,0.0,0.0,0.0,0.0,0.0,0.0,0.0,0.0,0.0,-1.5398,-1.6509,-1.7581,-1.8417,-1.9038,-1.9392,-1.9392,-1.9659,-1.9826,-1.9826,-2.0361,-2.0688,-2.0688,-2.0962,-2.1122,-2.1122,-2.141,-2.1635,-2.1635,-2.1844,-2.1844,-2.1635,-2.1621,-2.1403,-2.1122,-2.1109,-2.1109,-2.1109,-2.1109,-2.1109,-2.1109,-2.1109,-2.1109,-2.1109,-2.1109,-2.1109,-2.1076,-2.0795,-2.0681,-2.0595,-0.2696,-0.2696,-0.2696,-0.2696,-0.2696,-0.2798,-0.3057,-0.3691,-0.4412,-0.5145,0.0,0.0,0.0,0.0,0.0,0.0,0.0,0.0,0.0,0.0,-0.8321,-0.8002,-0.8295,0.0,0.0,0.0,0.0,0.0,0.0,0.0,0.0,0.0,0.0,0.0,0.0,0.0,0.0,0.0,0.0,0.0,0.0,0.0,-0.6722,0.0,0.0,0.0,0.0,0.0,0.0,0.0,0.0,0.0,0.0,0.0,0.0,0.0,0.0,0.0,0.0,0.0,0.0,0.0,0.0,0.0,0.0,0.0,0.0,0.0,0.0,0.0,0.0,0.0,0.0,0.0,-1.545,-1.6253,-1.6333,-1.7555,-1.8604,-1.9072,-1.9639,-1.9993,-1.9993,-2.0261,-2.0434,-2.0434,-2.0782,-2.0989,-2.0989,-2.1269,-2.143,-2.143,-2.1717,-2.1864,-2.1864,-2.1944,-2.1944,-2.1864,-2.1722,-2.1574,-2.1423,-2.1209,-2.1109,-2.1109,-2.1109,-2.1109,-2.1109,-2.1109,-2.1109,-2.1109,-2.1109,-2.1109,-2.1096,-2.1022,-2.0855,-2.0655,-0.2696,-0.2696,-0.2696,-0.2696,-0.2751,-0.2856,-0.3067,-0.3848,-0.4621,-0.5231,0.0,0.0,0.0,0.0,0.0,0.0,0.0,0.0,-0.966,-0.8771,-0.8314,0.0,0.0,0.0,0.0,0.0,0.0,0.0,0.0,0.0,0.0,0.0,0.0,0.0,0.0,0.0,0.0,0.0,0.0,0.0,0.0,0.0,-0.7193,-0.7037,-0.6647,-0.6179,-0.6179,-0.5989,-0.5785,-0.5803,0.0,0.0,0.0,0.0,0.0,0.0,0.0,0.0,0.0,0.0,0.0,0.0,0.0,0.0,0.0,0.0,0.0,0.0,0.0,0.0,0.0,0.0,0.0,0.0,-1.668,-1.7542,-1.7782,-1.8671,-1.9446,-1.9867,-2.0321,-2.0601,-2.0601,-2.0755,-2.0855,-2.0855,-2.1015,-2.1162,-2.1289,-2.1463,-2.1675,-2.173,-2.2017,-2.2164,-2.2164,-2.2291,-2.2291,-2.2164,-2.1997,-2.179,-2.1608,-2.1376,-2.1229,-2.1109,-2.1109,-2.1109,-2.1109,-2.1109,-2.1109,0.0,0.0,0.0,0.0,0.0,-2.1002,-2.0842,-0.2696,-0.2696,-0.2696,-0.2696,-0.2808,-0.2939,-0.3081,-0.3981,-0.4788,-0.522,0.0,0.0,0.0,0.0,0.0,0.0,0.0,0.0,0.0,0.0,0.0,0.0,0.0,0.0,0.0,0.0,0.0,0.0,0.0,0.0,0.0,0.0,0.0,0.0,0.0,0.0,0.0,0.0,0.0,0.0,0.0,0.0,-0.7607,-0.7472,-0.7153,-0.6776,-0.6776,-0.6586,-0.6393,-0.6478,0.0,0.0,0.0,0.0,0.0,0.0,0.0,0.0,0.0,0.0,0.0,0.0,0.0,0.0,0.0,0.0,0.0,0.0,0.0,0.0,0.0,0.0,0.0,0.0,-1.7856,-1.8804,-1.9491,-1.9733,-2.0094,-2.0615,-2.0935,-2.1109,-2.1109,-2.1109,-2.1109,-2.1109,-2.1142,-2.1276,-2.1601,0.0,0.0,0.0,0.0,-2.2472,-2.2472,-2.2732,-2.2732,-2.2465,-2.2432,-2.2151,-2.1715,-2.1648,-2.141,-2.1156,-2.1122,-2.1109,-2.1109,-2.1109,-2.1109,-2.1109,-2.1109,-2.1109,-2.1109,-2.1109,-2.1109,-2.1076,-0.2696,-0.2696,-0.2696,-0.2696,-0.2808,-0.2939,-0.3081,-0.3776,-0.4507,-0.5065,-0.6245,0.0,0.0,0.0,0.0,0.0,0.0,0.0,0.0,0.0,0.0,0.0,0.0,0.0,0.0,0.0,0.0,0.0,0.0,0.0,0.0,0.0,0.0,0.0,0.0,0.0,0.0,0.0,0.0,0.0,0.0,0.0,-0.7767,-0.7736,-0.7522,-0.7286,-0.7286,-0.7051,-0.6835,-0.7215,-0.7255,-0.7219,-0.7722,0.0,0.0,0.0,0.0,0.0,0.0,0.0,0.0,0.0,0.0,0.0,0.0,0.0,0.0,0.0,0.0,0.0,0.0,0.0,0.0,-1.7943,-1.8738,-1.9486,-2.0307,-2.0474,-2.0548,-2.0661,-2.0935,-2.1109,-2.1109,-2.1109,-2.1109,-2.1109,-2.1329,-2.1561,-2.1614,-2.1997,-2.2278,-2.2331,-2.2625,-2.2779,-2.2779,-2.2901,-2.2901,-2.2772,0.0,0.0,-2.2231,-2.1829,-2.1588,-2.1521,-2.1216,-2.1109,-2.1109,-2.1109,-2.1109,-2.1109,-2.1109,-2.1109,-2.1109,-2.1109,-2.1109,-2.1102,-0.2696,-0.2696,-0.2696,-0.2696,-0.2866,-0.302,-0.3091,-0.3779,-0.4457,-0.4947,-0.5906,0.0,0.0,0.0,0.0,0.0,0.0,0.0,0.0,0.0,0.0,0.0,0.0,0.0,0.0,0.0,0.0,0.0,0.0,0.0,0.0,0.0,0.0,0.0,0.0,0.0,0.0,0.0,0.0,0.0,0.0,0.0,-0.7877,-0.7877,-0.7787,-0.7584,-0.7512,-0.743,-0.7353,-0.7668,-0.7774,-0.793,-0.8492,-0.8604,-0.8577,0.0,0.0,0.0,0.0,0.0,0.0,0.0,0.0,0.0,0.0,0.0,0.0,0.0,0.0,-1.5137,-1.5732,0.0,-1.7889,-1.8784,-1.9546,-2.0174,-2.0615,-2.0802,-2.0895,-2.0895,-2.1022,-2.1109,-2.1109,-2.1109,-2.1169,-2.1323,-2.1534,-2.1742,-2.1971,-2.2258,-2.2485,-2.2639,-2.2786,-2.2928,-2.2928,-2.2928,-2.2928,-2.2928,-2.2712,-2.2565,-2.2405,-2.2118,-2.1824,-2.1608,-2.1396,-2.1249,-2.1109,-2.1109,-2.1109,-2.1109,-2.1109,-2.1109,-2.1109,-2.1109,-2.1109,-2.1109,-0.2696,-0.2723,-0.274,-0.274,-0.2944,-0.3111,-0.3141,-0.3778,-0.4388,-0.4731,-0.5474,-0.6013,-0.6132,-0.6649,-0.687,0.0,0.0,0.0,0.0,0.0,0.0,0.0,0.0,0.0,0.0,0.0,0.0,0.0,0.0,0.0,0.0,0.0,0.0,0.0,0.0,0.0,0.0,0.0,0.0,0.0,0.0,0.0,-0.7988,-0.7988,-0.7914,-0.7838,-0.7692,-0.7679,-0.7752,-0.7912,-0.8142,-0.8483,-0.8958,-0.9009,-0.9009,-0.9341,-0.9357,0.0,0.0,0.0,0.0,0.0,0.0,0.0,0.0,0.0,-1.4663,-1.4897,-1.5598,-1.642,-1.6954,-1.7936,-1.8851,-1.9439,-2.018,-2.0695,-2.0755,-2.0962,-2.1109,-2.1109,-2.1109,-2.1109,-2.1109,-2.1109,-2.1229,-2.1594,-2.1668,-2.1864,-2.2392,-2.2472,-2.2612,-2.2921,-2.2928,-2.2928,-2.2928,-2.2928,-2.2928,-2.2928,-2.2928,-2.2739,-2.2505,-2.2445,-2.2131,-2.1695,-2.1581,-2.1329,-2.1109,-2.1109,-2.1109,-2.1109,-2.1109,-2.1109,-2.1109,-2.1109,-2.1109,-2.1109,-0.2696,-0.2791,-0.2883,-0.2883,-0.2996,-0.3148,-0.3262,-0.3562,-0.389,-0.4237,-0.4576,-0.4917,-0.5199,-0.5427,-0.5583,-0.5697,0.0,0.0,0.0,0.0,0.0,0.0,0.0,0.0,0.0,0.0,0.0,0.0,0.0,0.0,0.0,0.0,0.0,0.0,0.0,0.0,0.0,0.0,0.0,0.0,0.0,0.0,-0.7988,-0.7988,-0.7978,-0.7944,-0.7841,-0.7835,-0.7916,-0.804,-0.841,-0.8891,-0.9333,-0.9574,-0.9782,-0.997,0.0,-1.0373,-1.0593,-1.144,-1.2484,-1.3352,-1.3999,-1.4542,0.0,0.0,-1.642,-1.6453,-1.7123,-1.7849,-1.823,-1.8824,-1.9459,-2.004,-2.0441,-2.0768,-2.1029,-2.1089,-2.1109,-2.1109,-2.1109,-2.1109,-2.1109,-2.1109,-2.1229,-2.1594,-2.179,-2.2078,-2.2398,-2.2672,-2.2826,-2.2928,-2.2928,-2.2928,-2.2928,-2.2928,-2.2928,-2.2928,-2.2928,-2.2914,-2.2806,-2.2539,-2.2245,-2.1911,-2.1383,-2.1136,-2.1109,-2.1109,-2.1109,-2.1109,-2.1109,-2.1109,-2.1109,-2.1109,-2.1109,-2.1109,-0.2696,-0.2805,-0.2919,-0.3,-0.3158,-0.3276,-0.3296,-0.3537,-0.3798,-0.4055,-0.4312,-0.4551,-0.4722,-0.4858,-0.5091,-0.5461,-0.5612,0.0,0.0,0.0,0.0,0.0,0.0,0.0,0.0,0.0,0.0,0.0,0.0,0.0,0.0,0.0,0.0,0.0,0.0,0.0,0.0,0.0,0.0,0.0,0.0,0.0,-0.7978,-0.7891,-0.7855,-0.7763,-0.7611,-0.7689,0.0,0.0,-0.8099,-0.8657,-0.8952,-0.9114,-0.9328,-1.0021,-1.0301,0.0,-1.1756,-1.3018,-1.4101,0.0,-1.5279,-1.6002,-1.6567,-1.7088,-1.7535,-1.7709,-1.8176,-1.8597,-1.8724,-1.9359,-1.9953,0.0,-2.0621,-2.0969,-2.1089,-2.1109,-2.1109,-2.1109,-2.1109,-2.1109,-2.1109,-2.1109,-2.1303,-2.177,-2.1917,-2.2191,-2.2652,-2.2792,-2.2928,-2.2928,-2.2928,-2.2928,-2.2928,-2.2928,-2.2928,-2.2928,-2.2928,-2.2928,-2.2928,-2.2732,-2.2425,-2.1951,-2.1363,-2.1109,-2.1109,-2.1109,-2.1109,-2.1109,-2.1109,-2.1109,-2.1109,-2.1109,-2.1109,-2.1109,-0.2751,-0.2866,-0.2993,-0.3138,-0.3331,-0.3436,-0.3391,-0.3543,-0.3734,-0.3915,-0.4142,-0.4339,-0.4492,-0.4589,-0.4798,-0.5162,-0.5275,-0.5587,0.0,0.0,0.0,0.0,0.0,0.0,0.0,0.0,0.0,0.0,0.0,0.0,0.0,0.0,0.0,0.0,0.0,0.0,0.0,0.0,0.0,0.0,0.0,0.0,-0.7911,-0.7811,-0.7638,-0.7455,-0.7302,-0.7418,0.0,0.0,-0.7595,-0.8129,-0.8301,-0.8418,-0.8658,-0.9641,-1.0395,-1.131,-1.3088,0.0,0.0,-1.5905,-1.654,-1.7208,-1.7716,-1.807,-1.8295,-1.8564,-1.8778,-1.8951,-1.9032,-1.9566,-2.0047,-2.0207,-2.0655,-2.1022,-2.1096,-2.1109,-2.1109,-2.1109,-2.1109,-2.1109,-2.1109,-2.1109,-2.1323,-2.1824,-2.1937,-2.2205,-2.2712,-2.2819,-2.2928,-2.2928,-2.2928,-2.2928,-2.2928,-2.2928,-2.2928,-2.2928,-2.2928,-2.2928,-2.2921,-2.276,-2.2385,-2.1951,-2.1363,-2.1109,-2.1109,-2.1109,-2.1109,-2.1109,-2.1109,-2.1109,-2.1109,-2.1109,-2.1109,-2.1109,-0.2873,-0.2996,-0.3141,-0.3276,-0.347,-0.3593,-0.3593,-0.36,-0.3655,-0.3795,-0.3924,-0.4131,-0.445,-0.4515,-0.4552,-0.4713,-0.4962,-0.5325,-0.5786,-0.6369,0.0,0.0,0.0,0.0,0.0,0.0,0.0,0.0,0.0,0.0,0.0,0.0,0.0,0.0,0.0,0.0,0.0,0.0,0.0,0.0,0.0,0.0,-0.7801,-0.7658,-0.7417,-0.7092,-0.695,0.0,0.0,0.0,-0.6957,-0.7366,-0.7502,-0.7713,0.0,-0.8801,-1.0641,0.0,0.0,0.0,-1.6454,-1.7323,-1.7762,-1.8029,-1.8397,-1.8691,-1.8898,-1.8911,-1.8918,-1.9011,-1.9299,-1.943,-1.9579,-2.014,-2.0494,-2.0788,-2.1069,-2.1109,-2.1109,-2.1109,-2.1109,-2.1109,0.0,-2.1109,-2.1236,-2.1608,-2.1824,-2.2118,-2.2412,-2.2706,-2.2928,-2.2928,-2.2928,-2.2928,-2.2928,-2.2928,-2.2928,-2.2928,-2.2928,-2.2928,-2.2914,-2.2271,-2.2004,-2.1951,-2.1363,-2.1109,-2.1109,-2.1109,-2.1109,-2.1109,-2.1109,-2.1109,-2.1109,-2.1109,-2.1109,-2.1109,-0.2879,-0.3003,-0.3148,-0.3283,-0.3455,-0.3604,-0.3604,-0.3604,-0.3655,-0.3771,-0.3987,0.0,0.0,0.0,0.0,0.0,-0.4782,-0.5074,-0.5627,-0.5939,0.0,0.0,0.0,0.0,0.0,0.0,0.0,0.0,0.0,0.0,0.0,0.0,0.0,0.0,0.0,0.0,0.0,0.0,0.0,0.0,0.0,0.0,-0.7502,-0.7353,-0.7044,-0.6664,0.0,0.0,0.0,0.0,0.0,0.0,-0.7109,0.0,0.0,-1.0079,-1.2013,-1.3844,-1.5311,0.0,-1.7029,-1.7722,-1.825,-1.8651,-1.8751,-1.8858,-1.8925,-1.8925,-1.8771,-1.8671,-1.8771,-1.9105,-1.9432,-1.9626,-2.0234,-2.0708,-2.0808,-2.0989,-2.1109,-2.1109,-2.1109,0.0,-2.1109,0.0,0.0,-2.1594,-2.1824,-2.2111,-2.2405,-2.2699,-2.2928,-2.2928,-2.2928,-2.2928,-2.2928,-2.2928,-2.2928,-2.2928,-2.2928,-2.2928,-2.2914,-2.2251,-2.1984,-2.1951,-2.1363,-2.1109,-2.1109,-2.1109,-2.1109,-2.1109,-2.1109,-2.1109,-2.1109,-2.1109,-2.1109,-2.1109,-0.2936,-0.3084,-0.3229,-0.3384,-0.3514,0.0,0.0,0.0,0.0,0.0,0.0,0.0,0.0,0.0,0.0,0.0,0.0,-0.4877,-0.5321,0.0,0.0,0.0,0.0,0.0,0.0,0.0,0.0,0.0,0.0,0.0,0.0,0.0,0.0,0.0,0.0,0.0,0.0,0.0,0.0,0.0,0.0,0.0,-0.7258,-0.7,-0.6692,0.0,0.0,0.0,0.0,0.0,0.0,0.0,0.0,0.0,0.0,-1.1242,-1.2872,-1.4356,-1.5852,-1.6857,-1.762,-1.818,-1.8711,-1.9052,-1.8951,-1.8925,-1.8865,-1.8644,-1.837,-1.817,-1.817,-1.8477,-1.8838,-1.9158,-1.986,-2.0434,-2.0648,-2.0922,-2.1109,-2.1109,-2.1109,-2.1109,0.0,0.0,0.0,-2.1383,-2.1764,-2.2071,-2.2251,-2.2645,-2.2928,-2.2928,-2.2928,-2.2928,-2.2928,-2.2928,-2.2928,-2.2928,-2.2928,-2.2928,-2.2914,-2.2251,-2.1984,-2.1951,-2.1363,-2.1109,-2.1109,-2.1109,-2.1109,-2.1109,-2.1109,-2.1109,-2.1109,-2.1109,-2.1109,-2.1109,-0.3084,-0.3209,-0.3377,0.0,0.0,0.0,0.0,0.0,0.0,0.0,0.0,0.0,0.0,0.0,0.0,0.0,0.0,0.0,0.0,0.0,0.0,0.0,0.0,0.0,0.0,-0.6906,0.0,0.0,0.0,0.0,0.0,0.0,0.0,0.0,0.0,0.0,0.0,0.0,0.0,0.0,0.0,0.0,-0.7004,-0.6614,0.0,0.0,0.0,0.0,0.0,0.0,0.0,0.0,0.0,0.0,0.0,-1.2124,-1.3363,-1.4505,-1.6355,-1.7417,-1.8148,-1.8794,-1.9158,-1.9272,-1.8985,-1.8885,-1.8691,-1.809,-1.7729,-1.7515,-1.7515,0.0,-1.7849,-1.8738,-1.9399,-2.0,-2.0575,-2.0915,-2.1109,0.0,0.0,0.0,0.0,0.0,0.0,-2.1156,0.0,-2.1991,-2.2004,-2.2552,-2.2928,-2.2928,-2.2928,-2.2928,-2.2928,-2.2928,-2.2928,-2.2928,-2.2928,-2.2928,-2.2914,-2.2251,-2.1984,-2.1951,-2.1363,-2.1109,-2.1109,-2.1109,-2.1109,-2.1109,-2.1109,-2.1109,-2.1109,-2.1109,-2.1109,-2.1109,0.0,0.0,0.0,0.0,0.0,0.0,0.0,0.0,0.0,0.0,0.0,0.0,0.0,0.0,0.0,0.0,0.0,0.0,0.0,0.0,0.0,0.0,0.0,0.0,0.0,0.0,0.0,0.0,0.0,0.0,0.0,0.0,0.0,0.0,0.0,0.0,0.0,0.0,0.0,0.0,0.0,0.0,-0.6461,0.0,0.0,0.0,0.0,0.0,0.0,0.0,0.0,0.0,0.0,0.0,-1.1806,0.0,0.0,-1.5777,-1.7284,-1.7815,-1.8202,-1.8998,-1.8951,-1.8713,-1.8881,-1.8404,-1.7816,-1.7501,-1.7018,-1.6607,-1.6607,-1.7018,0.0,-1.8109,-1.9132,0.0,-2.0294,-2.0782,0.0,-2.1109,0.0,-2.1436,-2.1436,-2.1637,0.0,0.0,-2.1904,-2.2078,-2.2298,-2.2659,-2.2928,-2.2928,-2.2928,-2.2928,-2.2928,-2.2928,-2.2928,-2.2928,-2.2928,-2.2928,-2.2914,-2.2251,-2.1984,-2.1951,-2.1363,-2.1109,-2.1109,-2.1109,-2.1109,-2.1109,-2.1109,-2.1109,-2.1109,-2.1109,-2.1109,-2.1109,0.0,0.0,0.0,0.0,0.0,0.0,0.0,0.0,0.0,0.0,0.0,0.0,0.0,0.0,0.0,0.0,0.0,0.0,0.0,0.0,0.0,0.0,0.0,0.0,0.0,0.0,0.0,0.0,0.0,0.0,0.0,0.0,0.0,0.0,0.0,0.0,0.0,0.0,0.0,0.0,0.0,0.0,0.0,0.0,0.0,0.0,0.0,0.0,0.0,0.0,0.0,-0.873,-1.0192,-1.1422,-1.2647,-1.4028,0.0,-1.6265,-1.7456,-1.8021,-1.8445,-1.8954,-1.8745,-1.837,-1.8164,-1.7613,-1.6891,-1.6365,-1.5868,0.0,-1.5524,-1.5985,0.0,0.0,0.0,0.0,-2.0154,-2.0742,-2.1156,0.0,-2.1521,0.0,-2.173,-2.1891,-2.2038,0.0,-2.2178,-2.2245,-2.2412,-2.2699,-2.2928,-2.2928,-2.2928,-2.2928,-2.2928,-2.2928,-2.2928,-2.2928,-2.2928,-2.2792,-2.2652,-2.2191,-2.1917,-2.177,0.0,-2.1109,-2.1109,-2.1109,-2.1109,-2.1109,-2.1109,-2.1109,-2.1109,-2.1109,-2.1109,-2.1109,0.0,0.0,0.0,0.0,0.0,0.0,0.0,0.0,0.0,-0.3992,0.0,0.0,0.0,0.0,0.0,0.0,0.0,0.0,0.0,0.0,0.0,0.0,0.0,0.0,0.0,0.0,0.0,0.0,0.0,0.0,0.0,0.0,0.0,0.0,0.0,0.0,0.0,0.0,0.0,0.0,0.0,0.0,0.0,0.0,0.0,0.0,0.0,0.0,0.0,0.0,-0.8207,-0.9313,-1.0839,-1.195,-1.2906,-1.4098,-1.5251,-1.6268,-1.7162,-1.7919,-1.8453,-1.8659,-1.8359,-1.7925,-1.7232,-1.6611,-1.5908,-1.5079,0.0,-1.4438,-1.4406,-1.4917,-1.5712,-1.6898,0.0,-1.9172,-1.9993,-2.0681,-2.1176,-2.1581,-2.1648,-2.1789,-2.2017,-2.2078,-2.2205,-2.2458,-2.2478,-2.2478,-2.2478,-2.2719,-2.2928,-2.2928,-2.2928,-2.2928,-2.2928,-2.2928,-2.2928,-2.2928,-2.2819,-2.2672,-2.2405,-2.2078,-2.179,-2.1601,-2.1236,-2.1109,-2.1109,-2.1109,-2.1109,-2.1109,-2.1109,-2.1109,-2.1109,-2.1109,-2.1109,-2.1109,0.0,0.0,0.0,0.0,0.0,0.0,0.0,-0.3056,-0.3141,-0.3335,-0.3601,-0.3749,0.0,0.0,0.0,0.0,0.0,0.0,0.0,0.0,0.0,0.0,0.0,0.0,0.0,0.0,0.0,0.0,0.0,0.0,0.0,0.0,0.0,0.0,0.0,0.0,0.0,0.0,0.0,0.0,0.0,0.0,0.0,0.0,0.0,0.0,0.0,0.0,0.0,0.0,-0.8434,-0.9538,-1.0654,-1.1765,-1.2945,-1.3991,-1.4916,-1.5745,-1.6664,-1.7038,-1.729,-1.7811,-1.728,-1.6551,-1.6556,-1.5724,0.0,0.0,-1.39,-1.3563,-1.3718,-1.4476,-1.539,-1.6321,0.0,0.0,0.0,0.0,-2.0949,0.0,0.0,0.0,0.0,0.0,0.0,0.0,0.0,-2.2786,-2.2786,-2.2901,-2.2928,-2.2928,-2.2928,-2.2928,-2.2928,-2.2928,-2.2928,-2.2928,-2.2612,-2.2472,-2.2398,-2.1871,-2.1661,-2.1601,-2.1236,0.0,-2.1109,-2.1109,-2.1109,-2.1109,-2.1109,-2.1109,-2.1109,-2.1109,-2.1109,-2.1109,0.0,0.0,0.0,0.0,0.0,0.0,0.0,-0.2271,-0.2249,-0.2213,-0.2317,-0.2661,-0.3309,-0.3273,-0.3133,0.0,0.0,0.0,0.0,0.0,0.0,0.0,0.0,0.0,0.0,0.0,0.0,0.0,0.0,0.0,0.0,0.0,0.0,0.0,0.0,0.0,0.0,0.0,0.0,0.0,0.0,0.0,0.0,0.0,0.0,0.0,0.0,0.0,0.0,0.0,-0.7789,-0.8783,-1.0168,-1.1291,-1.2262,-1.3128,-1.4036,-1.5002,-1.5678,-1.6167,-1.6553,-1.6834,-1.6322,-1.5646,-1.5249,0.0,0.0,0.0,-1.2382,-1.2152,-1.2725,0.0,0.0,0.0,0.0,0.0,0.0,0.0,0.0,0.0,0.0,0.0,0.0,0.0,0.0,0.0,0.0,-2.2928,-2.2928,-2.2928,-2.2928,-2.2928,-2.2928,-2.2928,-2.2928,-2.2928,-2.2786,-2.2632,-2.2485,-2.2258,-2.1957,-2.1742,-2.1534,-2.1309,-2.1169,0.0,-2.1109,-2.1109,-2.1109,-2.1109,-2.1109,-2.1109,-2.1109,-2.1109,-2.1109,-2.1109,0.0,0.0,0.0,0.0,0.0,0.0,0.0,-0.1469,-0.14,-0.1265,-0.1251,-0.1644,-0.2615,-0.2574,-0.2434,0.0,0.0,0.0,0.0,0.0,0.0,0.0,0.0,0.0,0.0,0.0,0.0,0.0,0.0,0.0,0.0,0.0,0.0,0.0,0.0,0.0,0.0,0.0,0.0,0.0,0.0,0.0,0.0,0.0,0.0,0.0,0.0,0.0,0.0,0.0,-0.6954,-0.78,-0.9263,-1.0357,-1.1251,-1.1947,-1.2866,-1.3819,-1.4438,-1.503,-1.5524,-1.5671,-1.5295,-1.4702,-1.3841,-1.2881,0.0,0.0,-1.0904,-1.0869,-1.1689,0.0,0.0,0.0,0.0,0.0,0.0,0.0,0.0,0.0,0.0,0.0,0.0,0.0,0.0,0.0,0.0,0.0,-2.2928,-2.2928,-2.2928,-2.2928,-2.2928,-2.2901,-2.2766,-2.2766,-2.2619,-2.2325,-2.2265,-2.1991,-2.1614,-2.1554,-2.1329,-2.1109,-2.1109,0.0,0.0,-2.1109,-2.1109,-2.1109,-2.1109,-2.1109,-2.1109,-2.1109,-2.1109,-2.1109,0.0,0.0,0.0,0.0,0.0,0.0,0.0,-0.1069,-0.1053,-0.1022,-0.1083,-0.1155,-0.1185,-0.1337,-0.1392,0.0,0.0,0.0,0.0,0.0,0.0,0.0,0.0,0.0,0.0,0.0,0.0,0.0,0.0,0.0,0.0,0.0,0.0,0.0,0.0,0.0,0.0,0.0,0.0,0.0,0.0,0.0,0.0,0.0,0.0,0.0,0.0,0.0,0.0,0.0,0.0,-0.6774,-0.7567,-0.8747,-0.9918,-1.0695,0.0,0.0,-1.2961,-1.3273,-1.3507,-1.4276,-1.3907,-1.3237,-1.2678,0.0,0.0,-1.0489,-1.0189,-1.0161,-1.0785,-1.1891,-1.3004,0.0,0.0,0.0,0.0,0.0,0.0,0.0,0.0,0.0,0.0,0.0,0.0,0.0,0.0,0.0,-2.2928,-2.2928,-2.2928,-2.2928,-2.2928,-2.2732,-2.2465,-2.2458,-2.2311,-2.2024,-2.1757,-2.1668,-2.1608,-2.1269,-2.1136,-2.1109,-2.1109,0.0,0.0,-2.1109,-2.1109,-2.1109,-2.1109,-2.1109,-2.1109,-2.1109,-2.1109,-2.1109,0.0,0.0,0.0,0.0,0.0,0.0,-0.0583,-0.0523,-0.0499,-0.0418,-0.043,-0.043,-0.041,-0.0461,-0.0598,-0.0841,0.0,0.0,0.0,0.0,0.0,0.0,0.0,0.0,0.0,0.0,0.0,0.0,0.0,0.0,0.0,0.0,0.0,0.0,0.0,0.0,0.0,0.0,0.0,0.0,0.0,0.0,0.0,0.0,0.0,0.0,0.0,0.0,0.0,0.0,0.0,0.0,-0.677,-0.7431,0.0,0.0,-1.0163,-1.0713,-1.1658,-1.1887,-1.2064,-1.2789,-1.24,-1.177,-1.1377,0.0,-0.9557,-0.9191,-0.8906,-0.9026,-0.9868,-1.0892,-1.1979,0.0,-1.444,-1.5757,0.0,0.0,0.0,0.0,0.0,0.0,0.0,0.0,0.0,0.0,0.0,0.0,-2.2345,-2.2665,-2.2779,-2.2599,-2.2599,-2.2452,-2.2164,-2.2158,-2.2011,-2.1789,-2.1675,-2.1463,-2.1283,-2.1162,-2.1109,-2.1109,-2.1109,0.0,0.0,-2.1109,-2.1109,-2.1109,-2.1109,-2.1109,-2.1109,-2.1109,-2.1109,-2.1109,0.0,0.0,0.0,0.0,0.0,-0.0561,-0.0185,-0.0144,-0.0092,0.0,0.0,0.0,0.0,0.0,-0.0121,-0.0472,-0.0372,0.0,0.0,0.0,0.0,0.0,0.0,0.0,0.0,0.0,0.0,0.0,0.0,0.0,0.0,0.0,0.0,0.0,0.0,0.0,0.0,0.0,0.0,0.0,0.0,0.0,0.0,0.0,0.0,0.0,0.0,0.0,0.0,0.0,0.0,0.0,0.0,0.0,0.0,0.0,-0.9111,-0.9599,-1.0322,-1.059,-1.0759,-1.1373,-1.1015,-1.05,0.0,-0.9251,-0.8405,-0.7987,-0.7806,-0.804,-0.8948,-0.9958,-1.1086,0.0,-1.3655,-1.4884,-1.6146,0.0,0.0,0.0,0.0,0.0,0.0,0.0,0.0,0.0,0.0,0.0,-2.1997,-2.2378,-2.2505,-2.2298,-2.2291,-2.2151,-2.1857,-2.1857,-2.171,-2.1423,-2.1423,-2.1309,-2.1109,-2.1109,-2.1109,-2.1109,-2.1109,0.0,0.0,-2.1109,-2.1109,-2.1109,-2.1109,-2.1109,-2.1109,-2.1109,-2.1109,-2.1109,0.0,0.0,0.0,0.0,0.0,0.0,-0.0026,0.0,0.0,0.0,0.0,0.0,0.0,0.0,0.0,0.0,0.0,0.0,0.0,0.0,0.0,0.0,0.0,0.0,0.0,0.0,0.0,0.0,0.0,0.0,0.0,0.0,0.0,0.0,0.0,0.0,0.0,0.0,0.0,0.0,0.0,0.0,-0.6279,0.0,0.0,0.0,0.0,0.0,0.0,0.0,0.0,0.0,0.0,0.0,0.0,0.0,-0.8038,-0.845,-0.9065,-0.9319,-0.9512,-0.9992,-0.9791,-0.9402,0.0,-0.8348,-0.7629,-0.7021,-0.7081,-0.7422,-0.8082,-0.9186,-1.0373,-1.1529,-1.294,-1.4289,-1.5381,0.0,0.0,0.0,0.0,0.0,0.0,0.0,0.0,0.0,0.0,0.0,-2.1984,-2.1991,-2.1991,-2.1991,-2.1991,-2.185,-2.1628,-2.1621,-2.141,-2.1116,-2.1116,-2.1109,-2.1109,-2.1109,-2.1109,-2.1109,0.0,0.0,0.0,-2.1109,-2.1109,-2.1109,-2.1109,-2.1109,-2.1109,-2.1109,-2.1109,-2.1109,0.0,0.0,0.0,0.0,0.0,0.0,0.0,0.0,0.0,0.0,0.0,0.0,0.0,0.0,0.0,0.0,0.0,0.0,0.0,0.0,0.0,0.0,0.0,0.0,0.0,0.0,0.0,0.0,0.0,0.0,0.0,0.0,0.0,0.0,0.0,0.0,0.0,0.0,0.0,0.0,0.0,-0.5662,-0.5942,0.0,0.0,0.0,0.0,0.0,0.0,0.0,0.0,0.0,0.0,0.0,0.0,-0.6451,-0.7173,-0.7924,-0.8271,-0.8388,-0.8543,-0.9013,-0.8715,-0.8271,-0.823,-0.7495,-0.6772,-0.6613,-0.662,-0.6844,-0.7469,-0.8415,-0.9602,-1.1067,-1.2356,0.0,0.0,0.0,0.0,0.0,0.0,0.0,0.0,0.0,0.0,0.0,0.0,0.0,-2.1396,-2.1383,-2.1476,-2.1748,-2.1755,-2.1614,-2.1256,-2.1249,-2.1203,-2.1109,-2.1109,-2.1109,-2.1109,-2.1109,-2.1109,0.0,0.0,0.0,0.0,-2.1109,-2.1109,-2.1109,-2.1109,-2.1109,-2.1109,-2.1109,-2.1109,-2.1109,0.0,0.0,0.0,0.0,0.0,0.0,0.0,0.0,0.0,0.0,0.0,0.0,0.0,0.0,0.0,0.0,0.0,0.0,0.0,0.0,0.0,0.0,0.0,0.0,0.0,0.0,0.0,-0.0185,-0.07,0.0,0.0,0.0,0.0,0.0,0.0,0.0,0.0,0.0,0.0,0.0,-0.5164,-0.5495,-0.5796,0.0,0.0,0.0,0.0,0.0,0.0,0.0,0.0,0.0,0.0,0.0,0.0,0.0,-0.6407,-0.7085,0.0,-0.7567,-0.7723,-0.8011,-0.7748,-0.7411,-0.7368,-0.6802,-0.6227,-0.6122,-0.6197,-0.6412,-0.6877,-0.7779,-0.8954,-1.0472,-1.1869,0.0,0.0,0.0,0.0,0.0,0.0,0.0,0.0,0.0,0.0,0.0,0.0,0.0,-2.1122,-2.1109,-2.1196,-2.1376,-2.139,-2.1296,-2.1109,-2.1109,-2.1109,-2.1109,-2.1109,-2.1109,-2.1109,-2.1109,-2.1109,0.0,0.0,0.0,0.0,-2.1109,-2.1109,-2.1109,-2.1109,-2.1109,-2.1109,-2.1109,-2.1109,-2.1109,0.0,0.0,0.0,0.0,0.0,0.0,0.0,0.0,0.0,0.0,0.0,0.0,0.0,0.0,0.0,0.0,0.0,0.0,0.0,0.0,0.0,0.0,0.0,0.0,0.0,0.0,0.0,0.0,-0.0199,-0.0289,-0.0294,-0.0887,0.0,0.0,0.0,0.0,0.0,0.0,0.0,0.0,-0.5014,-0.5437,0.0,0.0,0.0,0.0,0.0,0.0,0.0,0.0,0.0,0.0,0.0,0.0,0.0,0.0,0.0,0.0,0.0,-0.6861,-0.7051,-0.7061,-0.6957,-0.682,-0.6566,-0.6227,0.0,-0.5647,-0.5849,-0.6133,-0.6341,-0.7311,-0.847,-0.9814,0.0,0.0,0.0,0.0,0.0,0.0,0.0,0.0,0.0,0.0,0.0,0.0,0.0,0.0,-2.1109,-2.1109,-2.1109,-2.1109,-2.1109,-2.1109,-2.1109,-2.1109,-2.1109,-2.1109,-2.1109,-2.1109,-2.1109,-2.1109,-2.1109,0.0,0.0,0.0,0.0,-2.1109,-2.1109,-2.1109,-2.1109,-2.1109,-2.1109,-2.1109,-2.1109,-2.1109,0.0,0.0,0.0,0.0,0.0,0.0,0.0,0.0,0.0,0.0,0.0,0.0,0.0,0.0,0.0,0.0,0.0,0.0,0.0,0.0,0.0,0.0,0.0,0.0,0.0,0.0,0.0,0.0,-0.0243,-0.0335,-0.0295,-0.0666,0.0,0.0,0.0,0.0,0.0,0.0,0.0,0.0,-0.4165,-0.4689,0.0,0.0,0.0,0.0,-0.5405,-0.5395,0.0,0.0,0.0,0.0,0.0,0.0,0.0,0.0,-0.5549,-0.5739,-0.5956,0.0,-0.6658,-0.6773,-0.6692,-0.6532,0.0,-0.6074,-0.5803,-0.5627,0.0,-0.595,-0.6129,-0.6931,-0.8023,-0.9354,0.0,0.0,0.0,0.0,0.0,0.0,0.0,0.0,0.0,0.0,0.0,0.0,0.0,-2.1109,-2.1109,-2.1109,-2.1109,-2.1109,-2.1109,-2.1109,-2.1109,-2.1109,-2.1109,-2.1109,-2.1109,-2.1109,-2.1109,-2.1109,-2.1109,0.0,0.0,0.0,-2.1109,-2.1109,-2.1109,-2.1109,-2.1109,-2.1109,-2.1109,-2.1109,-2.1109,-2.1109,0.0,0.0,0.0,0.0,0.0,0.0,0.0,0.0,0.0,0.0,0.0,0.0,0.0,0.0,0.0,0.0,0.0,0.0,0.0,0.0,0.0,0.0,0.0,0.0,0.0,0.0,0.0,0.0,0.0,-0.0213,0.0,0.0,0.0,0.0,0.0,0.0,0.0,0.0,0.0,-0.3186,-0.3589,0.0,0.0,0.0,0.0,0.0,-0.5182,-0.5199,0.0,-0.5254,-0.5337,-0.5395,0.0,0.0,0.0,0.0,-0.5453,-0.5566,-0.5742,-0.603,-0.6305,-0.6461,-0.6477,-0.6358,-0.6139,0.0,0.0,0.0,0.0,-0.588,-0.6138,-0.6813,0.0,0.0,0.0,0.0,0.0,0.0,0.0,0.0,0.0,0.0,0.0,0.0,0.0,0.0,0.0,-2.1109,-2.1109,-2.1109,-2.1109,-2.1109,-2.1109,-2.1109,-2.1109,-2.1109,-2.1109,-2.1109,-2.1109,-2.1109,-2.1109,-2.1109,-2.1109,0.0,0.0,0.0,-2.1109,-2.1109,-2.1109,-2.1109,-2.1109,-2.1109,-2.1109,-2.1109,-2.1109,-2.1109,0.0,0.0,0.0,0.0,0.0,0.0,0.0,0.0,0.0,0.0,0.0,0.0,0.0,0.0,0.0,0.0,0.0,0.0,0.0,0.0,0.0,0.0,0.0,0.0,0.0,0.0,0.0,0.0,0.0,0.0,0.0,0.0,-0.0468,0.0,0.0,0.0,0.0,0.0,0.0,-0.2586,-0.3086,0.0,0.0,0.0,0.0,0.0,0.0,0.0,0.0,-0.5093,-0.5216,-0.5361,-0.5388,0.0,0.0,0.0,0.0,0.0,-0.5688,-0.5895,-0.6033,-0.6286,-0.6351,-0.6286,-0.5942,0.0,0.0,0.0,0.0,0.0,0.0,0.0,0.0,0.0,0.0,0.0,0.0,0.0,0.0,0.0,0.0,0.0,0.0,0.0,0.0,0.0,0.0,-2.1109,-2.1109,-2.1109,-2.1109,-2.1109,-2.1109,-2.1109,-2.1109,-2.1109,-2.1109,-2.1109,-2.1109,-2.1109,-2.1109,-2.1109,-2.1109,-2.1109,0.0,0.0,-2.1109,-2.1109,-2.1109,-2.1109,-2.1109,-2.1109,-2.1109,-2.1109,-2.1109,-2.1102,0.0,0.0,0.0,0.0,0.0,0.0,0.0,0.0,0.0,0.0,0.0,0.0,0.0,0.0,0.0,0.0,0.0,0.0,0.0,0.0,0.0,0.0,0.0,0.0,0.0,0.0,0.0,0.0,0.0,0.0,0.0,-0.0043,-0.0162,-0.041,0.0,0.0,0.0,0.0,0.0,-0.1816,-0.222,0.0,0.0,0.0,0.0,0.0,0.0,0.0,0.0,-0.5059,-0.5113,-0.5189,-0.5354,0.0,0.0,0.0,0.0,0.0,-0.5538,-0.5823,-0.6057,-0.6373,-0.6536,-0.6556,-0.6296,0.0,0.0,0.0,0.0,0.0,0.0,0.0,0.0,0.0,0.0,0.0,0.0,0.0,0.0,0.0,0.0,0.0,0.0,0.0,0.0,0.0,0.0,-2.1109,-2.1109,-2.1109,-2.1109,-2.1109,-2.1109,-2.1109,-2.1109,-2.1109,-2.1109,-2.1109,-2.1109,-2.1109,-2.1109,-2.1109,-2.1109,-2.1109,0.0,-2.1109,-2.1109,-2.1109,-2.1109,-2.1109,-2.1109,-2.1109,-2.1109,-2.1109,-2.1109,-2.1076,0.0,0.0,0.0,0.0,0.0,0.0,0.0,0.0,0.0,0.0,0.0,0.0,0.0,0.0,0.0,0.0,0.0,0.0,0.0,0.0,0.0,0.0,0.0,0.0,0.0,0.0,0.0,0.0,0.0,0.0,0.0,-0.0129,-0.0202,-0.0297,0.0,0.0,0.0,0.0,-0.0841,-0.121,0.0,0.0,0.0,0.0,0.0,0.0,0.0,0.0,0.0,0.0,-0.4884,-0.4999,-0.5101,0.0,0.0,0.0,0.0,0.0,-0.5406,-0.5803,-0.6207,-0.646,-0.6586,-0.6644,-0.6463,0.0,0.0,0.0,0.0,0.0,0.0,0.0,0.0,0.0,0.0,0.0,0.0,0.0,0.0,0.0,0.0,0.0,0.0,0.0,0.0,0.0,0.0,0.0,-2.0862,-2.0982,-2.1109,-2.1109,-2.1109,-2.1109,-2.1109,-2.1109,-2.1109,-2.1109,-2.1109,-2.1109,-2.1109,-2.1109,-2.1109,-2.1109,0.0,-2.1109,-2.1109,-2.1109,-2.1109,-2.1109,-2.1109,-2.1109,-2.1089,-2.0935,-2.0775,-2.0595,0.0,0.0,0.0,0.0,0.0,0.0,0.0,0.0,0.0,0.0,0.0,0.0,0.0,0.0,0.0,0.0,0.0,0.0,0.0,0.0,0.0,0.0,0.0,0.0,0.0,0.0,0.0,0.0,0.0,0.0,0.0,-0.0169,-0.024,0.0,0.0,0.0,0.0,-0.0371,-0.0505,-0.0706,0.0,0.0,0.0,0.0,0.0,0.0,0.0,0.0,0.0,0.0,0.0,0.0,0.0,0.0,0.0,-0.4867,-0.4911,-0.507,-0.5257,-0.5757,-0.6242,-0.646,-0.6664,-0.6817,-0.6664,0.0,0.0,0.0,0.0,0.0,0.0,0.0,0.0,0.0,0.0,0.0,0.0,0.0,0.0,0.0,0.0,0.0,0.0,0.0,0.0,0.0,0.0,0.0,-2.0227,-2.0539,-2.0729,-2.0729,-2.0919,-2.0982,-2.0982,-2.1046,-2.1109,-2.1109,-2.1109,-2.1109,-2.1109,-2.1109,-2.1109,-2.1109,-2.1109,-2.1069,-2.1009,-2.1009,-2.0969,-2.0902,-2.0902,-2.0902,-2.0875,-2.0655,-2.0388,-2.01,0.0,0.0,0.0,0.0,0.0,0.0,0.0,0.0,0.0,0.0,0.0,0.0,0.0,0.0,0.0,0.0,0.0,0.0,0.0,0.0,0.0,0.0,0.0,0.0,0.0,0.0,0.0,0.0,0.0,0.0,0.0,0.0,-0.0038,-0.0036,0.0,0.0,0.0,0.0,-0.0169,-0.0336,-0.0491,0.0,0.0,0.0,0.0,0.0,0.0,0.0,0.0,0.0,0.0,0.0,0.0,0.0,-0.4707,-0.4707,-0.4714,-0.4785,-0.5039,-0.5484,-0.5939,-0.6405,-0.6945,0.0,-0.7085,-0.7322,0.0,0.0,0.0,0.0,0.0,0.0,0.0,0.0,0.0,0.0,0.0,0.0,0.0,0.0,0.0,0.0,0.0,0.0,0.0,0.0,0.0,0.0,-1.92,-1.952,-1.9705,-1.9705,-2.0284,-2.0609,-2.0609,-2.0919,-2.1109,-2.1109,-2.1109,-2.1109,-2.1109,-2.1109,-2.1109,-2.1109,-2.1109,-2.0955,-2.0708,-2.0708,-2.0548,-2.0233,-2.0233,-2.0233,-2.0233,-2.0213,-2.008,-1.9826,0.0,0.0,0.0,0.0,0.0,0.0,0.0,0.0,0.0,0.0,0.0,0.0,0.0,0.0,0.0,0.0,0.0,0.0,0.0,0.0,0.0,0.0,0.0,0.0,0.0,0.0,0.0,0.0,0.0,0.0,0.0,0.0,0.0,0.0,0.0,0.0,0.0,0.0,-0.0033,-0.0131,-0.0292,-0.0502,0.0,0.0,0.0,0.0,0.0,0.0,0.0,0.0,-0.3931,-0.4219,-0.4301,-0.4371,-0.4402,-0.4375,-0.4552,-0.4773,-0.5028,-0.5496,-0.6027,-0.6422,0.0,0.0,0.0,0.0,0.0,0.0,0.0,0.0,0.0,0.0,0.0,0.0,0.0,0.0,0.0,0.0,0.0,0.0,0.0,0.0,0.0,0.0,0.0,0.0,0.0,0.0,-1.7428,-1.7941,-1.8316,-1.8559,-1.8814,-1.9007,-1.92,-1.9386,-1.9442,-1.9442,-2.0375,-2.0717,-2.0523,-2.0345,-2.0198,-2.0006,-2.0006,-1.9941,-1.9843,-1.9843,-1.9907,-1.9944,-2.0113,-2.012,-1.996,-1.996,-1.978,-1.9533,0.0,0.0,0.0,0.0,0.0,0.0,0.0,0.0,0.0,0.0,0.0,0.0,0.0,0.0,0.0,0.0,0.0,0.0,0.0,0.0,0.0,0.0,0.0,0.0,0.0,0.0,0.0,0.0,0.0,0.0,0.0,0.0,0.0,0.0,0.0,0.0,0.0,0.0,0.0,0.0,-0.0158,-0.0245,0.0,0.0,0.0,0.0,0.0,0.0,0.0,0.0,-0.3469,-0.383,-0.3858,-0.3996,-0.4135,-0.4128,-0.4378,-0.4705,-0.5032,-0.551,-0.6051,0.0,0.0,0.0,0.0,0.0,0.0,0.0,0.0,0.0,0.0,0.0,0.0,0.0,0.0,0.0,0.0,0.0,0.0,0.0,0.0,0.0,0.0,0.0,0.0,0.0,0.0,0.0,0.0,-1.6094,-1.6533,-1.6775,-1.7207,-1.7514,-1.7772,-1.7962,-1.8085,-1.8085,-1.9049,-1.9581,-1.9609,-1.954,-1.9389,-1.9132,-1.9254,-1.9264,-1.9181,-1.9181,-1.9318,-1.9541,-1.984,-1.984,-1.9659,-1.9659,-1.9539,-1.9424,0.0,0.0,0.0,0.0,0.0,0.0,0.0,0.0,0.0,0.0,0.0,0.0,0.0,0.0,0.0,0.0,0.0,0.0,0.0,0.0,0.0,0.0,0.0,0.0,0.0,0.0,0.0,0.0,0.0,0.0,0.0,0.0,0.0,0.0,0.0,0.0,0.0,0.0,0.0,0.0,0.0,-0.0088,-0.0205,0.0,0.0,0.0,0.0,0.0,0.0,0.0,-0.2998,-0.3413,-0.3555,-0.3777,-0.3996,-0.3984,-0.4226,-0.4581,-0.4977,-0.5438,-0.5952,0.0,0.0,0.0,0.0,0.0,0.0,0.0,0.0,0.0,0.0,0.0,0.0,0.0,0.0,0.0,0.0,0.0,0.0,0.0,0.0,0.0,0.0,0.0,0.0,0.0,0.0,0.0,0.0,-1.4034,-1.4351,-1.4351,-1.5644,-1.6387,-1.6382,-1.7022,-1.7341,-1.7335,-1.7089,-1.7465,-1.8392,-1.8643,-1.8766,-1.8827,-1.9126,-1.9149,-1.8894,-1.8894,-1.8906,-1.8939,-1.9243,-1.9424,-1.9424,-1.9424,-1.9424,-1.9424,0.0,0.0,0.0,0.0,0.0,0.0,0.0,0.0,0.0,0.0,0.0,0.0,0.0,0.0,0.0,0.0,0.0,0.0,0.0,0.0,0.0,0.0,0.0,0.0,0.0,0.0,0.0,0.0,0.0,0.0,0.0,0.0,0.0,0.0,0.0,0.0,0.0,0.0,0.0,0.0,0.0,-0.0029,-0.0057,0.0,0.0,0.0,0.0,0.0,0.0,0.0,0.0,0.0,-0.28,-0.3128,-0.3498,-0.3458,-0.397,-0.4668,-0.5068,-0.564,0.0,0.0,0.0,0.0,0.0,0.0,0.0,0.0,0.0,0.0,0.0,0.0,0.0,0.0,0.0,0.0,0.0,0.0,0.0,0.0,0.0,0.0,0.0,0.0,0.0,0.0,0.0,0.0,0.0,-1.2338,-1.2643,-1.2825,-1.3247,-1.3546,-1.3793,-1.3975,-1.4101,-1.4096,-1.4219,-1.5269,-1.7072,-1.714,-1.7178,-1.7178,-1.7542,-1.7797,-1.7954,-1.8366,-1.855,-1.859,-1.9185,-1.9424,-1.9424,-1.9424,-1.9424,-1.9424,0.0,0.0,0.0,0.0,0.0,0.0,0.0,0.0,0.0,0.0,0.0,0.0,0.0,0.0,0.0,0.0,0.0,0.0,0.0,0.0,0.0,0.0,0.0,0.0,0.0,0.0,0.0,0.0,0.0,0.0,0.0,0.0,0.0,0.0,0.0,0.0,0.0,0.0,0.0,0.0,0.0,0.0,0.0,0.0,0.0,0.0,0.0,0.0,0.0,0.0,0.0,0.0,-0.2155,-0.2548,-0.3019,-0.3049,-0.3658,-0.4473,-0.5063,0.0,0.0,0.0,0.0,0.0,0.0,0.0,0.0,0.0,0.0,0.0,0.0,0.0,0.0,0.0,0.0,0.0,0.0,0.0,0.0,0.0,0.0,0.0,0.0,0.0,0.0,0.0,0.0,0.0,0.0,-1.1031,-1.1273,-1.145,-1.1696,-1.1937,-1.2118,-1.2298,-1.2359,-1.2359,-1.2659,-1.35,-1.4816,-1.5466,-1.5822,-1.6005,-1.6543,-1.6897,-1.7126,-1.7649,-1.7948,-1.8064,-1.8596,-1.8946,-1.9185,-1.9185,-1.9301,-1.9424,0.0,0.0,0.0,0.0,0.0,0.0,0.0,0.0,0.0,0.0,0.0,0.0,0.0,0.0,0.0,0.0,0.0,0.0,0.0,0.0,0.0,0.0,0.0,0.0,0.0,0.0,0.0,0.0,0.0,0.0,0.0,0.0,0.0,0.0,0.0,0.0,0.0,0.0,0.0,0.0,0.0,0.0,0.0,0.0,0.0,0.0,0.0,0.0,0.0,0.0,0.0,0.0,-0.1511,-0.1975,-0.2517,-0.2652,-0.3311,-0.4151,-0.4967,0.0,0.0,0.0,0.0,0.0,0.0,0.0,0.0,0.0,0.0,0.0,0.0,0.0,0.0,0.0,0.0,0.0,0.0,0.0,0.0,0.0,0.0,0.0,0.0,0.0,0.0,0.0,0.0,0.0,0.0,-1.002,-1.0201,-1.0201,-1.0804,-1.1106,-1.1106,-1.1407,-1.1587,-1.1587,-1.1887,-1.2007,-1.2067,-1.3715,-1.4689,-1.5116,-1.6,-1.6408,-1.6444,-1.6727,-1.7073,-1.7348,-1.7628,-1.8152,-1.868,-1.868,-1.8925,-1.9228,0.0,0.0,0.0,0.0,0.0,0.0,0.0,0.0,0.0,0.0,0.0,0.0,0.0,0.0,0.0,0.0,0.0,0.0,0.0,0.0,0.0,0.0,0.0,0.0,0.0,0.0,0.0,0.0,0.0,0.0,0.0,0.0,0.0,0.0,0.0,0.0,0.0,0.0,0.0,0.0,0.0,0.0,0.0,0.0,0.0,0.0,0.0,0.0,0.0,0.0,0.0,0.0,-0.0897,-0.1289,-0.1774,-0.1954,-0.287,-0.4019,0.0,0.0,0.0,0.0,0.0,0.0,0.0,0.0,0.0,0.0,0.0,0.0,0.0,0.0,0.0,0.0,0.0,0.0,0.0,0.0,0.0,0.0,0.0,0.0,0.0,0.0,0.0,0.0,0.0,0.0,-0.9476,-0.9535,-0.9593,-0.9593,-0.971,-0.9824,-0.9824,-0.9886,-0.9941,0.0,-1.0233,-1.0409,-1.0475,-1.2519,-1.3918,-1.4748,-1.5229,-1.5483,-1.5602,-1.5834,-1.5948,-1.5875,-1.6443,-1.672,-1.6895,-1.7128,-1.7422,-1.7654,0.0,0.0,0.0,0.0,0.0,0.0,0.0,0.0,0.0,0.0,0.0,0.0,0.0,0.0,0.0,0.0,0.0,0.0,0.0,0.0,0.0,0.0,0.0,0.0,0.0,0.0,0.0,0.0,0.0,0.0,0.0,0.0,0.0,0.0,0.0,0.0,0.0,0.0,0.0,0.0,0.0,0.0,0.0,0.0,0.0,0.0,0.0,0.0,0.0,0.0,0.0,0.0,0.0,0.0,-0.121,-0.1471,-0.228,-0.3305,0.0,0.0,0.0,0.0,0.0,0.0,0.0,0.0,0.0,0.0,0.0,0.0,0.0,0.0,0.0,0.0,0.0,0.0,0.0,0.0,0.0,0.0,0.0,0.0,0.0,0.0,0.0,0.0,0.0,-0.9303,-0.9378,-0.9381,-0.9381,-0.9381,-0.9381,-0.9381,-0.9381,-0.9381,-0.9381,-0.9381,-0.9729,-0.9957,-1.0135,-1.1595,-1.2619,-1.3259,-1.3611,-1.3776,-1.3846,-1.4019,-1.4178,-1.4354,-1.4689,-1.5197,-1.571,-1.5885,-1.6222,-1.662,0.0,0.0,0.0,0.0,0.0,0.0,0.0,0.0,0.0,0.0,0.0,0.0,0.0,0.0,0.0,0.0,0.0,0.0,0.0,0.0,0.0,0.0,0.0,0.0,0.0,0.0,0.0,0.0,0.0,0.0,0.0,0.0,0.0,0.0,0.0,0.0,0.0,0.0,0.0,0.0,0.0,0.0,0.0,0.0,0.0,0.0,0.0,0.0,0.0,0.0,0.0,0.0,0.0,0.0,-0.076,-0.1119,-0.1683,-0.2449,0.0,0.0,0.0,0.0,0.0,0.0,0.0,0.0,0.0,0.0,0.0,0.0,0.0,0.0,0.0,0.0,0.0,0.0,0.0,0.0,0.0,0.0,0.0,0.0,0.0,0.0,0.0,0.0,0.0,-0.9171,-0.93,-0.9306,-0.9306,-0.9306,-0.9306,-0.9306,-0.9306,-0.9306,-0.9306,-0.9306,-0.9591,-0.9821,-1.0104,-1.062,-1.1171,-1.1631,-1.1906,-1.2056,-1.2082,-1.2082,-1.2345,-1.2772,-1.2829,-1.3451,-1.4347,-1.4403,-1.4791,-1.5345,0.0,0.0,0.0,0.0,0.0,0.0,0.0,0.0,0.0,0.0,0.0,0.0,0.0,0.0,0.0,0.0,0.0,0.0,0.0,0.0,0.0,0.0,0.0,0.0,0.0,0.0,0.0,0.0,0.0,0.0,0.0,0.0,0.0,0.0,0.0,0.0,0.0,0.0,0.0,0.0,0.0,0.0,0.0,0.0,0.0,0.0,0.0,0.0,0.0,0.0,0.0,0.0,0.0,0.0,0.0,-0.076,-0.1301,0.0,0.0,0.0,0.0,0.0,0.0,0.0,0.0,0.0,0.0,0.0,0.0,0.0,0.0,0.0,0.0,0.0,0.0,0.0,0.0,0.0,0.0,0.0,0.0,0.0,0.0,0.0,0.0,0.0,-0.8967,-0.8922,-0.8942,-0.8942,-0.8942,-0.8942,-0.8942,-0.8942,-0.8942,-0.8942,-0.8942,-0.8942,-0.8998,-0.9053,-0.9109,-0.9165,-0.9867,-1.0936,-1.0993,-1.1077,-1.1153,-1.1153,-1.1119,-1.1037,-1.1308,-1.1474,-1.1639,-1.1973,-1.2398,-1.288,0.0,0.0,0.0,0.0,0.0,0.0,0.0,0.0,0.0,0.0,0.0,0.0,0.0,0.0,0.0,0.0,0.0,0.0,0.0,0.0,0.0,0.0,0.0,0.0,0.0,0.0,0.0,0.0,0.0,0.0,0.0,0.0,0.0,0.0,0.0,0.0,0.0,0.0,0.0,0.0,0.0,0.0,0.0,0.0,0.0,0.0,0.0,0.0,0.0,0.0,0.0,0.0,0.0,0.0,0.0,0.0,0.0,0.0,0.0,0.0,0.0,0.0,0.0,0.0,0.0,0.0,0.0,0.0,0.0,0.0,0.0,0.0,0.0,0.0,0.0,0.0,0.0,0.0,0.0,0.0,0.0,0.0,0.0,0.0,0.0,0.0,-0.8811,-0.8849,-0.8878,-0.8804,-0.8811,-0.8811,-0.8726,-0.8723,-0.8811,-0.8811,-0.8801,-0.8885,-0.8885,-0.8885,-0.8885,-0.8885,-0.9231,-0.9751,-0.9751,-0.9763,-0.9809,-0.9809,-0.988,-0.9981,-1.0091,-1.0363,-1.0692,-1.0802,-1.1126,-1.1446,0.0,0.0,0.0,0.0,0.0,0.0,0.0,0.0,0.0,0.0,0.0,0.0,0.0,0.0,0.0,0.0,0.0,0.0,0.0,0.0,0.0,0.0,0.0,0.0,0.0,0.0,0.0,0.0,0.0,0.0,0.0,0.0,0.0,0.0,0.0,0.0,0.0,0.0,0.0,0.0,0.0,0.0,0.0,0.0,0.0,0.0,0.0,0.0,0.0,0.0,0.0,0.0,0.0,0.0,0.0,0.0,0.0,0.0,0.0,0.0,0.0,0.0,0.0,0.0,0.0,0.0,0.0,0.0,0.0,0.0,0.0,0.0,0.0,0.0,0.0,0.0,0.0,0.0,0.0,0.0,0.0,0.0,0.0,0.0,0.0,0.0,-0.8652,-0.8703,-0.8815,-0.8713,-0.8652,-0.8652,-0.854,-0.8537,-0.8652,-0.8652,-0.871,-0.8821,-0.8821,-0.8821,-0.8821,-0.8821,-0.8821,-0.8825,-0.8851,-0.8885,-0.8885,-0.8885,-0.9047,-0.9268,-0.9268,-0.9541,-0.9926,-0.9926,-1.0143,-1.0417,0.0,0.0,0.0,0.0,0.0,0.0,0.0,0.0,0.0,0.0,0.0,0.0,0.0,0.0,0.0,0.0,0.0,0.0,0.0,0.0,0.0,0.0,0.0,0.0,0.0,0.0,0.0,0.0,0.0,0.0,0.0,0.0,0.0,0.0,0.0,0.0,0.0,0.0,0.0,0.0,0.0,0.0,0.0,0.0,0.0,0.0,0.0,0.0,0.0,0.0,0.0,0.0,0.0,0.0,-0.0027,0.0,0.0,0.0,0.0,0.0,0.0,0.0,0.0,0.0,0.0,0.0,0.0,0.0,0.0,0.0,0.0,0.0,0.0,0.0,0.0,0.0,0.0,0.0,0.0,0.0,0.0,0.0,0.0,0.0,0.0,0.0,-0.8492,-0.8499,-0.8506,-0.8499,-0.8492,-0.8492,-0.8486,-0.8486,-0.8492,-0.8492,-0.8499,-0.8506,-0.8506,-0.8506,-0.8506,-0.8506,-0.8506,-0.8523,-0.8811,-0.8885,-0.8885,-0.8885,-0.8885,-0.8937,-0.8937,-0.8937,-0.8992,-0.8992,-0.9158,-0.9489,0.0,0.0,0.0,0.0,0.0,0.0,0.0,0.0,0.0,0.0,0.0,0.0,0.0,0.0,0.0,0.0,0.0,0.0,0.0,0.0,0.0,0.0,0.0,0.0,0.0,0.0,0.0,0.0,0.0,0.0,0.0,0.0,0.0,0.0,0.0,0.0,0.0,0.0,0.0,0.0,0.0,0.0,0.0,0.0,0.0,0.0,0.0,0.0,0.0,0.0,0.0,0.0,0.0,0.0,0.0,-0.0052,-0.0379,0.0,0.0,0.0,0.0,0.0,0.0,0.0,0.0,0.0,0.0,0.0,0.0,0.0,0.0,0.0,0.0,0.0,0.0,0.0,0.0,0.0,0.0,0.0,0.0,0.0,0.0,0.0,0.0,0.0,0.0,-0.8387,-0.8476,-0.8394,-0.8347,-0.8347,-0.8252,-0.8245,-0.8343,-0.8435,-0.8482,-0.8482,-0.8482,-0.8482,-0.8482,-0.8482,-0.8482,-0.8486,-0.8598,-0.8645,-0.8652,-0.875,-0.8794,-0.8801,-0.8844,-0.8885,-0.8885,-0.8885,-0.8992,-0.9103,0.0,0.0,0.0,0.0259,0.0,0.0,0.0,0.0,0.0,0.0,0.0,0.0,0.0,0.0,0.0,0.0,0.0,0.0,0.0,0.0,0.0,0.0,0.0,0.0,0.0,0.0,0.0,0.0,0.0,0.0,0.0,0.0,0.0,0.0,0.0,0.0,0.0,0.0,0.0,0.0,0.0,0.0,0.0,0.0,0.0,0.0,0.0,0.0,0.0,0.0,0.0,0.0,0.0,0.0,0.0,0.0,-0.013,0.0,-0.0464,0.0,0.0,0.0,0.0,0.0,0.0,0.0,0.0,0.0,0.0,0.0,0.0,0.0,0.0,0.0,0.0,0.0,0.0,0.0,0.0,0.0,0.0,0.0,0.0,0.0,0.0,0.0,0.0,0.0,-0.8326,-0.8245,-0.8194,-0.8194,-0.8092,-0.8039,-0.8194,-0.8286,-0.8333,-0.8333,-0.8333,-0.8333,-0.8333,-0.8333,-0.8333,-0.8333,-0.8333,-0.8391,-0.8489,-0.8591,-0.8632,-0.8645,-0.8747,-0.8784,-0.8784,-0.8784,-0.8784,-0.8784,0.1347,0.0813,0.0388,0.0402,0.0181,0.0,0.0,0.0,0.0,0.0,0.0,0.0,0.0,0.0,0.0,0.0,0.0,0.0,0.0,0.0,0.0,0.0,0.0,0.0,0.0,0.0,0.0,0.0,0.0,0.0,0.0,0.0,0.0,0.0,0.0,0.0,0.0,0.0,0.0,0.0,0.0,0.0,0.0,0.0,0.0,0.0,0.0,0.0,0.0,0.0,0.0,0.0,0.0,0.0,0.0,0.0,-0.0101,-0.0207,0.0,0.0,0.0,0.0,0.0,0.0,0.0,0.0,0.0,0.0,0.0,0.0,0.0,0.0,0.0,0.0,0.0,0.0,0.0,0.0,0.0,0.0,0.0,0.0,0.0,0.0,0.0,0.0,-0.7988,-0.7988,-0.7988,-0.7988,-0.7988,-0.7988,-0.7988,-0.7988,-0.7988,-0.7988,-0.7988,-0.7988,-0.7988,-0.7988,-0.7988,-0.7988,-0.7988,-0.7988,-0.7988,-0.8201,-0.8469,-0.8472,-0.8476,-0.8476,-0.8479,-0.8482,-0.8482,-0.8482,-0.8482,-0.8482,0.1234,0.0757,0.0361,0.0268,0.0106,0.0,0.0,0.0,0.0,0.0,0.0,0.0,0.0,0.0,0.0,0.0,0.0,0.0,0.0,0.0,0.0,0.0,0.0,0.0,0.0,0.0,0.0,0.0,0.0,0.0,0.0,0.0,0.0,0.0,0.0,0.0,0.0,0.0,0.0,0.0,0.0,0.0,0.0,0.0,0.0,0.0,0.0,0.0,0.0,0.0,0.0,0.0,0.0,0.0,0.0,0.0,-0.0026,-0.0053,-0.0082,0.0,0.0,0.0,0.0,0.0,0.0,0.0,0.0,0.0,0.0,0.0,0.0,0.0,0.0,0.0,0.0,0.0,0.0,0.0,0.0,0.0,0.0,0.0,0.0,0.0,0.0,0.0,-0.7988,-0.7988,-0.7988,-0.7988,-0.7988,-0.7988,-0.7988,-0.7988,-0.7988,-0.7988,-0.7988,-0.7988,-0.7988,-0.7988,-0.7988,-0.7988,-0.7988,-0.7988,-0.7988,-0.8035,-0.817,-0.8282,-0.8381,-0.834,-0.8442,-0.8482,-0.8482,-0.8482,-0.8482,-0.8482,0.1402,0.0926,0.0529,0.0328,0.0161,0.0053,0.0,0.0,0.0,0.0,0.0,0.0,0.0,0.0,0.0,0.0,0.0,0.0,0.0,0.0,0.0,0.0,0.0,0.0,0.0,0.0,0.0,0.0,0.0,0.0,0.0,0.0,0.0,0.0,0.0,0.0,0.0,0.0,0.0,0.0,0.0,0.0,0.0,0.0,0.0,0.0,0.0,0.0,0.0,0.0,0.0,0.0,0.0,0.0,0.0,0.0,0.0,0.0,0.0,-0.0089,0.0,0.0,0.0,0.0,0.0,-0.238,0.0,0.0,0.0,0.0,0.0,0.0,0.0,0.0,0.0,0.0,0.0,0.0,0.0,0.0,0.0,0.0,0.0,-0.7988,-0.7988,-0.7988,-0.7988,-0.7988,-0.7988,-0.7988,-0.7988,-0.7988,-0.7988,-0.7988,-0.7988,-0.7988,-0.7988,-0.7988,-0.7988,-0.7988,-0.7988,-0.7988,-0.7988,-0.7988,-0.7988,-0.7988,-0.7995,-0.8136,-0.8174,-0.818,-0.8265,-0.8299,-0.8299,-0.8299,-0.8299,-0.8299,0.0,0.129,0.087,0.0507,0.0357,0.0216,0.0054,0.0027,0.0027,0.0,0.0,0.0,0.0,0.0,0.0,0.0,0.0,0.0,0.0,0.0,0.0,0.0,0.0,0.0,0.0,0.0,0.0,0.0,0.0,0.0,0.0,0.0,0.0,0.0,0.0,0.0,0.0,0.0,0.0,0.0,0.0,0.0,0.0,0.0,0.0,0.0,0.0,0.0,0.0,0.0,0.0,0.0,0.0,0.0,0.0,0.0,0.0,0.0,0.0,0.0,-0.0031,-0.0225,-0.0382,0.0,-0.0992,-0.1537,0.0,0.0,0.0,0.0,0.0,0.0,0.0,0.0,0.0,0.0,0.0,0.0,0.0,0.0,0.0,0.0,-0.7865,-0.7932,-0.7939,-0.7939,-0.7988,-0.7988,-0.7988,-0.7988,-0.7988,-0.7988,-0.7988,-0.7988,-0.7988,-0.7988,-0.7988,-0.7988,-0.7988,-0.7988,-0.7988,-0.7988,-0.7988,-0.7988,-0.7988,-0.7988,-0.7988,-0.7988,-0.7988,-0.7988,-0.7988,-0.7988,-0.7988,-0.7988,-0.7988,-0.7988,0.2043,0.168,0.1327,0.0871,0.0697,0.0525,0.0269,0.024,0.018,0.003,0.0,0.0,0.0,0.0,0.0,0.0,0.0,0.0,0.0,0.0,0.0,0.0,0.0,0.0,0.0,0.0,0.0,0.0,0.0,0.0,0.0,0.0,0.0,0.0,0.0,0.0,0.0,0.0,0.0,0.0,0.0,0.0,0.0,0.0,0.0,0.0,0.0,0.0,0.0,0.0,0.0,0.0,0.0,0.0,0.0,0.0,0.0,0.0,0.0,0.0,0.0,-0.0033,0.0,0.0,-0.0463,-0.0764,-0.119,0.0,0.0,0.0,0.0,0.0,0.0,0.0,0.0,0.0,0.0,0.0,0.0,0.0,0.0,0.0,-0.6933,-0.7378,-0.7696,-0.7696,-0.7892,-0.7988,-0.7988,-0.7988,-0.7988,-0.7988,-0.7988,-0.7988,-0.7988,-0.7988,-0.7988,-0.7988,-0.7988,-0.7988,-0.7988,-0.7988,-0.7988,-0.7988,-0.7988,-0.7988,-0.7988,-0.7988,-0.7988,-0.7988,-0.7988,-0.7988,-0.7988,-0.7988,-0.7988,-0.7988,0.2543,0.2291,0.1977,0.1492,0.1294,0.11,0.0736,0.0617,0.0466,0.0189,0.0065,0.0,0.0,0.0,0.0,0.0,0.0,0.0,0.0,0.0,0.0,0.0,0.0,0.0,0.0,0.0,0.0,0.0,0.0,0.0,0.0,0.0,0.0,0.0,0.0,0.0,0.0,0.0,0.0,0.0,0.0,0.0,0.0,0.0,0.0,0.0,0.0,0.0,0.0,0.0,0.0,0.0,0.0,0.0,0.0,0.0,0.0,0.0,0.0,0.0,0.0,0.0,0.0,0.0,0.0,-0.0367,-0.0631,-0.0956,0.0,0.0,0.0,0.0,0.0,0.0,0.0,0.0,0.0,0.0,0.0,0.0,0.0,0.0,-0.6175,-0.6528,-0.6797,-0.7043,-0.7185,-0.7411,-0.773,-0.7733,-0.7816,-0.7988,-0.7988,-0.7988,-0.7988,-0.7988,-0.7988,-0.7988,-0.7988,-0.7988,-0.7988,-0.7988,-0.7988,-0.7988,-0.7988,-0.7988,-0.7988,-0.7988,-0.7988,-0.7988,-0.7988,-0.7988,-0.7988,-0.7988,-0.7988,-0.7988,0.3155,0.2959,0.2709,0.2191,0.2008,0.1767,0.133,0.1131,0.0901,0.0,0.0,0.0072,0.0074,0.0036,0.0,0.0,0.0,0.0,0.0,0.0,0.0,0.0,0.0,0.0,0.0,0.0,0.0,0.0,0.0,0.0,0.0,0.0,0.0,0.0,0.0,0.0,0.0,0.0,0.0,0.0,0.0,0.0,0.0,0.0,0.0,0.0,0.0,0.0,0.0,0.0,0.0,0.0,0.0,0.0,0.0,0.0,0.0,0.0,0.0,0.0,0.0,0.0,0.0,0.0,0.0,0.0,0.0,-0.0435,0.0,0.0,0.0,0.0,0.0,0.0,0.0,0.0,0.0,0.0,0.0,0.0,0.0,0.0,0.0,-0.5417,-0.5777,-0.6243,-0.6312,-0.6608,-0.72,-0.7353,-0.7579,-0.7895,-0.7975,-0.7988,-0.7988,-0.7988,-0.7988,-0.7988,-0.7988,-0.7988,-0.7988,-0.7988,-0.7988,-0.7988,-0.7988,-0.7988,-0.7988,-0.7988,-0.7988,-0.7988,-0.7988,-0.7988,-0.7988,-0.7988,-0.7988,-0.7988,0.3796,0.3599,0.3357,0.2948,0.2825,0.2568,0.1979,0.1876,0.1634,0.0,0.0,0.0,0.036,0.0157,0.0,0.0,0.0,0.0,0.0,0.0,0.0,0.0,0.0,0.0,0.0,0.0,0.0,0.0,0.0,0.0,0.0,0.0,0.0,0.0,0.0,0.0,0.0,0.0,0.0,0.0,0.0,0.0,0.0,0.0,0.0,0.0,0.0,0.0,0.0,0.0,0.0,0.0,0.0,0.0,0.0,0.0,0.0,0.0,0.0,0.0,0.0,0.0,0.0,0.0,0.0,0.0,-0.0101,-0.0269,0.0,0.0,0.0,0.0,0.0,0.0,0.0,0.0,0.0,0.0,0.0,0.0,0.0,0.0,0.0,-0.418,-0.4952,-0.5407,-0.5678,-0.5928,-0.6224,-0.6813,-0.7288,-0.755,-0.7822,-0.7988,-0.7988,-0.7988,-0.7988,-0.7988,-0.7988,-0.7988,-0.7988,-0.7988,-0.7988,-0.7988,-0.7988,-0.7988,-0.7988,-0.7988,-0.7988,-0.7988,-0.7988,-0.7988,-0.7988,-0.7988,-0.7988,-0.7988,0.4107,0.3993,0.3868,0.3558,0.3441,0.3225,0.2814,0.2222,0.1714,0.0,0.0,0.0,0.0,0.0,0.0,0.0,0.0,0.0,0.0,0.0,0.0,0.0,0.0,0.0,0.0,0.0,0.0,0.0,0.0,0.0,0.0,0.0,0.0,0.0,0.0,0.0,0.0,0.0,0.0,0.0,0.0,0.0,0.0,0.0,0.0,0.0,0.0,0.0,0.0,0.0,0.0,0.0,0.0,0.0,0.0,0.0,0.0,0.0,0.0,0.0,0.0,0.0,0.0,0.0,0.0,0.0,-0.0034,0.0,0.0,0.0,0.0,0.0,0.0,0.0,0.0,0.0,0.0,0.0,0.0,0.0,0.0,0.0,0.0,0.0,0.0,0.0,-0.4065,-0.4508,-0.5286,-0.5719,-0.6243,-0.6917,-0.7071,-0.7247,-0.7536,-0.767,-0.7762,-0.7909,-0.7948,-0.7988,-0.7988,-0.7988,-0.7988,-0.7988,-0.7988,-0.7988,-0.7988,-0.7988,-0.7988,-0.7988,-0.7988,-0.7988,-0.7988,-0.7988,-0.7988,-0.7988,0.4301,0.4273,0.4222,0.4009,0.3963,0.3856,0.3566,0.2718,0.2019,0.1867,0.0,0.0,0.0534,0.0223,0.0,0.0,0.0,0.0,0.0,0.0037,0.0071,0.0067,0.0129,0.0125,0.0091,0.0085,0.0054,0.0,0.0,0.0,0.0,0.0,0.0,0.0,0.0,0.0,0.0,0.0,0.0,0.0,0.0,0.0,0.0,0.0,0.0,0.0,0.0,0.0,0.0,0.0,0.0,0.0,0.0,0.0,0.0,0.0,0.0,0.0,0.0,0.0,0.0,0.0,0.0,0.0,0.0,0.0,0.0,0.0,0.0,0.0,0.0,0.0,0.0,0.0,0.0,0.0,0.0,0.0,0.0,0.0,0.0,0.0,0.0,0.0,0.0,0.0,0.0,-0.3199,-0.4082,-0.4555,-0.517,-0.5928,-0.6186,-0.6458,-0.6835,-0.7079,-0.7321,-0.7462,-0.7667,-0.7789,-0.7882,-0.7928,-0.7948,-0.7988,-0.7988,-0.7988,-0.7988,-0.7988,-0.7988,-0.7988,-0.7988,-0.7988,-0.7988,-0.7988,-0.7988,-0.7988,0.4491,0.4491,0.0,0.4227,0.4393,0.4449,0.4135,0.3505,0.2918,0.2521,0.0,0.0,0.0,0.0,0.0,0.0,0.0,0.0,0.0,0.0201,0.0306,0.0291,0.0484,0.0498,0.029,0.0303,0.0202,0.0,0.0,0.0,0.0,0.0,0.0,0.0,0.0,0.0,0.0,0.0,0.0,0.0,0.0,0.0,0.0,0.0,0.0,0.0,0.0,0.0,0.0,0.0,0.0,0.0,0.0,0.0,0.0,0.0,0.0,0.0,0.0,0.0,0.0,0.0,0.0,0.0,0.0,0.0,0.0,0.0,0.0,0.0,0.0,0.0,0.0,0.0,0.0,0.0,0.0,0.0,0.0,0.0,0.0,0.0,0.0,0.0,0.0,0.0,0.0,0.0,-0.2476,-0.3509,-0.4253,-0.4567,-0.54,-0.5845,-0.5845,-0.6319,-0.6558,-0.6558,-0.6988,-0.7349,-0.7537,-0.7724,-0.7899,-0.7988,-0.7988,-0.7988,-0.7988,-0.7988,-0.7988,-0.7988,-0.7988,-0.7988,-0.7988,-0.7988,-0.7988,-0.7988,0.0,0.0,0.0,0.0,0.0,0.4612,0.4403,0.3806,0.3275,0.0,0.2205,0.0,0.0,0.1118,0.078,0.0,0.0,0.0522,0.0551,0.0738,0.083,0.0845,0.1036,0.1026,0.0772,0.0763,0.0592,0.0203,0.019,0.0131,0.0,0.0,0.0,0.0,0.0,0.0,0.0,0.0,0.0,0.0,0.0,0.0,0.0,0.0,0.0,0.0,0.0,0.0,0.0,0.0,0.0,0.0,0.0,0.0,0.0,0.0,0.0,0.0,0.0,0.0,0.0,0.0,0.0,0.0,0.0,0.0,0.0,0.0,0.0,0.0,0.0,0.0,0.0,0.0,0.0,0.0,0.0,0.0,0.0,0.0,0.0,0.0,0.0,0.0,0.0,0.0,-0.0892,0.0,0.0,-0.2196,-0.2808,-0.3416,-0.3738,-0.416,-0.4799,-0.5044,-0.54,-0.5912,-0.6136,-0.6389,-0.6628,-0.6952,-0.7113,-0.7162,-0.7552,-0.7746,-0.7743,-0.7942,-0.7988,-0.7988,-0.7988,-0.7988,-0.7988,-0.7988,-0.7988,-0.7988,0.4672,0.0,0.0,0.0,0.0,0.4959,0.4897,0.4467,0.4039,0.0,0.3016,0.0,0.2421,0.0,0.1727,0.0,0.1468,0.1341,0.1413,0.1482,0.0,0.1788,0.202,0.1977,0.173,0.1609,0.1266,0.066,0.0555,0.0363,0.0,0.0,0.0,0.0,0.0,0.0,0.0,0.0,0.0,0.0,0.0,0.0,0.0,0.0,0.0,0.0,0.0,0.0,0.0,0.0,0.0,0.0,0.0,0.0,0.0,0.0,0.0,0.0,0.0,0.0,0.0,0.0,0.0,0.0,0.0,0.0,0.0,0.0,0.0,0.0,0.0,0.0,0.0,0.0,0.0,0.0,0.0,0.0,0.0,0.0,0.0,0.0,0.0,0.0,-0.0061,-0.0187,0.0,0.0,0.0,0.0,-0.1681,-0.2229,-0.241,-0.2802,-0.3405,-0.3763,-0.4152,-0.4654,-0.5087,-0.5371,-0.56,-0.6005,-0.6277,-0.646,-0.6935,-0.7198,-0.7344,-0.7693,-0.7842,-0.7892,-0.7942,-0.7988,-0.7988,-0.7988,-0.7988,-0.7988,0.4911,0.4921,0.0,0.0,0.5203,0.0,0.0,0.0,0.523,0.0,0.409,0.3687,0.3285,0.2978,0.2818,0.2818,0.2515,0.2422,0.2684,0.2489,0.0,0.0,0.3366,0.3348,0.3078,0.2822,0.224,0.1369,0.1099,0.0761,0.0,0.0,0.0,0.0,0.0033,0.0,0.0,0.0,0.0,0.0,0.0,0.0,0.0,0.0,0.0,0.0,0.0,0.0,0.0,0.0,0.0,0.0,0.0,0.0,0.0,0.0,0.0,0.0,0.0,0.0,0.0,0.0,0.0,0.0,0.0,0.0,0.0,0.0,0.0,0.0,0.0,0.0,0.0,0.0,0.0,0.0,0.0,0.0,0.0,0.0,0.0,0.0,0.0,0.0,0.0,0.0,-0.0187,0.0,0.0,0.0,-0.0961,-0.0966,-0.1461,-0.1756,-0.1749,-0.2465,-0.2822,-0.2867,-0.3762,-0.425,-0.442,-0.4887,-0.5324,-0.5759,-0.6106,-0.6421,-0.6783,-0.7294,-0.7547,-0.7596,-0.7839,-0.7942,-0.7988,-0.7988,-0.7988,-0.7988,0.5303,0.5423,0.5705,0.0,0.5965,0.5872,0.0,0.0,0.0,0.0,0.5565,0.5466,0.5358,0.4886,0.4568,0.4568,0.413,0.0,0.0,0.0,0.0,0.4438,0.4581,0.4505,0.4102,0.3968,0.3321,0.2271,0.1896,0.0,0.103,0.0,0.0,0.0,0.0,0.0,0.0154,0.0041,0.0,0.0,0.0,0.0,0.0,0.0,0.0,0.0,0.0,0.0,0.0,0.0,0.0,0.0,0.0,0.0,0.0,0.0,0.0,0.0,0.0,0.0,0.0,0.0,0.0,0.0,0.0,0.0,0.0,0.0,0.0,0.0,0.0,0.0,0.0,0.0,0.0,0.0,0.0,0.0,0.0,0.0,0.0,0.0,0.0,0.0,0.0,0.0,-0.006,0.0,0.0,0.0,0.0,-0.0533,-0.0682,-0.0922,-0.1256,-0.148,-0.1749,-0.2107,-0.2332,-0.2561,-0.2797,-0.3348,-0.3623,-0.3805,-0.4785,-0.5349,-0.563,-0.6208,-0.6645,-0.6995,-0.7095,-0.7344,-0.7746,-0.7942,-0.7988,-0.7988,0.5671,0.5945,0.0,0.681,0.0,0.0,0.6653,0.6762,0.0,0.6618,0.665,0.0,0.6565,0.63,0.6084,0.6084,0.5614,0.0,0.5534,0.0,0.0,0.586,0.5939,0.5795,0.5382,0.5117,0.0,0.3308,0.0,0.0,0.1591,0.0,0.0,0.0,0.0,0.0478,0.0,0.0336,0.0276,0.0197,0.015,0.0101,0.0,0.0,0.0,0.0,0.0,0.0,0.0,0.0,0.0,0.0,0.0,0.0,0.0,0.0,0.0,0.0,0.0,0.0,0.0,0.0,0.0,0.0,0.0,0.0,0.0,0.0,0.0,0.0,0.0,0.0,0.0,0.0,0.0,0.0,0.0,0.0,0.0,0.0,0.0,0.0,0.0,0.0,0.0,0.0,0.0,0.0,0.0,0.0,0.0,-0.024,-0.021,-0.0347,-0.0619,-0.0714,-0.0942,-0.1211,-0.1391,-0.1569,-0.1748,-0.2132,-0.2384,-0.2592,-0.3501,-0.405,-0.4362,-0.5149,-0.5648,-0.5939,-0.6292,-0.6792,-0.7244,-0.7441,-0.769,-0.7988,0.6158,0.0,0.0,0.0,0.0,0.0,0.0,0.7605,0.0,0.7425,0.0,0.7535,0.7421,0.7376,0.7376,0.7376,0.0,0.6891,0.7105,0.6832,0.6879,0.7237,0.7198,0.7015,0.6658,0.6196,0.5467,0.0,0.3768,0.304,0.0,0.0,0.0,0.0,0.0,0.0,0.0,0.0828,0.0709,0.0539,0.0501,0.0354,0.0152,0.0101,0.0051,0.0051,0.0,0.0,0.0,0.0,0.0,0.0,0.0,0.0,0.0,0.0,0.0,0.0,0.0,0.0,0.0,0.0,0.0,0.0,0.0,0.0,0.0,0.0,0.0,0.0,0.0,0.0,0.0,0.0,0.0,0.0,0.0,0.0,0.0,0.0,0.0,0.0,0.0,0.0,0.0,0.0,0.0,0.0,0.0,0.0,0.0,0.0,0.0,0.0,0.0,0.0,-0.0359,-0.0359,-0.0762,-0.0942,-0.0942,-0.1166,-0.145,-0.1751,-0.2262,-0.2686,-0.3063,-0.4055,-0.4504,-0.4684,-0.5539,-0.6142,-0.6542,-0.6645,-0.7141,-0.7789,0.7088,0.0,0.0,0.0,0.0,0.8022,0.8241,0.8426,0.8505,0.8448,0.8532,0.8634,0.8602,0.8377,0.8263,0.8263,0.7968,0.0,0.0,0.0,0.0,0.81,0.7871,0.7661,0.7477,0.7076,0.6377,0.5359,0.4712,0.4033,0.0,0.0,0.0,0.0,0.0,0.0,0.1213,0.128,0.0,0.1298,0.1146,0.101,0.096,0.0505,0.0354,0.0303,0.0101,0.0,0.0,0.0,0.0,0.0,0.0,0.0,0.0,0.0,0.0,0.0,0.0,0.0,0.0,0.0,0.0,0.0,0.0,0.0,0.0,0.0,0.0,0.0,0.0,0.0,0.0,0.0,0.0,0.0,0.0,0.0,0.0,0.0,0.0,0.0,0.0,0.0,0.0,0.0,0.0,0.0,0.0,0.0,0.0,0.0,0.0,0.0,0.0,0.0,-0.009,-0.009,-0.0135,-0.018,-0.018,-0.0449,-0.0629,-0.0677,-0.1239,-0.1625,-0.1921,-0.2321,-0.2874,-0.3575,-0.4634,-0.5085,-0.5236,-0.5889,-0.6389,-0.6786,0.7763,0.0,0.0,0.0,0.0,0.0,0.0,0.8913,0.9005,0.8849,0.9028,0.9137,0.9059,0.8933,0.8847,0.8719,0.8546,0.8491,0.8491,0.8426,0.8464,0.8501,0.8358,0.8147,0.7852,0.7533,0.6923,0.6018,0.5399,0.4791,0.4145,0.0,0.0,0.0,0.0,0.2504,0.0,0.0,0.0,0.2375,0.2294,0.1968,0.1564,0.1312,0.106,0.0808,0.0657,0.0556,0.0354,0.0101,0.0,0.0,0.0,0.0,0.0,0.0,0.0,0.0,0.0,0.0,0.0,0.0,0.0,0.0,0.0,0.0,0.0,0.0,0.0,0.0,0.0,0.0,0.0,0.0,0.0,0.0,0.0,0.0,0.0,0.0,0.0,0.0,0.0,0.0,0.0,0.0,0.0,0.0,0.0,0.0,0.0,0.0,0.0,0.0,0.0,0.0,0.0,0.0,0.0,0.0,0.0,-0.0135,-0.018,-0.0225,-0.0635,-0.087,-0.1021,-0.14,-0.1983,-0.2621,-0.3124,-0.3626,-0.4029,-0.4583,-0.5183,-0.5934,0.0,0.834,0.0,0.0,0.8804,0.8994,0.9028,0.9259,0.9334,0.9069,0.9235,0.9337,0.9272,0.9258,0.9144,0.8998,0.8984,0.8971,0.8885,0.8885,0.8828,0.8764,0.8726,0.8543,0.814,0.7862,0.7319,0.6626,0.6051,0.5457,0.0,0.0,0.4167,0.3761,0.0,0.0,0.0,0.0,0.3982,0.3676,0.3598,0.3173,0.2571,0.2319,0.2017,0.1615,0.1515,0.1313,0.106,0.0656,0.0404,0.0253,0.0303,0.0353,0.0353,0.0253,0.0253,0.0253,0.0101,0.0101,0.0051,0.0,0.0,0.0,0.0,0.0,0.0,0.0,0.0,0.0,0.0,0.0,0.0,0.0,0.0,0.0,0.0,0.0,0.0,0.0,0.0,0.0,0.0,0.0,0.0,0.0,0.0,0.0,0.0,0.0,0.0,0.0,0.0,0.0,0.0,0.0,0.0,0.0,0.0,0.0,0.0,0.0,0.0,0.0,-0.0224,-0.0318,-0.0371,-0.0817,-0.1283,-0.1655,-0.1763,-0.2219,-0.2822,-0.3226,-0.3927,-0.4878,0.0,0.0,0.0,0.0,0.0,0.9234,0.932,0.9483,0.953,0.9361,0.9364,0.9374,0.9361,0.9361,0.93,0.9204,0.919,0.9079,0.8892,0.8885,0.8875,0.8861,0.8784,0.8689,0.8648,0.817,0.7722,0.0,0.0,0.6148,0.0,0.5217,0.4882,0.4676,0.0,0.0,0.0,0.5218,0.5322,0.524,0.4796,0.4582,0.4433,0.3475,0.3073,0.2973,0.2471,0.227,0.222,0.217,0.1716,0.1111,0.1362,0.1462,0.1412,0.1161,0.1111,0.096,0.0505,0.0354,0.0303,0.0051,0.0,0.0,0.0,0.0,0.0,0.0,0.0,0.0,0.0,0.0,0.0041,0.0,0.0,0.0,0.0,0.0,0.027,0.028,0.0,0.0,0.0,0.0,0.0,0.0,0.0,0.0,0.0,0.0,0.0,0.0,0.0,0.0,0.0,0.0,0.0,0.0,0.0,0.0,0.0,0.0,0.0,0.0,-0.0045,-0.0045,-0.0046,-0.0332,-0.0484,-0.0592,-0.1104,-0.1313,-0.1464,-0.222,-0.2724,-0.3176,0.0,0.0,0.0,0.0,0.0,0.0,0.0,0.9642,0.9717,0.9652,0.9646,0.9612,0.9527,0.9517,0.9456,0.9303,0.9262,0.9183,0.9069,0.8988,0.8885,0.8885,0.8824,0.8804,0.8713,0.836,0.8001,0.0,0.0,0.0,0.0,0.6,0.5792,0.5759,0.0,0.5924,0.6205,0.6378,0.64,0.6273,0.6071,0.5789,0.5489,0.5035,0.4582,0.413,0.3929,0.3629,0.3428,0.3729,0.2975,0.1918,0.2068,0.2068,0.2068,0.1968,0.1817,0.1615,0.1413,0.1261,0.111,0.1009,0.0958,0.0954,0.0887,0.0924,0.0862,0.0698,0.0455,0.0224,0.0222,0.0129,0.0084,0.0288,0.0,0.0,0.0,0.0,0.0,0.0593,0.0,0.0118,0.0,0.0,0.0,0.0,0.0,0.0,0.0,0.0,0.0,0.0,0.0,0.0,0.0,0.0,0.0,0.0,0.0,0.0,0.0,0.0,0.0,0.0,0.0,0.0,0.0,-0.0095,-0.0145,-0.0197,-0.0401,-0.0556,-0.0758,-0.1262,-0.1716,-0.2169,0.9361,0.0,0.9449,0.0,0.9574,0.9673,0.9673,0.9754,0.9822,0.9822,0.9822,0.9781,0.9683,0.9673,0.9612,0.9462,0.9351,0.9326,0.9279,0.9083,0.9001,0.9001,0.8905,0.0,0.8781,0.853,0.8252,0.7946,0.7438,0.0,0.6892,0.6637,0.6613,0.0,0.6705,0.6872,0.7193,0.733,0.73,0.7141,0.7045,0.6795,0.6442,0.6292,0.5889,0.5386,0.5286,0.5035,0.4784,0.5135,0.4531,0.3527,0.3376,0.3325,0.3325,0.3176,0.2973,0.2772,0.242,0.2218,0.2017,0.1865,0.1815,0.1804,0.1761,0.1733,0.1657,0.1383,0.1042,0.0807,0.0718,0.052,0.0463,0.0673,0.0,0.0,0.0,0.0897,0.0,0.0843,0.0515,0.0294,0.0253,0.0,0.0,0.0,0.0,0.0,0.0,0.0,0.0,0.0,0.0,0.0,0.0,0.0,0.0,0.0,0.0,0.0,0.0,0.0,0.0,0.0,0.0,0.0,0.0,0.0,0.0,0.0,0.0,-0.0101,-0.0303,-0.0606,-0.0908,-0.1312,0.9381,0.9503,0.9605,0.9605,0.9724,0.9819,0.9819,0.9819,0.9822,0.9822,0.9822,0.9822,0.9819,0.9819,0.9761,0.9618,0.9605,0.954,0.9388,0.9292,0.9207,0.0,0.0,0.8885,0.8881,0.8784,0.856,0.8316,0.0,0.0,0.7405,0.7204,0.7214,0.7415,0.7522,0.7672,0.7818,0.7924,0.7988,0.7942,0.7693,0.7596,0.7547,0.6995,0.6795,0.6742,0.6487,0.6387,0.6387,0.6387,0.6387,0.6237,0.5734,0.5584,0.5436,0.4935,0.4784,0.4533,0.3475,0.3173,0.3074,0.2521,0.2371,0.2398,0.2306,0.2286,0.2213,0.1856,0.1795,0.1705,0.1436,0.1342,0.1386,0.1639,0.0,0.0,0.0,0.1385,0.0,0.1003,0.071,0.0482,0.0395,0.0,0.0,0.0,0.0,0.0,0.0,0.0,0.0,0.0,0.0,0.0,0.0,0.0,0.0,0.0,0.0,0.0,0.0,0.0,0.0,0.0,0.0,0.0,0.0,0.0,0.0,0.0,0.0,0.0,-0.0051,-0.0303,-0.0404,-0.0505,0.9995,1.0032,1.0032,0.9866,0.9886,0.9879,0.9836,0.9822,0.9822,0.9822,0.9822,0.9822,0.9822,0.9822,0.9802,0.0,0.9666,0.9588,0.0,0.9395,0.932,0.9214,0.9166,0.9039,0.8885,0.8791,0.8665,0.857,0.0,0.0,0.0,0.7621,0.7624,0.7675,0.7723,0.7828,0.7921,0.7968,0.7988,0.7988,0.7892,0.7892,0.7842,0.7693,0.7494,0.7344,0.7244,0.7089,0.6986,0.7141,0.7241,0.7241,0.7238,0.6736,0.6137,0.5937,0.5739,0.5539,0.5186,0.4983,0.478,0.4632,0.4582,0.4535,0.4361,0.4003,0.3641,0.3549,0.3002,0.251,0.2419,0.2077,0.1849,0.206,0.2063,0.0,0.2274,0.0,0.1938,0.1958,0.153,0.1254,0.0,0.0839,0.0,0.0,0.0,0.0,0.0,0.0,0.0,0.0,0.0,0.0,0.0,0.0,0.0,0.0,0.0,0.0,0.0,0.0,0.0,0.0,0.0,0.0,0.0,0.0,0.0,0.0,0.0,0.0,0.0,-0.0101,-0.0152,-0.0152,1.028,1.028,1.0249,1.0151,1.0137,1.0083,0.9869,0.9845,0.9886,0.9829,0.9822,0.9822,0.9822,0.9822,0.0,0.9822,0.9741,0.969,0.969,0.9551,0.9425,0.9327,0.9272,0.9166,0.9022,0.8872,0.0,0.871,0.8469,0.8252,0.8062,0.8062,0.8062,0.8058,0.8007,0.8038,0.8123,0.8015,0.7988,0.7988,0.7988,0.7988,0.7988,0.7988,0.7892,0.7743,0.7743,0.764,0.7537,0.7693,0.7743,0.7793,0.7939,0.7537,0.6989,0.6889,0.6742,0.6542,0.6342,0.6189,0.6037,0.5937,0.5884,0.5827,0.5656,0.5237,0.4881,0.4752,0.4253,0.3805,0.3715,0.3328,0.3064,0.3189,0.3009,0.2898,0.3037,0.0,0.2517,0.0,0.0,0.0,0.0,0.1498,0.1048,0.0,0.0,0.0,0.0,0.0,0.0,0.0,0.0,0.0,0.0,0.0,0.0,0.0,0.0,0.0,0.0,0.0,0.0,0.0,0.0,0.0,0.0,0.0,0.0,0.0,0.0,0.0,0.0,0.0,0.0,0.0,1.031,1.031,1.0307,0.0,1.0293,0.0,1.0027,1.0004,0.9953,0.9873,0.9842,0.9836,0.9836,0.9829,0.9822,0.9822,0.0,0.0,0.0,0.9696,0.9618,0.9608,0.9337,0.9231,0.921,0.9022,0.8879,0.8726,0.8584,0.8509,0.8499,0.8499,0.8492,0.8476,0.8343,0.8337,0.8327,0.8133,0.8019,0.8019,0.8008,0.8005,0.8005,0.7992,0.7988,0.7988,0.7988,0.7988,0.7988,0.7988,0.7988,0.7988,0.7988,0.7988,0.7939,0.7693,0.7646,0.7497,0.6995,0.6895,0.6842,0.6587,0.6478,0.6465,0.6244,0.6089,0.5871,0.5584,0.5466,0.5369,0.5144,0.4877,0.4733,0.4733,0.4314,0.3933,0.3869,0.3313,0.2988,0.0,0.0,0.0,0.2701,0.2231,0.174,0.0,0.0,0.0,0.0,0.0,0.0,0.0,0.0,0.0,0.0,0.0,0.0,0.0,0.0,0.0,0.0,0.0,0.0,0.0,0.0,0.0,0.0,0.0,0.0,0.0,0.0,0.0,0.0,0.0,0.0,0.0,0.0,0.0,1.0578,1.0463,1.0443,1.0392,1.0249,1.0226,1.0212,1.0175,1.007,0.9933,0.9933,0.989,0.9822,0.9822,0.9822,0.9822,0.9822,0.9788,0.9724,0.9615,0.954,0.9391,0.9214,0.9176,0.9028,0.8828,0.8794,0.8771,0.8655,0.8655,0.8594,0.8479,0.8445,0.8431,0.8428,0.8394,0.8377,0.8367,0.8258,0.8214,0.8204,0.8032,0.7988,0.7988,0.7988,0.7988,0.7988,0.7988,0.7988,0.7988,0.7988,0.7988,0.7988,0.7942,0.7892,0.7892,0.7739,0.769,0.769,0.764,0.7556,0.7456,0.7388,0.7045,0.6725,0.6648,0.6242,0.5905,0.5858,0.5529,0.5241,0.5241,0.487,0.4569,0.4489,0.4339,0.4245,0.0,0.4087,0.3996,0.3823,0.3285,0.2635,0.0,0.0,0.0,0.0251,0.0219,0.0148,0.0,0.0,0.0,0.0,0.0,0.0,0.0,0.0,0.0,0.0,0.0,0.0,0.0,0.0,0.0,0.0,0.0,0.0,0.0,0.0,0.0,0.0,0.0,0.0,0.0,1.0721,1.0721,1.0694,1.0612,1.0595,1.0548,1.0399,1.0378,1.0354,1.029,1.0209,1.0127,0.9994,0.9913,0.9897,0.9825,0.9822,0.9822,0.9822,0.9822,0.9788,0.971,0.9646,0.9534,0.9364,0.935,0.9184,0.9035,0.8971,0.8841,0.8815,0.8815,0.8771,0.8686,0.8618,0.8584,0.8581,0.8513,0.8482,0.8476,0.8397,0.8367,0.836,0.8272,0.8241,0.8231,0.817,0.8143,0.8133,0.8012,0.7988,0.7988,0.7988,0.7988,0.7988,0.7988,0.7988,0.7988,0.7988,0.7988,0.7988,0.7988,0.7928,0.7896,0.7828,0.7594,0.7349,0.7217,0.6902,0.6645,0.658,0.6257,0.5993,0.5993,0.5577,0.5253,0.5218,0.4977,0.4862,0.4961,0.4874,0.4754,0.4584,0.4101,0.3444,0.2628,0.2112,0.0,0.0779,0.0684,0.0423,0.0,0.0,0.0,0.0,0.0,0.0,0.0,0.0,0.0,0.0,0.0,0.0,0.0,0.0,0.0,0.0,0.0,0.0,0.0,0.0,0.0,0.0,0.0,0.0,0.0,1.0721,1.0721,1.0721,1.0721,1.0721,1.0677,1.0548,1.0527,1.0483,1.0365,1.0327,1.0253,1.01,1.0,0.9926,0.9836,0.9822,0.9822,0.9822,0.9822,0.9822,0.9822,0.9707,0.9632,0.9608,0.9459,0.9306,0.921,0.9032,0.8905,0.8885,0.8885,0.8885,0.8878,0.8804,0.8747,0.8737,0.8608,0.855,0.855,0.8526,0.8516,0.8513,0.8489,0.8482,0.8465,0.8347,0.8354,0.8279,0.8126,0.8025,0.8019,0.7995,0.7988,0.7988,0.7988,0.7988,0.7988,0.7988,0.7988,0.7988,0.7988,0.7988,0.7958,0.7875,0.7828,0.774,0.7489,0.745,0.7329,0.72,0.6915,0.6702,0.6702,0.6201,0.5837,0.5837,0.0,0.5268,0.5598,0.5478,0.5349,0.5241,0.4862,0.4314,0.3419,0.2841,0.2229,0.1578,0.1335,0.0914,0.0239,0.0122,0.0042,0.0,0.0,0.0,0.0,0.0,0.0,0.0,0.0,0.0,0.0,0.0,0.0,0.0,0.0,0.0,0.0,0.0,0.0,0.0,0.0,0.0,0.0,1.0721,1.0721,1.0721,1.0721,1.0721,1.0711,1.0687,1.0683,1.0677,1.0656,1.0538,1.0402,1.0259,1.0127,0.9926,0.9836,0.9822,0.9822,0.9822,0.9822,0.9822,0.9822,0.9798,0.9734,0.9612,0.9459,0.9306,0.921,0.9187,0.9059,0.8885,0.8885,0.8885,0.8881,0.8858,0.8848,0.8848,0.8821,0.8814,0.8801,0.8726,0.8676,0.8662,0.853,0.8482,0.8479,0.8459,0.8448,0.8428,0.8282,0.8235,0.8211,0.8029,0.7988,0.7988,0.7988,0.7988,0.7988,0.7988,0.7988,0.7988,0.7988,0.7988,0.7982,0.7961,0.7902,0.7797,0.7753,0.7546,0.7409,0.7339,0.6987,0.6702,0.6702,0.6283,0.5956,0.5956,0.0,0.5938,0.613,0.625,0.6261,0.6198,0.597,0.5465,0.462,0.4294,0.3677,0.2644,0.2367,0.1931,0.1197,0.0645,0.0218,0.0,0.0,0.0,0.0,0.0,0.0,0.0,0.0,0.0,0.0,0.0,0.0,0.0,0.0,0.0,0.0,0.0,0.0,0.0,0.0,0.0,0.0,1.0721,1.0721,1.0721,1.0721,1.0721,1.0721,1.0721,1.0721,1.0721,1.0721,1.066,1.0558,1.0412,1.0263,1.011,0.9896,0.9869,0.9822,0.9822,0.9822,0.9822,0.9822,0.9822,0.9791,0.9724,0.9581,0.9469,0.9398,0.9292,0.9176,0.9052,0.8974,0.8885,0.8885,0.8885,0.8885,0.8885,0.8885,0.8885,0.8875,0.8807,0.8832,0.8825,0.8754,0.8726,0.8716,0.8635,0.8604,0.8581,0.8435,0.8385,0.831,0.8187,0.8106,0.7988,0.7988,0.7988,0.7988,0.7988,0.7988,0.7988,0.7988,0.7988,0.7988,0.7988,0.7934,0.7913,0.7828,0.7702,0.756,0.7446,0.7136,0.6885,0.6725,0.6458,0.0,0.6268,0.6268,0.6325,0.6478,0.6556,0.6538,0.6395,0.6322,0.5987,0.5402,0.5157,0.4657,0.3775,0.3525,0.305,0.2169,0.101,0.0356,0.0224,0.009,0.0,0.0,0.0,0.0,0.0,0.0,0.0,0.0,0.0,0.0,0.0,0.0,0.0,0.0,0.0,0.0,0.0,0.0,0.0,0.0,1.0721,1.0721,1.0721,1.0721,1.0721,1.0721,1.0721,1.0721,1.0721,1.0721,1.0721,1.0663,1.051,1.0395,1.0253,1.0004,0.9879,0.9859,0.9822,0.9822,0.9822,0.9822,0.9822,0.9822,0.9822,0.9713,0.9642,0.9608,0.9374,0.9299,0.9258,0.9055,0.8988,0.8988,0.8898,0.8885,0.8885,0.8885,0.8885,0.8885,0.8885,0.8885,0.8885,0.8885,0.8885,0.8868,0.8804,0.8764,0.874,0.8587,0.8462,0.836,0.8344,0.8187,0.8085,0.8002,0.7988,0.7988,0.7988,0.7988,0.7988,0.7988,0.7988,0.7988,0.7988,0.7988,0.7958,0.7889,0.7834,0.7743,0.7516,0.7292,0.7021,0.6841,0.0,0.6566,0.6566,0.6566,0.6583,0.6736,0.6753,0.6682,0.6583,0.6544,0.6418,0.6042,0.5876,0.5537,0.49,0.4674,0.4104,0.319,0.1511,0.0628,0.0583,0.0269,0.009,0.009,0.0045,0.0045,0.009,0.009,0.0135,0.018,0.0135,0.009,0.009,0.0045,0.0,0.0,0.0,0.0,0.0,0.0,0.0,0.0,1.0787,1.0721,1.0721,1.0721,1.0721,1.0721,1.0721,1.0721,1.0721,1.0721,1.0721,1.0663,1.051,1.0483,1.0361,1.0011,0.9977,0.9909,0.9829,0.9822,0.9822,0.9822,0.9822,0.9822,0.9822,0.9812,0.9741,0.9608,0.9588,0.9503,0.9361,0.9265,0.9193,0.9187,0.8998,0.8885,0.8885,0.8885,0.8885,0.8885,0.8885,0.8885,0.8885,0.8885,0.8885,0.8881,0.8871,0.8865,0.8844,0.8747,0.8686,0.8628,0.8357,0.8313,0.8225,0.8032,0.7988,0.7988,0.7988,0.7988,0.7988,0.7988,0.7988,0.7988,0.7988,0.7988,0.7985,0.7975,0.7909,0.7804,0.7784,0.7382,0.7088,0.7068,0.0,0.0,0.6681,0.6681,0.6742,0.6852,0.6869,0.692,0.7051,0.7065,0.6977,0.6763,0.6719,0.6498,0.601,0.5747,0.5174,0.42,0.2329,0.1256,0.1031,0.0583,0.0359,0.0359,0.0135,0.0135,0.0359,0.0359,0.0493,0.0628,0.0448,0.0359,0.0359,0.009,0.0,0.0,0.0,0.0,0.0,0.0,0.0,0.0,1.1776,1.171,1.1582,1.1115,1.0986,1.0916,1.0721,1.0721,1.0721,1.0721,1.0721,1.0697,1.0639,1.0548,1.0412,1.0212,1.0041,0.9923,0.9832,0.9822,0.9822,0.9822,0.9822,0.9822,0.9822,0.9822,0.9795,0.9741,0.9652,0.9581,0.952,0.9364,0.9303,0.9207,0.9096,0.9022,0.8885,0.8885,0.8885,0.8885,0.8885,0.8885,0.8885,0.8885,0.8885,0.8885,0.8885,0.8885,0.8875,0.8817,0.8791,0.8689,0.8577,0.8418,0.8241,0.8035,0.7988,0.7988,0.7988,0.7988,0.7988,0.7988,0.7988,0.7988,0.7988,0.7988,0.7988,0.7988,0.7944,0.7923,0.7828,0.7672,0.7419,0.7142,0.0,0.69,0.6854,0.6844,0.6852,0.7001,0.7014,0.7038,0.7092,0.7095,0.7051,0.701,0.6966,0.6836,0.6571,0.6171,0.5722,0.5186,0.4071,0.2953,0.1972,0.1524,0.1166,0.1031,0.0808,0.0808,0.1031,0.0897,0.0942,0.1121,0.1031,0.1031,0.0987,0.0763,0.0687,0.066,0.038,0.0243,0.025,0.005,0.0,0.0,1.2894,1.27,1.2433,1.1971,1.1773,1.1641,1.1376,1.1376,1.1376,1.1376,1.1376,1.131,1.1181,1.1151,1.0893,1.055,1.0335,1.0118,0.9903,0.9846,0.9822,0.9822,0.9822,0.9822,0.9822,0.9822,0.9822,0.9822,0.9724,0.9676,0.9673,0.9523,0.9398,0.935,0.9251,0.9096,0.9001,0.8902,0.8885,0.8885,0.8885,0.8885,0.8885,0.8885,0.8885,0.8885,0.8885,0.8885,0.8885,0.8885,0.8814,0.8774,0.8726,0.8509,0.8248,0.8143,0.8025,0.7988,0.7988,0.7988,0.7988,0.7988,0.7988,0.7988,0.7988,0.7988,0.7988,0.7988,0.7988,0.7958,0.7902,0.7841,0.7709,0.7355,0.7227,0.718,0.7082,0.6984,0.6987,0.7085,0.7095,0.7095,0.7095,0.7095,0.7095,0.7095,0.7095,0.7054,0.6881,0.6526,0.6216,0.6033,0.5453,0.4605,0.3534,0.2598,0.2062,0.1883,0.1569,0.1569,0.1749,0.1613,0.1704,0.1973,0.1793,0.1793,0.1839,0.158,0.1432,0.1335,0.0912,0.0736,0.0606,0.0253,0.0101,0.0101,1.4071,1.3608,1.3341,1.328,1.3013,1.2816,1.2816,1.2816,1.2816,1.2816,1.2816,1.2688,1.2371,1.2309,1.1972,1.1088,1.0874,1.0594,1.0059,0.9907,0.9822,0.9822,0.9822,0.9822,0.9822,0.9822,0.9822,0.9822,0.9822,0.9822,0.9819,0.9676,0.9612,0.9595,0.935,0.9214,0.9204,0.9001,0.8885,0.8885,0.8885,0.8885,0.8885,0.8885,0.8885,0.8885,0.8885,0.8885,0.8885,0.8885,0.8885,0.8858,0.8757,0.8509,0.8327,0.8323,0.8163,0.7992,0.7988,0.7988,0.7988,0.7988,0.7988,0.7988,0.7988,0.7988,0.7988,0.7988,0.7988,0.7988,0.7988,0.7916,0.7814,0.7811,0.7563,0.7419,0.7419,0.7241,0.7098,0.7098,0.7095,0.7095,0.7095,0.7095,0.7095,0.7095,0.7095,0.7095,0.7095,0.6925,0.6795,0.6795,0.6349,0.5991,0.5719,0.3848,0.2913,0.2911,0.2463,0.2329,0.2508,0.2508,0.2777,0.3183,0.2732,0.2688,0.2872,0.2473,0.215,0.1907,0.1702,0.1439,0.1162,0.0606,0.0404,0.0354,1.6219,1.5959,1.5564,1.4586,1.4324,1.4128,1.3608,1.3547,1.3547,1.3547,1.3547,1.3547,1.342,1.3153,1.2878,1.25,1.219,1.1913,1.1495,1.1309,1.1212,1.1212,1.0304,0.9822,0.9822,0.9822,0.9822,0.9822,0.9822,0.9822,0.9819,0.9778,0.9703,0.9605,0.9513,0.9412,0.9303,0.915,0.9089,0.9079,0.8981,0.8885,0.8885,0.8885,0.8885,0.8885,0.8885,0.8885,0.8885,0.8885,0.8885,0.8858,0.8757,0.8652,0.8537,0.8333,0.8238,0.8177,0.8019,0.7988,0.7988,0.7988,0.7988,0.7988,0.7988,0.7988,0.7988,0.7988,0.7988,0.7988,0.7988,0.7951,0.7887,0.7828,0.7736,0.7645,0.7546,0.74,0.7302,0.7302,0.7207,0.7095,0.7095,0.7095,0.7095,0.7095,0.7095,0.7095,0.7095,0.7054,0.701,0.701,0.6748,0.6571,0.6479,0.5277,0.4565,0.4385,0.3894,0.3805,0.4024,0.3669,0.3758,0.4249,0.4115,0.424,0.4485,0.4049,0.3859,0.3788,0.3028,0.2578,0.2221,0.1513,0.111,0.0909,1.791,1.7711,1.7319,1.6467,1.6208,1.6014,1.5569,1.5499,1.5499,1.5499,1.5499,1.5438,1.5178,1.4912,1.4535,1.3893,1.3302,1.2851,1.2542,1.235,1.2254,1.2182,1.1394,1.0789,1.0425,1.0365,1.0304,1.0183,1.0183,1.0183,1.0183,1.0183,1.0137,1.0109,1.0168,1.0085,0.9868,0.9824,0.9699,0.9464,0.9317,0.9226,0.9106,0.9049,0.9022,0.9015,0.8902,0.8885,0.8885,0.8885,0.8885,0.8868,0.8828,0.876,0.8676,0.8496,0.8364,0.8252,0.8157,0.8085,0.7988,0.7988,0.7988,0.7988,0.7988,0.7988,0.7988,0.7988,0.7988,0.7988,0.7988,0.7988,0.7961,0.7916,0.7848,0.778,0.7695,0.7556,0.7461,0.7461,0.7326,0.7231,0.7231,0.7132,0.7095,0.7095,0.7095,0.7095,0.7095,0.7095,0.7095,0.7095,0.6966,0.6925,0.6925,0.6346,0.5858,0.5411,0.5055,0.4919,0.5095,0.4739,0.4895,0.5343,0.5205,0.5357,0.5696,0.5364,0.522,0.5092,0.4292,0.3839,0.3478,0.2571,0.2068,0.1767,1.9328,1.8932,1.8664,1.86,1.8349,1.8098,1.8098,1.8098,1.8098,1.8098,1.8098,1.784,1.7265,1.713,1.6608,1.5298,1.4461,1.3866,1.3507,1.3448,1.3348,1.3111,1.3084,1.2595,1.1692,1.145,1.1212,1.091,1.091,1.091,1.091,1.097,1.097,1.0963,1.1177,1.1051,1.0802,1.086,1.0613,1.0095,1.0022,0.9841,0.9538,0.9396,0.9277,0.9193,0.9005,0.895,0.8885,0.8885,0.8885,0.8885,0.8885,0.879,0.8726,0.8713,0.852,0.8354,0.833,0.8167,0.8008,0.7992,0.7988,0.7988,0.7988,0.7988,0.7988,0.7988,0.7988,0.7988,0.7988,0.7988,0.7988,0.7988,0.7923,0.7831,0.7831,0.7709,0.7617,0.7617,0.7485,0.7439,0.7439,0.7265,0.7136,0.7136,0.7136,0.7136,0.7136,0.7136,0.7136,0.7136,0.7125,0.7119,0.7119,0.7102,0.6789,0.6171,0.5944,0.5808,0.5808,0.5764,0.597,0.6368,0.6087,0.6256,0.6626,0.6452,0.6263,0.5994,0.5546,0.5183,0.4834,0.3776,0.3225,0.2875,2.0348,2.0221,1.996,1.9444,1.9316,1.9194,1.888,1.888,1.888,1.888,1.888,1.8816,1.8688,1.8355,1.8022,1.7759,1.7152,1.6776,1.6735,1.6385,1.6156,1.6046,1.5845,1.5386,1.4674,1.2951,1.1993,1.1877,1.1877,1.1877,1.1872,1.2178,1.2298,1.2294,1.2316,1.2299,1.2226,1.1858,1.1661,1.1532,1.1165,1.0824,1.047,1.0436,1.0052,0.9483,0.9451,0.9199,0.8885,0.8885,0.8885,0.8885,0.8885,0.8861,0.8811,0.8747,0.8665,0.8564,0.8333,0.8245,0.8191,0.8019,0.7988,0.7988,0.7988,0.7988,0.7988,0.7988,0.7988,0.7988,0.7988,0.7988,0.7988,0.7988,0.7961,0.7941,0.7941,0.7862,0.7767,0.7767,0.7638,0.755,0.755,0.7519,0.7502,0.7502,0.7502,0.7502,0.7502,0.7502,0.7502,0.7502,0.7383,0.7322,0.7322,0.72,0.7007,0.6874,0.6659,0.6571,0.6571,0.6343,0.6463,0.6828,0.678,0.7057,0.7475,0.7266,0.7202,0.7205,0.6681,0.6287,0.5934,0.5079,0.458,0.4232,2.0856,2.0856,2.0729,2.0405,2.0342,2.0284,2.0094,2.003,2.003,2.003,2.003,1.9966,1.9839,1.9641,1.938,1.9054,1.8609,1.8289,1.8223,1.7963,1.771,1.7462,1.7255,1.6942,1.6532,1.5154,1.4083,1.331,1.331,1.331,1.337,1.3495,1.3614,1.3614,1.3968,1.3909,1.3605,1.367,1.3381,1.2785,1.2569,1.2177,1.1703,1.1437,1.1115,1.072,1.0386,0.995,0.9544,0.9544,0.9379,0.9158,0.9158,0.9047,0.8868,0.8842,0.8767,0.8676,0.8523,0.8377,0.8252,0.817,0.8096,0.7988,0.7988,0.7988,0.7988,0.7988,0.7988,0.7988,0.7988,0.7988,0.7988,0.7988,0.7988,0.7988,0.7988,0.7921,0.787,0.787,0.779,0.7675,0.7607,0.76,0.76,0.76,0.76,0.76,0.76,0.76,0.76,0.76,0.7522,0.7482,0.7482,0.74,0.736,0.7356,0.708,0.6922,0.6922,0.6786,0.695,0.7297,0.7297,0.7506,0.787,0.7727,0.7724,0.7743,0.7344,0.7092,0.6889,0.6237,0.5737,0.5236,2.1109,2.1109,2.1109,2.1109,2.1109,2.1109,2.1109,2.1109,2.1109,2.1109,2.1109,2.0982,2.0736,2.0672,2.0475,1.9896,1.9584,1.9357,1.9117,1.9056,1.8834,1.8391,1.828,1.8066,1.7787,1.7491,1.6579,1.4981,1.4981,1.4981,1.4981,1.5046,1.5105,1.5105,1.5693,1.5634,1.51,1.5634,1.5213,1.4262,1.4197,1.3784,1.3177,1.2767,1.2447,1.2147,1.1604,1.1023,1.0575,1.052,1.0114,0.9599,0.9544,0.9268,0.8992,0.8992,0.8849,0.8743,0.8716,0.8533,0.8333,0.8333,0.8174,0.8022,0.7995,0.7988,0.7988,0.7988,0.7988,0.7988,0.7988,0.7988,0.7988,0.7988,0.7988,0.7988,0.7988,0.7988,0.7988,0.7988,0.7877,0.7804,0.7685,0.7675,0.7675,0.7675,0.7675,0.7675,0.7675,0.7675,0.7675,0.7675,0.7648,0.7638,0.7638,0.7611,0.76,0.7597,0.7339,0.7173,0.7173,0.7173,0.737,0.7638,0.7638,0.779,0.7988,0.7988,0.7988,0.7992,0.7743,0.7646,0.7596,0.7095,0.6595,0.6042,2.1109,2.1109,2.1109,2.1109,2.1109,2.1109,2.1109,2.1109,2.1109,2.1109,2.1109,2.1109,2.1046,2.1046,2.0982,2.0919,2.0856,2.0836,2.0796,2.0559,2.0387,2.0315,1.9826,1.9417,1.9068,1.8764,1.7994,1.6697,1.6697,1.6697,1.6697,1.6944,1.7126,1.7126,1.7185,1.7185,1.7067,1.6879,1.6697,1.652,1.6214,1.5741,1.5213,1.5123,1.434,1.3182,1.3126,1.2456,1.1642,1.1419,1.0984,1.0472,1.0257,0.9761,0.9323,0.9323,0.9089,0.8824,0.8747,0.8679,0.8587,0.8333,0.8255,0.8204,0.8019,0.7988,0.7988,0.7988,0.7988,0.7988,0.7988,0.7988,0.7988,0.7988,0.7988,0.7988,0.7988,0.7988,0.7988,0.7988,0.7971,0.7951,0.7931,0.7931,0.7931,0.7931,0.7931,0.7931,0.7931,0.7931,0.7931,0.7931,0.7851,0.7784,0.7784,0.7662,0.76,0.76,0.7556,0.7539,0.7539,0.7539,0.7628,0.7784,0.7784,0.7879,0.7988,0.7988,0.7988,0.7988,0.7942,0.7939,0.7892,0.7596,0.7144,0.6692,2.1109,2.1109,2.1109,2.1109,2.1109,2.1109,2.1109,2.1109,2.1109,2.1109,2.1109,2.1109,2.1109,2.1109,2.1109,2.1109,2.1109,2.1109,2.1109,2.0989,2.0848,2.0681,2.0267,1.99,1.9615,1.933,1.8887,1.8357,1.7941,1.7766,1.7766,1.7948,1.8006,1.8012,1.8181,1.8181,1.8012,1.8058,1.7877,1.7467,1.7337,1.705,1.6644,1.6461,1.5981,1.5397,1.5093,1.437,1.3565,1.333,1.2622,1.1815,1.138,1.0857,1.0308,1.0143,1.0033,0.9853,0.9672,0.9529,0.9315,0.8917,0.865,0.8452,0.8234,0.8199,0.8184,0.8038,0.7988,0.7988,0.7988,0.7988,0.7988,0.7988,0.7988,0.7988,0.7988,0.7988,0.7988,0.7988,0.7988,0.7988,0.7988,0.7988,0.7988,0.7988,0.7988,0.7988,0.7988,0.7988,0.7988,0.7988,0.7924,0.7891,0.7891,0.7875,0.7845,0.7845,0.7845,0.776,0.76,0.76,0.7678,0.7811,0.7811,0.7896,0.7988,0.7988,0.7988,0.7988,0.7988,0.7988,0.7988,0.7892,0.7693,0.7431]}]]